     2.11           OBSERVATION DATA    G (GPS)             RINEX VERSION / TYPE
teqc 2010Oct21 OPUS Account 20111028 16:16:45UTC            PGM / RUN BY / DATE
C 1519                                                      MARKER NAME
2056                                                        MARKER NUMBER
CSMIDDLETON NGS                                             OBSERVER / AGENCY
4624K01590 TRIMBLE NETR5 4.41                               REC # / TYPE / VERS
12236910 TRM41249.00 NONE                                   ANT # / TYPE
  -728102.5451 -5588937.7616  2975647.1466                  APPROX POSITION XYZ
        2.0010        0.0000        0.0000                  ANTENNA: DELTA H/E/N
     1     1                                                WAVELENGTH FACT L1/2
     5    L1    L2    C1    P1    P2                        # / TYPES OF OBSERV
    15                                                      LEAP SECONDS
  2011     8    24     0     0    0.0000000     GPS         TIME OF FIRST OBS
                                                            END OF HEADER
 11  8 24  0  0  0.0000000  0  9G12G09G10G05G25G17G04G30G02
 113420414.02617  88379607.00617  21583181.813                    21583189.355
 123680798.45317  96374688.91753  23535670.844                    23535682.328
 109711478.82618  85489432.74056  20877328.961                    20877337.527
 116085507.35517  90456310.99017  22090314.242                    22090324.285
 127954024.31416  99704482.56716  24348846.602                    24348858.508
 121345996.94317  94555405.93316  23091373.133                    23091382.895
 113489803.38518  88433726.65256  21596368.516                    21596377.336
 127547089.13115                  24271409.430
 108497051.47818  84543270.52756  20646274.047                    20646279.949
 11  8 24  0  0 30.0000000  0  9G12G09G10G05G25G17G04G30G02
 113355827.612 7  88329279.976 7  21570891.445                    21570899.414
 123756452.818 7  96433640.25444  23550068.188                    23550079.520
 109707909.598 8  85486651.55946  20876649.586                    20876658.297
 115993767.256 7  90384825.331 7  22072857.227                    22072866.883
 127852915.868 6  99625696.837 6  24329605.313                    24329618.262
 121396269.275 7  94594579.122 6  23100939.867                    23100949.367
 113565189.764 8  88492469.27746  21610713.680                    21610722.602
 127443828.257 6  99306943.23753  24251760.242                    24251770.742
 108494645.234 7  84541395.55846  20645816.031                    20645821.773
 11  8 24  0  1  0.0000000  0  9G12G09G10G05G25G17G04G30G02
 113291646.027 7  88279268.395 7  21558677.984                    21558686.012
 123832301.719 7  96492743.17544  23564501.914                    23564513.316
 109704968.301 8  85484359.66446  20876090.094                    20876098.543
 115902312.872 7  90313562.289 7  22055453.813                    22055463.199
 127751955.632 6  99547026.597 6  24310393.383                    24310406.625
 121446694.000 7  94633871.030 6  23110535.445                    23110545.152
 113640723.698 8  88551326.86546  21625087.406                    21625096.480
 127340771.934 6  99226639.69643  24232149.461                    24232160.340
 108492531.919 8  84539748.84246  20645413.984                    20645419.578
 11  8 24  0  1 30.0000000  0  9G12G09G10G05G25G17G04G30G02
 113227871.338 7  88229573.879 7  21546541.914                    21546550.090
 123908342.001 7  96551995.28343  23578971.383                    23578982.980
 109702655.419 8  85482557.43946  20875650.047                    20875658.277
 115811146.303 7  90242523.517 7  22038105.102                    22038114.953
 127651145.913 6  99468473.656 6  24291209.992                    24291223.215
 121497271.699 7  94673282.147 6  23120160.359                    23120169.395
 113716402.787 8  88610297.55446  21639488.906                    21639497.738
 127237923.032 6  99146497.73043  24212578.180                    24212588.133
 108490710.201 8  84538329.35246  20645067.383                    20645072.844
 11  8 24  0  2  0.0000000  0  9G12G09G10G05G25G17G04G30G02
 113164506.047 7  88180198.370 7  21534483.898                    21534491.609
 123984570.336 7  96611393.91044  23593477.375                    23593488.754
 109700971.510 8  85481245.31946  20875329.180                    20875337.680
 115720270.972 7  90171711.692 7  22020811.711                    22020821.926
 127550489.420 6  99390040.110 6  24272055.719                    24272067.824
 121548003.085 7  94712813.037 6  23129813.734                    23129823.801
 113792225.627 8  88669380.25845  21653917.508                    21653926.512
 127135284.314 6  99066519.57243  24193046.250                    24193056.195
 108489179.402 7  84537136.55646  20644776.258                    20644781.703
 11  8 24  0  2 30.0000000  0  9G12G09G10G05G25G17G04G30G02
 113101552.943 7  88131144.048 7  21522504.086                    21522511.723
 124060983.167 7  96670936.29744  23608018.750                    23608029.789
 109699916.628 8  85480423.36246  20875128.508                    20875137.188
 115629689.822 7  90101129.101 7  22003574.844                    22003584.801
 127449988.773 7  99311727.992 6  24252931.719                    24252943.008
 121598888.602 7  94752464.025 6  23139497.328                    23139506.898
 113868189.797 8  88728573.08246  21668373.422                    21668382.398
 127032858.737 6  98986707.47944  24173555.227                    24173566.035
 108487938.031 7  84536169.28746  20644539.727                    20644545.480
 11  8 24  0  3  0.0000000  0  9G12G09G10G05G25G17G04G30G02
 113039013.845 7  88082412.316 7  21510603.398                    21510610.781
 124137577.058 7  96730619.74744  23622594.117                    23622605.637
 109699490.957 8  85480091.68846  20875047.727                    20875056.164
 115539405.559 7  90030777.836 7  21986394.172                    21986403.813
 127349646.392 7  99233539.230 6  24233837.047                    24233848.133
 121649929.059 7  94792235.758 6  23149210.273                    23149219.637
 113944293.189 8  88787874.40445  21682855.250                    21682864.496
 126930648.873 6  98907063.47643  24154105.078                    24154115.383
 108486985.067 8  84535426.73946  20644358.203                    20644363.945
 11  8 24  0  3 30.0000000  0  9G12G09G10G05G25G17G04G30G02
 112976891.028 7  88034004.957 7  21498781.766                    21498789.363
 124214348.535 7  96790441.60744  23637202.875                    23637215.109
 109699694.645 8  85480250.43646  20875086.188                    20875094.410
 115449421.277 7  89960660.333 7  21969270.523                    21969280.117
 127249464.935 7  99155475.852 6  24214773.531                    24214784.047
 121701124.655 7  94832128.357 6  23158951.930                    23158961.910
 114020533.986 8  88847282.78645  21697363.289                    21697371.969
 126828657.551 6  98827589.79143  24134696.117                    24134706.605
 108486319.316 8  84534908.00146  20644231.680                    20644237.613
 11  8 24  0  4  0.0000000  0  9G12G09G10G05G25G17G04G30G02
 112915187.647 7  87985924.441 7  21487039.898                    21487047.664
 124291294.252 7  96850399.22944  23651845.000                    23651857.172
 109700528.255 8  85480900.03546  20875245.023                    20875253.414
 115359739.436 7  89890778.496 7  21952205.156                    21952214.793
 127149446.963 7  99077539.873 6  24195739.852                    24195752.012
 121752476.622 7  94872142.822 6  23168724.391                    23168734.133
 114096910.032 8  88906796.56445  21711896.922                    21711906.094
 126726887.578 6  98748288.59643  24115330.813                    24115340.766
 108485939.517 8  84534612.08846  20644159.500                    20644165.020
 11  8 24  0  4 30.0000000  0  9G12G09G10G05G25G17G04G30G02
 112853905.607 7  87938172.242 7  21475378.336                    21475386.367
 124368410.832 6  96910489.97344  23666519.930                    23666532.340
 109701992.083 8  85482040.71446  20875523.305                    20875532.242
 115270363.277 7  89821134.872 7  21935196.961                    21935206.477
 127049595.022 7  98999733.273 6  24176738.773                    24176750.750
 121803985.385 7  94912279.440 6  23178526.117                    23178536.012
 114173419.453 8  88966414.25245  21726456.172                    21726465.027
 126625341.843 7  98669162.15743  24096007.906                    24096016.648
 108485844.719 8  84534538.25146  20644141.172                    20644146.988
 11  8 24  0  5  0.0000000  0  9G12G09G10G05G25G17G04G30G02
 112793047.046 7  87890750.017 7  21463797.109                    21463805.063
 124445694.948 7  96970711.23844  23681227.563                    23681239.133
 109704086.024 8  85483672.39146  20875922.031                    20875930.383
 115181295.219 7  89751731.302 7  21918247.852                    21918257.176
 126949911.781 7  98922058.113 7  24157769.156                    24157782.203
 121855651.473 7  94952538.663 6  23188358.672                    23188368.137
 114250060.118 8  89026134.22045  21741040.508                    21741049.039
 126524023.067 6  98590212.59443  24076726.766                    24076736.016
 108486033.539 8  84534685.41146  20644177.359                    20644182.824
 11  8 24  0  5 30.0000000  0  9G12G09G10G05G25G17G04G30G02
 112732614.451 7  87843659.702 7  21452297.625                    21452304.777
 124523143.185 6  97031060.40644  23695964.508                    23695977.203
 109706810.217 8  85485795.16946  20876440.617                    20876448.840
 115092538.680 7  89682570.483 7  21901357.820                    21901367.191
 126850399.967 7  98844516.528 7  24138833.070                    24138845.715
 121907475.284 7  94992920.783 7  23198219.914                    23198230.332
 114326830.206 8  89085955.02545  21755649.477                    21755658.262
 126422934.332 6  98511442.24543  24057490.695                    24057499.484
 108486505.220 8  84535052.99246  20644266.852                    20644272.531
 11  8 24  0  6  0.0000000  0  9G12G09G10G05G25G17G04G30G02
 112672610.514 7  87796903.402 7  21440878.820                    21440886.066
 124600752.226 6  97091534.86844  23710733.031                    23710745.230
 109710165.301 8  85488409.54846  20877078.859                    20877086.738
 115004096.379 7  89613654.521 7  21884528.039                    21884537.035
 126751062.207 7  98767110.571 7  24119930.172                    24119942.332
 121959457.442 7  95033426.311 6  23208111.750                    23208122.020
 114403727.921 8  89145875.29545  21770282.672                    21770291.691
 126322078.374 6  98432853.31543  24038297.680                    24038307.863
 108487258.552 8  84535640.02746  20644410.094                    20644416.055
 11  8 24  0  6 30.0000000  0  9G12G09G10G05G25G17G04G30G02
 112613037.147 8  87750482.612 7  21429542.375                    21429549.926
 124678518.748 6  97152132.01744  23725531.305                    23725543.832
 109714151.241 8  85491515.49846  20877837.359                    20877845.754
 114915971.022 7  89544985.532 7  21867757.938                    21867767.328
 126651900.985 7  98689842.171 7  24101060.016                    24101072.527
 122011598.595 7  95074055.741 6  23218033.820                    23218043.898
 114480751.119 8  89205893.35445  21784939.695                    21784948.496
 126221457.983 6  98354447.93343  24019149.539                    24019160.668
 108488292.265 7  84536445.54646  20644606.969                    20644612.402
 11  8 24  0  7  0.0000000  0  9G12G09G10G05G25G17G04G30G02
 112553896.580 8  87704399.070 7  21418288.500                    21418295.766
 124756439.284 7  97212849.21844  23740359.859                    23740372.242
 109718767.881 8  85495112.90646  20878715.797                    20878723.773
 114828165.732 7  89476565.937 7  21851049.766                    21851058.410
 126552918.814 7  98612713.326 7  24082224.219                    24082235.906
 122063899.464 7  95114809.610 6  23227986.594                    23227996.605
 114557897.754 8  89266007.59245  21799620.188                    21799629.418
 126121075.818 6  98276228.15143  24000046.734                    24000058.777
 108489605.175 8  84537468.61846  20644856.914                    20644862.637
 11  8 24  0  7 30.0000000  0  9G12G09G10G05G25G17G04G30G02
 112495191.532 8  87658654.891 7  21407117.477                    21407124.613
 124834510.287 7  97273683.65844  23755216.648                    23755228.629
 109724015.000 7  85499201.59746  20879714.188                    20879722.504
 114740683.167 7  89408397.809 7  21834401.883                    21834410.773
 126454118.387 6  98535726.104 6  24063422.359                    24063434.633
 122116360.795 7  95155688.524 6  23237969.820                    23237979.785
 114635166.020 8  89326216.61945  21814323.805                    21814333.375
 126020934.693 6  98198196.24943  23980990.227                    23981002.340
 108491195.979 7  84538708.23246  20645159.656                    20645165.785
 11  8 24  0  8  0.0000000  0  9G12G09G10G05G25G17G04G30G02
 112436924.367 8  87613251.920 7  21396029.211                    21396036.707
 124912728.689 7  97334632.93444  23770101.148                    23770113.086
 109729893.210 8  85503782.04646  20880832.984                    20880841.199
 114653526.041 7  89340483.277 7  21817816.445                    21817825.254
 126355502.565 6  98458882.692 6  24044656.859                    24044667.805
 122168982.878 7  95196692.711 6  23247983.500                    23247993.590
 114712554.112 8  89386519.01045  21829050.281                    21829059.371
 125921037.851 6  98120354.62643  23961982.109                    23961992.148
 108493063.742 8  84540163.65046  20645514.539                    20645520.543
 11  8 24  0  8 30.0000000  0  9G12G09G10G05G25G17G04G30G02
 112379096.821 8  87568191.512 7  21385025.125                    21385032.461
 124991091.090 6  97395694.42644  23785013.953                    23785025.520
 109736402.207 8  85508854.02046  20882071.664                    20882079.883
 114566697.467 7  89272824.745 7  21801292.891                    21801301.570
 126257073.677 6  98382184.932 6  24025925.961                    24025937.422
 122221766.103 7  95237822.457 6  23258027.922                    23258037.512
 114790059.674 8  89446912.93845  21843799.172                    21843808.223
 125821387.626 6  98042705.15943  23943019.281                    23943029.039
 108495207.144 8  84541833.84846  20645922.594                    20645928.359
 11  8 24  0  9  0.0000000  0  9G12G09G10G05G25G17G04G30G02
 112321711.320 8  87523475.543 7  21374104.789                    21374112.379
 125069593.758 7  97456865.29943  23799951.414                    23799963.434
 109743541.686 8  85514417.27446  20883429.938                    20883438.488
 114480199.730 7  89205424.020 7  21784832.898                    21784842.094
 126158834.141 7  98305634.696 6  24007231.602                    24007243.773
 122274711.101 7  95279078.271 7  23268102.586                    23268113.121
 114867681.079 8  89507397.14445  21858570.227                    21858578.859
 125721986.816 7  97965250.03143  23924104.633                    23924112.945
 108497624.667 8  84543717.64446  20646382.633                    20646388.391
 11  8 24  0  9 30.0000000  0  9G12G09G10G05G25G17G04G30G02
 112264770.590 8  87479106.151 7  21363269.594                    21363277.547
 125148233.638 7  97518143.08843  23814916.211                    23814928.027
 109751311.956 8  85520472.04246  20884908.602                    20884917.078
 114394035.811 7  89138283.420 7  21768436.570                    21768445.594
 126060787.214 7  98229234.538 6  23988574.125                    23988585.820
 122327818.842 7  95320460.891 7  23278208.820                    23278219.691
 114945416.438 8  89567970.14445  21873362.727                    21873371.648
 125622838.598 7  97887991.80843  23905236.391                    23905245.645
 108500316.024 8  84545814.82246  20646894.898                    20646900.313
 11  8 24  0 10  0.0000000  0  9G12G09G10G05G25G17G04G30G02
 112208276.251 8  87435084.608 7  21352518.883                    21352526.895
 125227007.174 6  97579524.99743  23829906.555                    23829918.867
 109759712.481 8  85527017.92646  20886507.047                    20886515.484
 114308208.728 8  89071405.279 7  21752104.047                    21752112.918
 125962935.095 7  98152986.184 6  23969953.461                    23969965.426
 122381089.566 7  95361970.529 7  23288345.273                    23288356.465
 115023263.763 8  89628630.38645  21888176.664                    21888185.523
 125523945.627 7  97810932.46144  23886417.227                    23886426.891
 108503279.494 8  84548124.04146  20647458.727                    20647464.258
 11  8 24  0 10 30.0000000  0  9G12G09G10G05G25G17G04G30G02
 112152231.274 8  87391413.214 7  21341853.820                    21341861.711
 125305911.171 6  97641008.55343  23844921.125                    23844933.766
 109768743.440 8  85534055.05846  20888226.008                    20888234.102
 114222721.581 7  89004792.015 7  21735836.805                    21735845.070
 125865280.709 7  98076891.893 6  23951370.922                    23951382.695
 122434524.159 7  95403607.845 6  23298513.836                    23298524.074
 115101221.407 7  89689376.58145  21903011.508                    21903020.418
 125425310.972 6  97734074.32244  23867647.719                    23867658.668
 108506514.398 8  84550644.76146  20648074.367                    20648080.102
 11  8 24  0 11  0.0000000  0  9G12G09G10G05G25G17G04G30G02
 112096637.199 8  87348093.175 7  21331274.922                    21331282.406
 125384942.239 6  97702591.10944  23859961.039                    23859973.035
 109778404.710 8  85541583.34546  20890064.477                    20890072.426
 114137576.640 7  88938445.408 7  21719633.445                    21719642.727
 125767826.630 7  98000953.669 6  23932825.805                    23932837.199
 122488122.685 7  95445372.886 6  23308713.586                    23308723.723
 115179287.299 8  89750207.14545  21917866.906                    21917876.109
 125326937.354 6  97657419.63244  23848927.711                    23848938.039
 108510018.954 8  84553375.60046  20648741.375                    20648746.703
 11  8 24  0 11 30.0000000  0  9G12G09G10G05G25G17G04G30G02
 112041496.426 8  87305126.359 7  21320781.836                    21320788.945
 125464097.131 6  97764270.19743  23875023.102                    23875035.195
 109788695.943 8  85549602.51346  20892022.531                    20892030.801
 114052776.744 7  88872367.668 7  21703496.820                    21703505.559
 125670575.383 7  97925173.504 6  23914319.500                    23914330.363
 122541885.860 7  95487266.201 6  23318944.133                    23318954.410
 115257459.569 8  89811120.59245  21932742.383                    21932751.703
 125228827.525 6  97580970.44344  23830257.992                    23830268.633
 108513792.097 7  84556315.71846  20649459.078                    20649464.660
 11  8 24  0 12  0.0000000  0  9G12G09G10G05G25G17G04G30G02
 111986811.641 8  87262514.858 7  21310375.555                    21310383.293
 125543372.522 6  97826043.14543  23890108.563                    23890121.156
 109799617.320 8  85558112.71046  20894100.805                    20894108.996
 113968324.921 7  88806561.156 7  21687426.070                    21687434.797
 125573529.726 7  97849553.536 6  23895851.883                    23895863.785
 122595814.366 7  95529288.331 6  23329207.242                    23329216.957
 115335736.490 8  89872115.58045  21947638.164                    21947647.012
 125130984.429 6  97504729.13044  23811639.813                    23811649.762
 108517832.803 8  84559464.33846  20650227.891                    20650233.605
 11  8 24  0 12 30.0000000  0  9G12G09G10G05G25G17G04G30G02
 111932583.940 8  87220259.534 7  21300056.352                    21300063.859
 125622764.585 6  97887906.99544  23905216.406                    23905229.008
 109811167.949 8  85567113.22246  20896298.633                    20896306.723
 113884223.371 7  88741027.562 7  21671421.820                    21671430.676
 125476692.063 7  97774095.687 6  23877424.461                    23877436.746
 122649908.652 7  95571439.644 6  23339501.164                    23339510.914
 115414115.810 8  89933190.36345  21962552.844                    21962562.449
 125033410.464 6  97428697.54243  23793071.547                    23793081.957
 108522139.364 8  84562820.11546  20651047.875                    20651053.207
 11  8 24  0 13  0.0000000  0  9G12G09G10G05G25G17G04G30G02
 111878816.414 8  87178362.784 7  21289824.672                    21289832.680
 125702270.494 6  97949859.53344  23920346.820                    23920359.137
 109823348.276 8  85576604.40646  20898616.609                    20898624.832
 113800475.325 8  88675769.443 7  21655485.258                    21655494.086
 125380065.535 7  97698802.358 7  23859036.469                    23859048.965
 122704169.362 7  95613720.650 6  23349826.484                    23349836.344
 115492596.311 8  89994343.98645  21977487.539                    21977496.559
 124936109.137 6  97352878.40143  23774555.680                    23774565.750
 108526711.558 8  84566382.87446  20651917.828                    20651923.398
 11  8 24  0 13 30.0000000  0  9G12G09G10G05G25G17G04G30G02
 111825511.157 8  87136826.261 7  21279681.102                    21279688.758
 125781886.776 7  98011898.10144  23935497.461                    23935509.117
 109836157.787 8  85586585.87546  20901054.313                    20901062.613
 113717083.715 8  88610789.067 7  21639616.242                    21639625.238
 125283652.675 7  97623675.541 6  23840689.984                    23840702.066
 122758596.995 7  95656131.711 6  23360182.953                    23360193.719
 115571175.962 8  90055574.86345  21992441.016                    21992449.957
 124839083.171 7  97277273.79843  23756092.148                    23756101.668
 108531547.747 8  84570151.34446  20652837.898                    20652843.570
 11  8 24  0 14  0.0000000  0  9G12G09G10G05G25G17G04G30G02
 111772669.926 8  87095651.306 7  21269625.461                    21269633.121
 125861609.896 7  98074019.90644  23950667.703                    23950680.395
 109849595.898 8  85597057.15746  20903611.352                    20903619.133
 113634050.642 7  88546088.055 7  21623815.578                    21623824.340
 125187455.869 7  97548717.092 7  23822384.289                    23822396.207
 122813192.068 7  95698673.283 6  23370572.164                    23370582.902
 115649852.759 8  90116881.43145  22007412.508                    22007421.559
 124742334.967 6  97201885.70943  23737681.484                    23737691.383
 108536646.347 8  84574124.30046  20653808.219                    20653813.637
 11  8 24  0 14 30.0000000  0  9G12G09G10G05G25G17G04G30G02
 111720295.256 8  87054839.914 7  21259659.109                    21259666.559
 125941436.701 7  98136222.50844  23965858.563                    23965870.984
 109863662.039 8  85608017.81446  20906287.789                    20906296.402
 113551379.508 8  88481669.075 7  21608083.719                    21608092.480
 125091477.933 7  97473929.187 7  23804120.594                    23804131.914
 122867955.161 7  95741345.764 6  23380993.492                    23381003.723
 115728624.845 8  90178262.23245  22022402.609                    22022411.418
 124645867.704 6  97126716.50543  23719324.328                    23719333.250
 108542006.625 8  84578301.15446  20654828.250                    20654833.758
 11  8 24  0 15  0.0000000  0  9G12G09G10G05G25G17G04G30G02
 111668388.860 8  87014393.410 7  21249781.711                    21249788.824
 126021363.747 7  98198503.22844  23981068.039                    23981080.496
 109878356.082 8  85619467.73946  20909083.859                    20909092.391
 113469072.649 8  88417533.952 7  21592421.453                    21592429.883
 124995721.344 7  97399313.764 7  23785898.648                    23785909.945
 122922886.813 7  95784149.575 6  23391446.852                    23391456.754
 115807490.664 7  90239716.07545  22037410.141                    22037419.262
 124549683.945 7  97051768.21643  23701020.594                    23701029.742
 108547627.044 8  84582680.71246  20655897.727                    20655903.168
 11  8 24  0 15 30.0000000  0  9G12G09G10G05G25G17G04G30G02
 111616953.199 7  86974313.719 7  21239993.773                    21240001.207
 126101387.984 7  98260859.68544  23996296.219                    23996308.840
 109893677.456 8  85631406.48746  20911999.695                    20912007.988
 113387132.664 8  88353684.707 7  21576828.148                    21576837.512
 124900188.980 7  97324873.061 7  23767719.656                    23767731.168
 122977987.283 7  95827084.894 6  23401932.875                    23401941.746
 115886448.312 7  90301241.47945  22052435.172                    22052443.918
 124453786.743 7  96977043.20243  23682771.813                    23682781.063
 108553506.668 8  84587262.25246  20657016.508                    20657022.215
 11  8 24  0 16  0.0000000  0  9G12G09G10G05G25G17G04G30G02
 111565990.219 8  86934602.342 7  21230295.477                    21230303.070
 126181506.049 7  98323289.25144  24011542.070                    24011554.832
 109909625.686 8  85643833.70246  20915034.688                    20915042.672
 113305562.480 8  88290123.612 7  21561306.375                    21561315.211
 124804883.469 7  97250609.151 7  23749582.992                    23749595.547
 123033257.121 7  95870152.231 6  23412450.156                    23412459.367
 115965495.778 7  90362836.88245  22067477.359                    22067486.180
 124358178.856 7  96902543.58543  23664578.695                    23664587.617
 108559644.113 8  84592044.69846  20658184.313                    20658190.066
 11  8 24  0 16 30.0000000  0  9G12G09G10G05G25G17G04G30G02
 111515502.105 8  86895261.000 7  21220688.273                    21220695.902
 126261714.531 7  98385789.22744  24026805.680                    24026818.160
 109926200.340 8  85656749.02946  20918188.570                    20918196.543
 113224364.703 7  88226852.698 7  21545854.273                    21545863.395
 124709807.491 7  97176524.082 6  23731490.430                    23731502.398
 123088697.115 7  95913352.108 6  23422999.953                    23423009.762
 116044631.691 7  90424501.19845  22082536.648                    22082545.488
 124262863.229 7  96828271.70144  23646441.406                    23646449.801
 108566038.449 8  84597027.31246  20659401.336                    20659406.617
 11  8 24  0 17  0.0000000  0  9G12G09G10G05G25G17G04G30G02
 111465490.904 8  86856291.266 7  21211171.063                    21211178.715
 126342009.997 7  98448356.99144  24042085.641                    24042098.008
 109943400.830 8  85670152.01446  20921461.703                    20921469.809
 113143541.885 8  88163873.963 7  21530474.516                    21530483.242
 124614963.653 7  97102619.897 6  23713442.133                    23713453.867
 123144307.427 7  95956684.779 6  23433582.047                    23433592.684
 116123854.117 7  90486232.91545  22097612.148                    22097620.992
 124167842.475 7  96754229.61544  23628358.930                    23628368.063
 108572688.073 8  84602208.85446  20660666.703                    20660672.004
 11  8 24  0 17 30.0000000  0  9G12G09G10G05G25G17G04G30G02
 111415958.590 8  86817694.686 7  21201745.805                    21201753.016
 126422389.320 7  98510990.09643  24057381.445                    24057393.512
 109961226.818 8  85684042.41646  20924854.047                    20924861.848
 113063097.066 8  88101189.785 7  21515166.250                    21515174.887
 124520354.739 7  97028898.753 6  23695438.813                    23695449.492
 123200089.041 7  96000150.928 6  23444196.469                    23444207.207
 116203161.287 7  90548030.66745  22112703.742                    22112713.098
 124073119.651 7  96680419.68544  23610334.172                    23610343.898
 108579592.299 8  84607588.78746  20661980.242                    20661985.930
 11  8 24  0 18  0.0000000  0  9G12G09G10G05G25G17G04G30G02
 111366907.090 8  86779472.765 7  21192411.313                    21192418.781
 126502849.281 7  98573686.02643  24072692.477                    24072704.699
 109979677.825 8  85698419.83746  20928364.938                    20928372.879
 112983032.589 8  88038801.959 7  21499930.391                    21499938.879
 124425983.252 7  96955362.580 6  23677480.133                    23677490.926
 123256042.199 7  96043750.745 6  23454844.102                    23454855.098
 116282551.403 7  90609893.06045  22127811.547                    22127820.289
 123978697.309 7  96606843.92144  23592366.352                    23592376.078
 108586749.543 8  84613165.88446  20663342.445                    20663348.016
 11  8 24  0 18 30.0000000  0  9G12G09G10G05G25G17G04G30G02
 111318338.528 8  86741627.155 7  21183168.961                    21183176.629
 126583386.462 7  98636442.15043  24088018.344                    24088030.133
 109998752.869 8  85713283.50946  20931994.727                    20932003.137
 112903350.967 8  87976712.468 7  21484767.758                    21484775.988
 124331851.891 7  96882013.562 6  23659567.492                    23659578.281
 123312167.161 7  96087484.433 6  23465525.211                    23465534.926
 116362022.933 7  90671818.88945  22142934.086                    22142943.605
 123884578.406 7  96533504.59944  23574455.742                    23574465.648
 108594158.579 8  84618939.17446  20664752.406                    20664758.012
 11  8 24  0 19  0.0000000  0  9G12G09G10G05G25G17G04G30G02
 111270254.894 8  86704159.415 7  21174019.094                    21174026.414
 126663997.505 6  98699255.85743  24103358.438                    24103369.523
 110018451.407 8  85728633.01946  20935743.352                    20935751.133
 112824054.800 8  87914923.344 7  21469677.359                    21469686.305
 124237963.438 7  96808853.841 6  23641701.109                    23641712.727
 123368464.741 7  96131352.614 6  23476237.938                    23476247.961
 116441573.884 8  90733806.59645  22158072.352                    22158081.449
 123790765.821 7  96460403.98644  23556603.172                    23556612.918
 108601818.125 8  84624907.66846  20666209.859                    20666215.254
 11  8 24  0 19 30.0000000  0  9G12G09G10G05G25G17G04G30G02
 111222658.439 8  86667071.285 7  21164961.805                    21164969.375
 126744679.399 6  98762124.75343  24118710.703                    24118722.961
 110038772.910 8  85744467.94345  20939610.156                    20939618.141
 112745147.195 8  87853436.977 7  21454662.391                    21454670.730
 124144320.608 7  96735885.506 6  23623881.930                    23623892.953
 123424935.338 7  96175355.608 6  23486984.164                    23486993.668
 116521202.809 7  90795855.07145  22173225.313                    22173234.129
 123697262.391 7  96387544.24944  23538809.875                    23538819.035
 108609727.264 8  84631070.65446  20667714.750                    20667720.441
 11  8 24  0 20  0.0000000  0  9G12G09G10G05G25G17G04G30G02
 111175550.886 8  86630364.113 7  21155997.438                    21156005.234
 126825428.648 6  98825046.10943  24134077.469                    24134088.703
 110059716.777 8  85760787.84345  20943595.938                    20943603.555
 112666630.586 8  87792255.299 7  21439720.781                    21439729.328
 124050926.061 7  96663110.617 6  23606109.672                    23606120.223
 123481579.405 7  96219493.755 6  23497762.633                    23497772.520
 116600908.072 7  90857963.01845  22188392.570                    22188401.883
 123604070.943 6  96314927.63644  23521076.188                    23521085.746
 108617884.779 8  84637427.17246  20669267.125                    20669272.539
 11  8 24  0 20 30.0000000  0  9G12G09G10G05G25G17G04G30G02
 111128934.281 8  86594039.503 7  21147126.578                    21147134.043
 126906242.141 6  98888017.56343  24149455.625                    24149468.309
 110081282.280 7  85777592.13845  20947699.656                    20947707.832
 112588507.716 8  87731380.424 7  21424854.258                    21424862.820
 123957782.427 7  96590531.261 7  23588384.648                    23588395.652
 123538397.263 7  96263767.346 6  23508575.266                    23508585.059
 116680687.744 7  90920128.95445  22203574.133                    22203583.086
 123511194.196 6  96242556.23943  23503403.102                    23503411.805
 108626289.354 8  84643976.20846  20670866.648                    20670871.887
 11  8 24  0 21  0.0000000  0  9G12G09G10G05G25G17G04G30G02
 111082810.121 8  86558098.619 7  21138349.398                    21138356.934
 126987116.350 6  98951036.27243  24164845.195                    24164858.684
 110103468.522 8  85794880.12245  20951921.570                    20951929.449
 112510780.554 8  87670813.890 7  21410063.297                    21410072.406
 123864892.300 7  96518149.456 7  23570707.883                    23570719.164
 123595389.397 7  96308176.738 6  23519420.352                    23519430.836
 116760540.334 7  90982351.72245  22218769.430                    22218778.941
 123418634.973 6  96170432.27244  23485788.703                    23485798.715
 108634939.678 8  84650716.74546  20672512.648                    20672518.277
 11  8 24  0 21 30.0000000  0  9G12G09G10G05G25G17G04G30G02
 111037181.204 8  86522543.631 7  21129666.773                    21129673.863
 127068048.435 6  99014100.08643  24180246.969                    24180259.969
 110126274.899 8  85812651.31745  20956261.250                    20956269.918
 112433452.269 8  87610558.181 7  21395348.430                    21395357.066
 123772258.682 7  96445967.536 7  23553080.148                    23553091.840
 123652556.561 7  96352722.513 6  23530299.109                    23530309.227
 116840464.107 7  91044629.95545  22233978.641                    22233987.664
 123326396.328 6  96098558.13144  23468236.297                    23468245.809
 108643834.955 8  84657648.15346  20674205.344                    20674210.992
 11  8 24  0 22  0.0000000  0  9G12G09G10G05G25G17G04G30G02
 110992048.797 8  86487375.543 7  21121078.063                    21121085.574
 127149034.570 6  99077206.07143  24195658.227                    24195670.957
 110149700.115 8  85830904.73145  20960719.328                    20960727.422
 112356524.923 8  87550614.894 7  21380709.266                    21380718.262
 123679883.885 7  96373987.301 7  23535501.531                    23535513.797
 123709899.101 7  96397404.964 7  23541211.219                    23541221.617
 116920457.190 7  91106962.20145  22249201.164                    22249210.359
 123234480.751 7  96026935.67644  23450745.789                    23450754.340
 108652973.400 8  84664769.04046  20675944.219                    20675949.785
 11  8 24  0 22 30.0000000  0  9G12G09G10G05G25G17G04G30G02
 110947414.878 8  86452595.879 7  21112584.602                    21112592.098
 127230071.674 6  99140351.76244  24211079.305                    24211091.848
 110173743.603 7  85849639.91945  20965294.320                    20965302.527
 112280001.259 7  87490986.139 7  21366147.250                    21366155.871
 123587770.488 7  96302210.755 7  23517972.609                    23517984.656
 123767417.261 7  96442224.284 7  23552156.547                    23552167.359
 117000518.095 7  91169347.27845  22264435.867                    22264445.523
 123142890.885 7  95955567.04244  23433316.805                    23433325.594
 108662353.617 8  84672078.31946  20677729.328                    20677734.832
 11  8 24  0 23  0.0000000  0  9G12G09G10G05G25G17G04G30G02
 110903281.439 8  86418206.200 7  21104186.477                    21104193.570
 127311156.998 7  99203535.02944  24226508.789                    24226521.512
 110198404.811 8  85868856.44945  20969987.227                    20969995.391
 112203883.988 8  87431674.061 7  21351662.633                    21351671.059
 123495921.405 6  96230640.164 6  23500494.039                    23500505.648
 123825111.428 6  96487180.739 7  23563135.555                    23563145.898
 117080645.246 7  91231783.99145  22279683.672                    22279693.445
 123051629.787 7  95884454.60844  23415950.250                    23415959.688
 108671974.867 8  84679575.41846  20679560.266                    20679565.199
 11  8 24  0 23 30.0000000  0  9G12G09G10G05G25G17G04G30G02
 110859650.711 8  86384208.251 7  21095883.586                    21095891.027
 127392287.115 7  99266753.18044  24241948.211                    24241960.695
 110223682.704 7  85888553.51145  20974797.266                    20974805.336
 112128175.932 8  87372680.853 7  21337255.891                    21337264.465
 123404339.478 6  96159277.729 6  23483066.430                    23483078.137
 123882982.218 6  96532274.821 7  23574148.258                    23574158.734
 117160836.969 7  91294271.01845  22294943.938                    22294952.918
 122960700.412 7  95813600.68044  23398646.438                    23398655.801
 108681836.077 8  84687259.49646  20681436.539                    20681442.254
 11  8 24  0 24  0.0000000  0  9G12G09G10G05G25G17G04G30G02
 110816524.336 8  86350603.303 7  21087676.734                    21087684.484
 127473458.637 7  99330003.59144  24257393.781                    24257406.969
 110249576.482 8  85908730.50245  20979724.938                    20979733.063
 112052879.296 8  87314008.229 7  21322927.398                    21322936.047
 123313027.409 7  96088125.585 6  23465690.734                    23465701.691
 123941030.231 6  96577506.992 6  23585194.563                    23585204.617
 117241091.863 7  91356807.28445  22310215.820                    22310224.902
 122870105.688 7  95743007.49644  23381406.188                    23381416.301
 108691936.114 8  84695129.66646  20683358.609                    20683363.852
 11  8 24  0 24 30.0000000  0  9G12G09G10G05G25G17G04G30G02
 110773903.579 8  86317392.350 7  21079566.359                    21079573.887
 127554668.323 7  99393283.74944  24272848.219                    24272861.301
 110276084.752 7  85929386.31245  20984769.047                    20984777.566
 111977996.443 8  87255658.043 7  21308677.680                    21308686.184
 123221987.470 7  96017185.473 7  23448366.750                    23448377.813
 123999255.532 6  96622877.281 6  23596274.555                    23596284.977
 117321408.082 7  91419391.34445  22325499.711                    22325508.758
 122779847.826 6  95672676.80143  23364231.117                    23364240.508
 108702273.042 8  84703184.42646  20685325.586                    20685331.441
 11  8 24  0 25  0.0000000  0  9G12G09G10G05G25G17G04G30G02
 110731790.702 8  86284577.135 7  21071552.586                    21071560.031
 127635912.961 6  99456591.12744  24288308.578                    24288321.477
 110303206.940 7  85950520.50746  20989930.594                    20989938.508
 111903529.836 8  87197632.189 7  21294506.750                    21294515.422
 123131222.421 7  95946459.561 6  23431094.711                    23431105.953
 124057658.828 6  96668386.284 7  23607388.000                    23607398.629
 117401783.855 7  91482021.79345  22340794.352                    22340803.434
 122689929.853 6  95602610.94443  23347119.805                    23347129.324
 108712845.963 8  84711423.07846  20687337.563                    20687343.043
 11  8 24  0 25 30.0000000  0  9G12G09G10G05G25G17G04G30G02
 110690187.478 8  86252159.066 7  21063635.742                    21063642.906
 127717189.397 6  99519923.31144  24303774.813                    24303788.016
 110330941.912 7  85972132.20445  20995207.922                    20995216.445
 111829482.222 8  87139932.826 7  21280416.352                    21280424.727
 123040734.957 7  95875949.919 7  23413875.109                    23413886.762
 124116240.370 6  96714034.167 7  23618535.680                    23618546.262
 117482217.804 7  91544697.58245  22356100.688                    22356109.766
 122600354.487 6  95532812.06543  23330074.523                    23330083.203
 108723653.550 8  84719844.57646  20689394.055                    20689399.629
 11  8 24  0 26  0.0000000  0  9G12G09G10G05G25G17G04G30G02
 110649096.006 8  86220139.756 7  21055816.320                    21055823.645
 127798494.600 6  99583277.87444  24319246.813                    24319260.359
 110359288.679 7  85994220.62145  21000602.633                    21000610.523
 111755856.022 8  87082561.845 7  21266405.344                    21266413.691
 122950528.047 7  95805658.868 7  23396709.117                    23396720.711
 124175000.857 7  96759821.508 7  23629717.773                    23629728.066
 117562708.536 7  91607417.62545  22371417.336                    22371426.566
 122511124.706 6  95463282.51243  23313093.625                    23313103.766
 108734695.272 8  84728448.52146  20691495.180                    20691500.867
 11  8 24  0 26 30.0000000  0  9G12G09G10G05G25G17G04G30G02
 110608517.625 8  86188520.268 7  21048094.164                    21048101.836
 127879825.140 6  99646652.19843  24334723.313                    24334736.813
 110388246.529 8  86016785.21445  21006112.672                    21006120.891
 111682653.531 8  87025521.016 7  21252475.188                    21252483.684
 122860604.266 7  95735588.413 7  23379596.953                    23379608.469
 124233940.515 6  96805748.472 7  23640933.531                    23640943.906
 117643254.403 7  91670180.63145  22386744.750                    22386753.805
 122422243.445 7  95394024.49744  23296181.391                    23296189.488
 108745969.558 8  84737233.68746  20693641.172                    20693646.086
 11  8 24  0 27  0.0000000  0  9G12G09G10G05G25G17G04G30G02
 110568453.926 8  86157301.824 7  21040470.289                    21040477.641
 127961177.998 6  99710043.88443  24350204.945                    24350217.867
 110417813.778 8  86039824.63946  21011739.094                    21011747.504
 111609876.998 8  86968812.111 7  21238626.438                    21238634.895
 122770965.983 7  95665740.389 7  23362538.938                    23362551.488
 124293059.451 6  96851815.111 7  23652183.156                    23652193.504
 117723853.529 7  91732985.13545  22402082.539                    22402091.844
 122333712.858 6  95325039.76144  23279334.313                    23279342.711
 108757474.641 8  84746198.69546  20695830.078                    20695835.449
 11  8 24  0 27 30.0000000  0  9G12G09G10G05G25G17G04G30G02
 110528907.357 8  86126486.344 7  21032945.219                    21032952.617
 128042550.037 6  99773450.52543  24365689.938                    24365702.625
 110447989.456 8  86063338.18445  21017481.117                    21017489.547
 111537528.934 8  86912437.082 8  21224859.477                    21224867.445
 122681616.030 7  95596117.049 7  23345536.375                    23345548.176
 124352358.514 6  96898022.104 6  23663467.844                    23663478.027
 117804504.475 7  91795830.01845  22417429.477                    22417438.863
 122245536.052 6  95256330.63044  23262554.398                    23262563.379
 108769209.857 8  84755343.01746  20698063.344                    20698068.668
 11  8 24  0 28  0.0000000  0  9G12G09G10G05G25G17G04G30G02
 110489879.158 8  86096074.790 7  21025518.180                    21025525.496
 128123937.961 6  99836869.56743  24381177.469                    24381190.047
 110478772.753 8  86087325.20245  21023339.078                    21023347.891
 111465612.248 8  86856398.178 7  21211173.664                    21211182.242
 122592557.283 7  95526720.593 6  23328589.367                    23328600.668
 124411837.811 7  96944369.533 7  23674785.852                    23674796.402
 117885206.156 7  91858714.44145  22432786.945                    22432796.348
 122157715.891 6  95187899.41344  23245842.141                    23245851.809
 108781174.026 8  84764665.75046  20700340.039                    20700345.305
 11  8 24  0 28 30.0000000  0  9G12G09G10G05G25G17G04G30G02
 110451371.004 8  86066068.466 7  21018190.641                    21018197.813
 128205338.493 6  99900298.39743  24396667.422                    24396680.324
 110510162.210 7  86111784.54446  21029312.563                    21029320.734
 111394128.978 8  86800697.010 8  21197570.938                    21197579.164
 122503792.229 7  95457552.983 6  23311698.445                    23311708.840
 124471497.766 6  96990857.703 6  23686139.281                    23686149.922
 117965956.616 7  91921636.88345  22448152.984                    22448162.652
 122070254.921 6  95119748.05544  23229198.625                    23229209.258
 108793365.684 8  84774165.74646  20702660.023                    20702665.492
 11  8 24  0 29  0.0000000  0  9G12G09G10G05G25G17G04G30G02
 110413384.782 8  86036468.835 7  21010961.656                    21010969.238
 128286748.753 6  99963734.83343  24412159.203                    24412172.219
 110542156.985 7  86136715.55545  21035400.617                    21035409.234
 111323082.228 8  86745335.972 8  21184051.117                    21184059.535
 122415323.750 7  95388616.484 6  23294863.305                    23294874.301
 124531338.585 6  97037486.829 6  23697526.523                    23697537.148
 118046754.619 7  91984596.36345  22463528.438                    22463537.621
 121983156.152 6  95051878.91144  23212625.016                    23212635.156
 108805783.903 8  84783842.27246  20705023.164                    20705028.828
 11  8 24  0 29 30.0000000  0  9G12G09G10G05G25G17G04G30G02
 110375921.748 8  86007276.890 7  21003833.125                    21003839.703
 128368165.286 6 100027176.16543  24427652.359                    24427665.305
 110574755.204 7  86162116.79045  21041603.961                    21041612.500
 111252473.020 8  86690315.883 8  21170614.531                    21170622.758
 122327154.136 7  95319912.875 6  23278085.297                    23278096.477
 124591360.854 6  97084257.349 6  23708948.695                    23708959.352
 118127598.288 7  92047591.40145  22478912.094                    22478921.887
 121896421.908 6  94984293.80944  23196119.484                    23196129.793
 108818427.010 8  84793694.03946  20707428.984                    20707434.324
 11  8 24  0 30  0.0000000  0  9G12G09G10G05G25G17G04G30G02
 110338983.732 8  85978494.050 7  20996804.000                    20996810.875
 128449585.203 6 100090620.12343  24443146.164                    24443159.168
 110607956.172 7  86187987.69745  21047921.969                    21047929.871
 111182304.498 8  86635639.187 8  21157261.836                    21157269.957
 122239286.341 7  95251444.466 6  23261364.789                    23261375.086
 124651564.862 7  97131169.497 6  23720404.438                    23720415.402
 118208486.317 7  92110621.01145  22494304.859                    22494314.410
 121810055.202 6  94916995.06444  23179684.773                    23179694.246
 108831294.124 8  84803720.35346  20709877.742                    20709882.863
 11  8 24  0 30 30.0000000  0  9G12G09G10G05G25G17G04G30G02
 110302572.218 8  85950121.468 7  20989874.859                    20989881.746
 128531005.340 6 100154064.25043  24458639.672                    24458652.980
 110641758.535 7  86214327.22045  21054353.867                    21054362.000
 111112578.443 8  86581307.266 8  21143993.484                    21144001.676
 122151722.763 7  95183213.131 6  23244701.867                    23244712.395
 124711950.854 6  97178223.437 6  23731895.570                    23731906.664
 118289417.181 7  92173683.99645  22509705.180                    22509714.648
 121724058.529 7  94849984.64044  23163320.672                    23163329.277
 108844383.727 8  84813920.04146  20712368.234                    20712373.910
 11  8 24  0 31  0.0000000  0  9G12G09G10G05G25G17G04G30G02
 110266688.678 8  85922160.292 7  20983046.391                    20983053.648
 128612422.594 6 100217506.15243  24474133.172                    24474146.383
 110676161.052 7  86241134.38845  21060900.836                    21060909.398
 111043297.563 8  86527322.243 8  21130809.336                    21130817.480
 122064466.081 7  95115220.945 6  23228097.422                    23228107.840
 124772519.171 7  97225419.470 6  23743421.805                    23743432.105
 118370389.226 7  92236779.06845  22525114.281                    22525123.488
 121638434.623 7  94783264.69844  23147026.820                    23147035.977
 108857694.739 8  84824292.26146  20714901.516                    20714907.012
 11  8 24  0 31 30.0000000  0  9G12G09G10G05G25G17G04G30G02
 110231335.122 8  85894612.080 7  20976318.977                    20976325.891
 128693833.587 6 100280943.16443  24489625.305                    24489638.754
 110711162.337 8  86268408.12446  21067561.563                    21067570.195
 110974464.123 8  86473685.864 8  21117710.625                    21117718.797
 121977519.189 7  95047470.187 6  23211551.883                    23211562.336
 124833270.512 7  97272758.121 6  23754982.766                    23754992.570
 118451401.163 7  92299905.21745  22540530.227                    22540539.215
 121553186.406 7  94716837.50244  23130804.219                    23130814.176
 108871226.195 8  84834836.24646  20717476.586                    20717481.664
 11  8 24  0 32  0.0000000  0  9G12G09G10G05G25G17G04G30G02
 110196513.034 8  85867478.003 7  20969692.523                    20969699.500
 128775235.428 6 100344373.05643  24505115.922                    24505129.301
 110746760.736 8  86296147.14445  21074335.477                    21074344.207
 110906080.323 8  86420399.858 8  21104697.797                    21104705.977
 121890884.526 7  94979962.742 7  23195065.742                    23195076.957
 124894205.145 6  97320239.603 6  23766578.188                    23766588.242
 118532451.352 7  92363061.17345  22555953.625                    22555962.984
 121468316.407 7  94650705.07743  23114653.703                    23114663.379
 108884976.470 8  84845550.74046  20720092.883                    20720098.551
 11  8 24  0 32 30.0000000  0  9G12G09G10G05G25G17G04G30G02
 110162223.822 8  85840759.154 7  20963167.289                    20963174.484
 128856624.998 6 100407793.35643  24520603.813                    24520617.500
 110782955.311 8  86324350.73046  21081223.320                    21081231.602
 110838148.745 8  86367466.235 8  21091771.023                    21091779.113
 121804564.971 7  94912700.851 7  23178640.023                    23178651.219
 124955322.962 6  97367863.814 6  23778208.328                    23778218.977
 118613538.842 7  92426246.19045  22571383.977                    22571393.340
 121383827.649 7  94584869.71743  23098576.063                    23098585.094
 108898944.663 8  84856435.04146  20722750.766                    20722756.395
 11  8 24  0 33  0.0000000  0  9G12G09G10G05G25G17G04G30G02
 110128469.026 8  85814456.723 7  20956743.984                    20956751.180
 128937999.319 6 100471201.83443  24536088.891                    24536102.258
 110819744.769 8  86353017.85745  21088224.133                    21088232.270
 110770671.712 8  86314886.794 8  21078930.594                    21078938.305
 121718563.204 7  94845686.578 7  23162274.383                    23162285.699
 125016624.622 6  97415631.330 6  23789873.055                    23789883.781
 118694662.092 7  92489459.07645  22586821.281                    22586830.438
 121299722.798 7  94519333.49544  23082571.719                    23082580.391
 108913129.733 8  84867488.33246  20725450.219                    20725455.430
 11  8 24  0 33 30.0000000  0  9G12G09G10G05G25G17G04G30G02
 110095250.026 7  85788571.797 7  20950422.711                    20950429.621
 129019355.134 6 100534595.87643  24551570.383                    24551584.145
 110857127.422 8  86382147.20646  21095337.641                    21095345.793
 110703651.583 8  86262663.378 8  21066176.914                    21066185.023
 121632881.597 7  94778921.790 7  23145969.656                    23145980.355
 125078110.365 6  97463542.229 6  23801574.422                    23801584.852
 118775819.424 7  92552698.51345  22602264.539                    22602274.230
 121216004.309 7  94454098.35343  23066640.813                    23066648.645
 108927530.129 8  84878709.41346  20728190.625                    20728195.887
 11  8 24  0 34  0.0000000  0  9G12G09G10G05G25G17G04G30G02
 110062568.953 8  85763106.025 7  20944203.477                    20944210.715
 129100689.563 6 100597973.29443  24567047.969                    24567061.152
 110895101.838 8  86411737.66546  21102563.883                    21102571.848
 110637089.904 8  86210797.200 8  21053510.367                    21053518.762
 121547522.813 7  94712408.542 7  23129725.711                    23129737.293
 125139780.590 6  97511596.912 6  23813309.578                    23813320.223
 118857009.435 7  92615963.42245  22617715.156                    22617724.238
 121132674.854 7  94389166.36344  23050783.773                    23050791.875
 108942144.653 8  84890097.35146  20730971.555                    20730976.852
 11  8 24  0 34 30.0000000  0  9G12G09G10G05G25G17G04G30G02
 110030426.515 8  85738059.982 7  20938087.070                    20938094.375
 129181999.256 6 100661331.39843  24582520.609                    24582534.047
 110933666.738 8  86441788.24745  21109902.492                    21109910.723
 110570989.137 8  86159290.170 8  21040931.836                    21040939.984
 121462489.617 7  94646148.997 7  23113544.398                    23113555.914
 125201635.579 6  97559795.549 6  23825080.414                    23825090.867
 118938230.811 7  92679252.76445  22633170.742                    22633180.070
 121049737.276 7  94324539.75543  23035001.672                    23035010.605
 108956972.261 8  84901651.32246  20733793.148                    20733798.844
 11  8 24  0 35  0.0000000  0  9G12G09G10G05G25G17G04G30G02
 109998823.926 8  85713434.595 7  20932073.227                    20932080.871
 129263281.277 6 100724667.92543  24597987.914                    24598001.664
 110972820.571 8  86472297.73746  21117353.266                    21117361.375
 110505351.471 8  86108143.993 8  21028441.305                    21028449.750
 121377784.618 7  94580145.172 7  23097425.867                    23097436.988
 125263675.478 6  97608138.264 6  23836886.281                    23836896.340
 119019482.310 7  92742565.56944  22648632.500                    22648642.090
 120967194.152 7  94260220.48744  23019294.258                    23019303.086
 108972011.795 8  84913370.44146  20736655.055                    20736660.648
 11  8 24  0 35 30.0000000  0  9G12G09G10G05G25G17G04G30G02
 109967763.633 8  85689231.775 7  20926162.539                    20926170.133
 129344532.640 6 100787980.58243  24613450.031                    24613463.242
 111012561.985 8  86503265.07946  21124915.859                    21124924.180
 110440179.546 8  86057360.747 8  21016039.492                    21016047.531
 121293410.557 7  94514399.234 7  23081369.852                    23081381.098
 125325900.745 6  97656625.426 6  23848726.883                    23848737.715
 119100762.650 7  92805900.84644  22664099.633                    22664109.090
 120885048.345 7  94196210.84344  23003662.102                    23003671.102
 108987262.172 8  84925253.85246  20739557.227                    20739562.777
 11  8 24  0 36  0.0000000  0  9G12G09G10G05G25G17G04G30G02
 109937246.113 8  85665451.894 7  20920355.328                    20920362.867
 129425750.412 6 100851267.05643  24628905.297                    24628918.652
 111052888.847 8  86534688.61346  21132589.922                    21132597.754
 110375475.217 8  86006941.864 8  21003726.703                    21003734.668
 121209369.874 7  94448913.068 7  23065377.336                    23065388.398
 125388311.419 6  97705257.053 6  23860603.703                    23860614.113
 119182070.013 7  92869257.17644  22679571.836                    22679581.875
 120803302.211 7  94132512.60744  22988106.141                    22988114.727
 109002721.964 8  84937300.43646  20742499.211                    20742504.750
 11  8 24  0 36 30.0000000  0  9G12G09G10G05G25G17G04G30G02
 109907273.382 8  85642096.530 7  20914651.922                    20914659.207
 129506931.488 6 100914524.95443  24644353.781                    24644366.875
 111093799.895 8  86566567.35846  21140375.047                    21140383.250
 110311240.569 8  85956888.952 8  20991503.164                    20991511.000
 121125665.171 7  94383688.687 7  23049448.555                    23049459.332
 125450908.168 6  97754033.685 6  23872515.758                    23872525.840
 119263403.243 7  92932633.66144  22695049.094                    22695058.410
 120721958.349 7  94069127.83744  22972626.766                    22972636.098
 109018389.923 8  84949509.24046  20745480.797                    20745486.441
 11  8 24  0 37  0.0000000  0  9G12G09G10G05G25G17G04G30G02
 109877846.185 8  85619166.259 7  20909052.211                    20909058.973
 129588072.449 6 100977751.57643  24659793.969                    24659808.078
 111135293.775 8  86598900.25946  21148271.031                    21148279.371
 110247477.650 8  85907203.627 8  20979369.148                    20979377.648
 121042299.091 7  94318728.155 6  23033584.992                    23033595.406
 125513690.974 6  97802955.266 6  23884462.891                    23884473.375
 119344761.071 7  92996029.30944  22710530.945                    22710540.625
 120641019.559 7  94006058.71144  22957224.742                    22957234.188
 109034264.867 8  84961879.34046  20748501.641                    20748507.039
 11  8 24  0 37 30.0000000  0  9G12G09G10G05G25G17G04G30G02
 109848966.358 8  85596662.512 7  20903556.578                    20903563.414
 129669170.638 6 101040944.87543  24675227.125                    24675240.594
 111177368.967 8  86631686.13446  21156277.789                    21156285.855
 110184188.764 8  85857887.674 8  20967325.883                    20967333.672
 120959274.365 7  94254033.622 7  23017785.711                    23017796.074
 125576660.364 7  97852022.222 7  23896445.852                    23896456.582
 119426142.378 7  93059443.27244  22726017.109                    22726026.574
 120560488.536 6  93943307.32144  22941899.742                    22941909.223
 109050345.944 8  84974410.06046  20751561.742                    20751566.926
 11  8 24  0 38  0.0000000  0  9G12G09G10G05G25G17G04G30G02
 109820634.895 7  85574586.066 7  20898165.148                    20898171.906
 129750223.151 6 101104102.59843  24690650.867                    24690664.820
 111220023.550 8  86664923.48846  21164394.523                    21164402.762
 110121375.823 8  85808942.592 8  20955372.711                    20955381.090
 120876593.422 7  94189606.967 7  23002052.156                    23002062.527
 125639816.321 6  97901234.559 7  23908464.297                    23908474.711
 119507545.539 7  93122874.26945  22741508.234                    22741517.789
 120480367.683 7  93880875.54644  22926653.383                    22926662.277
 109066631.668 8  84987100.25746  20754660.422                    20754666.281
 11  8 24  0 38 30.0000000  0  9G12G09G10G05G25G17G04G30G02
 109792853.689 8  85552938.391 7  20892878.289                    20892885.223
 129831226.899 6 101167222.31643  24706064.734                    24706079.098
 111263256.274 8  86698611.33146  21172621.406                    21172629.383
 110059041.242 8  85760370.255 8  20943511.008                    20943518.691
 120794259.243 7  94125450.514 7  22986383.828                    22986395.129
 125703159.185 6  97950592.565 7  23920517.438                    23920528.258
 119588969.284 7  93186321.30045  22757002.883                    22757012.488
 120400660.026 7  93818765.73044  22911485.281                    22911494.043
 109083121.158 8  84999949.22146  20757798.719                    20757804.359
 11  8 24  0 39  0.0000000  0  9G12G09G10G05G25G17G04G30G02
 109765623.573 8  85531720.118 7  20887696.750                    20887703.672
 129912178.886 6 101230301.69343  24721470.031                    24721484.102
 111307064.877 8  86732747.91046  21180957.836                    21180966.141
 109997186.939 8  85712172.161 8  20931740.547                    20931748.152
 120712274.069 7  94061565.972 7  22970783.008                    22970793.395
 125766689.148 6  98000096.356 7  23932606.633                    23932617.781
 119670412.516 7  93249783.50144  22772500.422                    22772510.270
 120321367.792 6  93756979.64144  22896396.680                    22896405.039
 109099813.094 8  85012955.95446  20760974.703                    20760980.727
 11  8 24  0 39 30.0000000  0  9G12G09G10G05G25G17G04G30G02
 109738945.577 8  85510932.092 7  20882620.086                    20882627.688
 129993076.036 6 101293338.31243  24736864.344                    24736877.754
 111351447.920 8  86767332.10846  21189403.984                    21189411.668
 109935814.752 8  85664349.732 8  20920061.852                    20920069.789
 120630640.417 7  93997955.357 7  22955248.430                    22955259.438
 125830406.525 6  98049746.182 7  23944731.125                    23944742.176
 119751873.494 7  93313259.55945  22788002.320                    22788012.223
 120242493.457 6  93695519.19444  22881387.531                    22881395.734
 109116706.021 8  85026119.29546  20764189.688                    20764195.289
 11  8 24  0 40  0.0000000  0  9G12G09G10G05G25G17G04G30G02
 109712820.949 8  85490575.252 7  20877648.531                    20877656.141
 130073915.476 6 101356329.99643  24752247.242                    24752261.090
 111396403.599 8  86802362.50546  21197958.656                    21197966.703
 109874926.725 8  85616904.577 8  20908475.156                    20908482.871
 120549360.859 7  93934620.663 7  22939781.617                    22939792.875
 125894311.347 6  98099542.069 7  23956892.328                    23956903.301
 119833351.071 7  93376748.53845  22803507.438                    22803516.988
 120164039.639 7  93634386.42144  22866458.688                    22866467.000
 109133798.584 8  85039438.20446  20767442.258                    20767447.785
 11  8 24  0 40 30.0000000  0  9G12G09G10G05G25G17G04G30G02
 109687250.914 8  85470650.567 7  20872782.938                    20872790.133
 130154694.099 6 101419274.29043  24767618.992                    24767633.008
 111441930.373 8  86837837.90846  21206622.063                    21206630.109
 109814525.246 8  85569838.550 8  20896980.961                    20896989.137
 120468438.100 7  93871563.992 7  22924382.055                    22924393.781
 125958403.860 6  98149484.200 6  23969088.594                    23969099.488
 119914844.272 7  93440249.70945  22819014.648                    22819024.176
 120086008.870 7  93573583.29744  22851609.180                    22851617.453
 109151089.804 8  85052911.90446  20770732.383                    20770738.188
 11  8 24  0 41  0.0000000  0  9G12G09G10G05G25G17G04G30G02
 109662237.258 8  85451159.420 7  20868023.094                    20868030.105
 130235409.263 6 101482169.12543  24782979.180                    24782992.762
 111488026.399 8  86873756.90146  21215393.641                    21215401.824
 109754612.001 8  85523152.955 8  20885579.891                    20885587.770
 120387874.856 7  93808787.458 7  22909051.375                    22909062.777
 126022684.546 6  98199572.964 7  23981321.070                    23981332.641
 119996351.639 7  93503761.92445  22834525.484                    22834534.570
 120008403.980 7  93513112.03744  22836841.781                    22836850.129
 109168578.914 8  85066539.81246  20774060.656                    20774065.984
 11  8 24  0 41 30.0000000  0  9G12G09G10G05G25G17G04G30G02
 109637780.181 8  85432101.969 7  20863368.773                    20863376.035
 130316057.576 6 101545011.85243  24798326.383                    24798339.156
 111534689.680 8  86910117.89746  21224273.570                    21224281.496
 109695188.275 8  85476848.813 8  20874271.945                    20874279.660
 120307673.447 7  93746292.860 7  22893789.500                    22893800.727
 126087153.440 6  98249808.392 7  23993589.094                    23993600.875
 120077871.835 7  93567284.12645  22850037.992                    22850046.766
 119931227.275 7  93452974.39544  22822155.547                    22822164.148
 109186264.482 8  85080320.79046  20777426.195                    20777431.246
 11  8 24  0 42  0.0000000  0  9G12G09G10G05G25G17G04G30G02
 109613881.668 8  85413479.772 7  20858821.250                    20858828.695
 130396636.574 6 101607800.54543  24813659.539                    24813673.641
 111581918.856 8  86946919.85346  21233261.367                    21233268.992
 109636257.188 8  85430928.538 8  20863057.516                    20863065.598
 120227836.772 7  93684082.488 7  22878597.406                    22878607.945
 126151810.693 6  98300190.596 7  24005893.484                    24005905.309
 120159403.974 7  93630815.62245  22865553.039                    22865562.527
 119854481.575 7  93393172.59344  22807551.016                    22807560.391
 109204145.545 8  85094254.10846  20780828.664                    20780834.313
 11  8 24  0 42 30.0000000  0  9G12G09G10G05G25G17G04G30G02
 109590542.390 8  85395293.339 7  20854379.773                    20854387.395
 130477143.020 6 101670532.72443  24828979.109                    24828994.078
 111629711.892 8  86984161.17846  21242355.602                    21242363.770
 109577820.272 8  85385393.326 8  20851937.414                    20851945.199
 120148367.194 7  93622158.184 7  22863475.172                    22863485.715
 126216656.502 6  98350719.739 7  24018232.469                    24018244.891
 120240946.596 7  93694355.28245  22881069.984                    22881079.320
 119778169.222 7  93333708.46444  22793029.469                    22793038.566
 109222220.586 8  85108338.57746  20784268.320                    20784273.836
 11  8 24  0 43  0.0000000  0  9G12G09G10G05G25G17G04G30G02
 109567763.452 8  85377543.540 7  20850045.102                    20850052.254
 130557574.162 6 101733206.24843  24844284.031                    24844299.582
 111678066.819 8  87021840.33646  21251557.031                    21251565.363
 109519879.324 8  85340244.591 8  20840911.625                    20840919.137
 120069267.231 7  93560521.909 7  22848422.672                    22848433.305
 126281691.088 6  98401395.977 7  24030609.109                    24030619.980
 120322498.377 7  93757902.10145  22896589.492                    22896598.738
 119702292.701 7  93274583.95844  22778590.492                    22778599.914
 109240488.631 8  85122573.43846  20787744.297                    20787749.988
 11  8 24  0 43 30.0000000  0  9G12G09G10G05G25G17G04G30G02
 109545545.817 8  85360231.109 7  20845817.391                    20845824.770
 130637927.017 5 101795818.74542  24859574.961                    24859590.219
 111726981.968 7  87059956.02745  21260865.414                    21260873.621
 109462436.446 8  85295483.954 8  20829980.484                    20829988.391
 119990539.381 7  93499175.599 7  22833441.094                    22833451.789
 126346914.669 6  98452219.524 6  24043020.039                    24043031.789
 120404058.145 7  93821455.15345  22912109.352                    22912118.703
 119626854.480 7  93215800.97144  22764235.211                    22764244.559
 109258948.438 8  85136957.72146  20791257.438                    20791262.867
 11  8 24  0 44  0.0000000  0  8G12G10G05G25G17G04G30G02
 109523891.251 8  85343357.441 7  20841696.461                    20841703.512
 111776455.571 8  87098506.88245  21270280.406                    21270288.156
 109405493.805 8  85251113.121 8  20819144.727                    20819152.516
 119912186.661 7  93438121.608 7  22818530.555                    22818541.066
 126412328.071 6  98503190.950 6  24055468.234                    24055478.785
 120485625.314 7  93885013.95744  22927630.945                    22927640.414
 119551857.490 7  93157361.79544  22749963.813                    22749972.500
 109277599.245 8  85151490.82946  20794806.258                    20794811.754
 11  8 24  0 44 30.0000000  0  8G12G10G05G25G17G04G30G02
 109502800.380 8  85326923.009 7  20837683.055                    20837690.094
 111826485.575 7  87137491.29645  21279800.313                    21279808.586
 109349052.938 8  85207133.275 8  20808403.836                    20808411.879
 119834211.406 7  93377361.744 7  22803692.625                    22803703.039
 126477930.895 6  98554309.997 6  24067951.828                    24067962.922
 120567198.277 7  93948577.27544  22943153.859                    22943163.391
 119477304.099 7  93099268.29444  22735776.383                    22735784.891
 109296439.995 8  85166171.95846  20798391.633                    20798397.020
 11  8 24  0 45  0.0000000  0  8G12G10G05G25G17G04G30G02
 109482273.598 8  85310928.130 7  20833776.805                    20833783.719
 111877069.699 7  87176907.48845  21289426.094                    21289434.238
 109293115.439 8  85163545.663 8  20797759.727                    20797767.828
 119756615.615 7  93316897.553 7  22788926.781                    22788937.184
 126543722.750 6  98605576.348 6  24080471.961                    24080482.625
 120648775.518 7  94012143.89644  22958677.461                    22958686.926
 119403196.132 7  93041521.86944  22721674.422                    22721681.844
 109315468.663 8  85180999.51346  20802012.383                    20802018.352
 11  8 24  0 45 30.0000000  0  8G12G10G05G25G17G04G30G02
 109462312.437 8  85295373.994 7  20829978.469                    20829985.785
 111928206.457 7  87216754.31045  21299157.172                    21299165.211
 109237683.143 8  85120351.716 8  20787211.109                    20787218.996
 119679402.023 7  93256731.192 7  22774233.945                    22774244.512
 126609704.103 6  98656990.358 6  24093027.617                    24093039.223
 120730355.915 7  94075712.99144  22974201.586                    22974210.926
 119329536.390 7  92984124.71344  22707657.438                    22707664.902
 109334684.304 8  85195972.76046  20805668.984                    20805674.742
 11  8 24  0 46  0.0000000  0  8G12G10G05G25G17G04G30G02
 109442917.576 8  85280261.133 7  20826287.750                    20826294.527
 111979893.572 7  87257029.97545  21308992.859                    21309001.063
 109182757.694 8  85077552.716 8  20776758.922                    20776766.547
 119602572.951 7  93196864.457 7  22759612.813                    22759623.762
 126675875.103 7  98708552.169 6  24105620.508                    24105631.227
 120811938.384 7  94139283.70444  22989726.016                    22989735.629
 119256327.103 7  92927078.58144  22693725.758                    22693734.035
 109354085.723 8  85211090.76346  20809360.930                    20809366.660
 11  8 24  0 46 30.0000000  0  8G12G10G05G25G17G04G30G02
 109424090.002 8  85265590.306 7  20822705.039                    20822712.109
 112032129.218 7  87297733.07945  21318932.781                    21318941.074
 109128341.252 8  85035150.337 8  20766403.938                    20766411.297
 119526131.279 7  93137299.596 7  22745066.813                    22745077.484
 126742236.033 7  98760261.974 6  24118248.094                    24118258.723
 120893522.017 7  94202855.31244  23005250.656                    23005260.676
 119183571.108 7  92870385.65644  22679880.523                    22679889.383
 109373672.481 8  85226353.19346  20813088.438                    20813094.145
 11  8 24  0 47  0.0000000  0  8G12G10G05G25G17G04G30G02
 109405830.517 8  85251362.152 7  20819230.539                    20819237.531
 112084911.249 7  87338861.93545  21328977.133                    21328985.109
 109074435.285 8  84993145.736 8  20756146.008                    20756153.750
 119450079.332 7  93078038.401 7  22730594.453                    22730605.141
 126808786.675 7  98812119.586 6  24130911.734                    24130923.453
 120975105.331 7  94266426.68244  23020775.844                    23020785.473
 119111270.577 7  92814047.64244  22666121.867                    22666131.070
 109393442.736 8  85241758.60546  20816850.336                    20816856.219
 11  8 24  0 47 30.0000000  0  8G12G10G05G25G17G04G30G02
 109388140.216 8  85237577.520 7  20815863.766                    20815871.074
 112138237.631 7  87380414.97845  21339124.438                    21339132.543
 109021041.788 8  84951540.467 8  20745985.586                    20745993.133
 119374419.532 7  93019082.757 7  22716197.094                    22716207.484
 126875527.490 6  98864125.345 6  24143612.484                    24143623.574
 121056687.519 7  94329997.14744  23036300.945                    23036309.699
 119039427.982 7  92758066.44844  22652450.836                    22652459.223
 109413395.774 8  85257306.44546  20820647.492                    20820653.043
 11  8 24  0 48  0.0000000  0  8G12G10G05G25G17G04G30G02
 109371020.470 8  85224237.468 7  20812606.164                    20812613.199
 112192106.484 7  87422390.70345  21349375.539                    21349383.738
 108968162.474 8  84910335.857 8  20735922.922                    20735930.348
 119299154.561 7  92960434.800 7  22701874.063                    22701885.086
 126942458.623 6  98916279.439 6  24156348.805                    24156359.711
 121138267.380 7  94393565.81744  23051825.398                    23051834.492
 118968045.798 7  92702444.01144  22638867.055                    22638875.656
 109433530.496 8  85272995.85746  20824478.945                    20824484.309
 11  8 24  0 48 30.0000000  0  8G12G10G05G25G17G04G30G02
 109354470.927 8  85211341.731 7  20809456.813                    20809464.004
 112246515.210 7  87464787.11145  21359728.992                    21359737.363
 108915798.911 8  84869533.140 8  20725958.250                    20725965.969
 119224286.521 7  92902096.129 7  22687627.313                    22687638.227
 127009579.823 6  98968581.614 6  24169120.969                    24169132.020
 121219843.720 7  94457131.75244  23067348.063                    23067357.957
 118897126.109 7  92647181.95844  22625371.828                    22625380.207
 109453845.437 8  85288825.69046  20828344.328                    20828350.125
 11  8 24  0 49  0.0000000  0  8G12G10G05G25G17G04G30G02
 109338493.071 8  85198891.453 7  20806416.438                    20806423.516
 112301462.162 7  87507602.91545  21370185.297                    21370193.484
 108863952.798 8  84829133.622 8  20716092.281                    20716100.199
 119149818.032 7  92844068.790 7  22673456.695                    22673467.414
 127076891.394 6  99021032.169 6  24181930.711                    24181941.242
 121301415.589 7  94520694.19544  23082871.055                    23082880.793
 118826671.434 7  92592282.27044  22611964.375                    22611973.262
 109474339.634 8  85304795.20346  20832244.461                    20832250.020
 11  8 24  0 49 30.0000000  0  8G12G10G05G25G17G04G30G02
 109323088.013 8  85186887.522 7  20803484.922                    20803492.160
 112356945.417 7  87550836.62445  21380743.219                    21380751.832
 108812626.125 8  84789138.861 8  20706325.258                    20706332.848
 119075751.802 7  92786354.888 7  22659362.367                    22659372.984
 127144393.354 6  99073631.054 6  24194776.273                    24194786.426
 121382982.067 7  94584252.46445  23098393.195                    23098402.723
 118756684.301 7  92537746.89344  22598646.984                    22598654.992
 109495012.247 8  85320903.73946  20836178.656                    20836184.066
 11  8 24  0 50  0.0000000  0  8G12G10G05G25G17G04G30G02
 109308255.886 8  85175330.027 8  20800662.352                    20800669.828
 112412962.281 7  87594486.13445  21391403.070                    21391410.988
 108761820.050 8  84749549.761 8  20696657.000                    20696664.805
 119002089.836 7  92728956.000 7  22645344.758                    22645355.496
 127212085.851 6  99126378.424 6  24207657.125                    24207667.859
 121464541.574 7  94647805.29945  23113913.289                    23113922.707
 118687166.724 7  92483577.40944  22585418.047                    22585426.457
 109515861.607 8  85337150.00646  20840146.047                    20840151.199
 11  8 24  0 50 30.0000000  0  8G12G10G05G25G17G04G30G02
 109293997.616 8  85164219.685 7  20797949.078                    20797956.465
 112469510.947 7  87638550.03745  21402163.859                    21402172.012
 108711536.416 8  84710367.759 8  20687088.477                    20687096.191
 118928834.708 7  92671874.130 7  22631404.430                    22631415.309
 127279968.781 6  99179274.163 6  24220575.313                    24220586.105
 121546093.446 7  94711352.19245  23129431.609                    23129441.863
 118618121.273 7  92429775.80944  22572279.055                    22572286.980
 109536887.103 8  85353533.51746  20844146.930                    20844152.488
 11  8 24  0 51  0.0000000  0  8G12G10G05G25G17G04G30G02
 109280313.780 8  85153556.957 8  20795345.180                    20795352.207
 112526589.189 7  87683026.60045  21413025.734                    21413033.734
 108661776.411 8  84671593.786 8  20677619.133                    20677627.156
 118855988.883 7  92615111.196 7  22617542.469                    22617553.160
 127348042.165 6  99232318.330 6  24233529.383                    24233540.270
 121627636.477 7  94774892.20145  23144948.734                    23144958.578
 118549549.983 7  92376343.68444  22559230.070                    22559238.555
 109558087.049 8  85370052.95546  20848181.203                    20848186.887
 11  8 24  0 51 30.0000000  0  8G12G10G05G25G17G04G30G02
 109267205.071 8  85143342.388 8  20792850.602                    20792857.668
 112584194.842 7  87727914.12445  21423987.445                    21423995.891
 108612542.084 8  84633229.431 8  20668250.586                    20668258.027
 118783554.713 7  92558669.025 7  22603758.922                    22603769.430
 127416306.259 6  99285511.112 6  24246519.977                    24246530.563
 121709169.528 7  94838424.41445  23160464.359                    23160473.719
 118481455.391 7  92323283.00644  22546271.594                    22546280.152
 109579460.789 8  85386707.81346  20852248.477                    20852253.785
 11  8 24  0 52  0.0000000  0  8G12G10G05G25G17G04G30G02
 109254672.356 8  85133576.635 8  20790465.750                    20790473.148
 112642325.929 7  87773211.08345  21435049.703                    21435057.703
 108563834.672 8  84595275.647 8  20658981.398                    20658989.211
 118711534.768 7  92502549.634 7  22590053.781                    22590064.672
 127484761.193 6  99338852.607 7  24259545.781                    24259557.297
 121790691.750 7  94901948.19944  23175977.469                    23175987.418
 118413839.846 7  92270595.60544  22533404.625                    22533414.016
 109601007.222 8  85403497.23446  20856348.391                    20856354.352
 11  8 24  0 52 30.0000000  0  8G12G10G05G25G17G04G30G02
 109242716.147 8  85124260.106 8  20788190.586                    20788197.629
 112700979.631 7  87818915.26345  21446211.109                    21446219.055
 108515655.534 8  84557733.509 8  20649813.359                    20649820.938
 118639931.192 7  92446754.690 7  22576428.258                    22576438.672
 127553406.670 7  99392342.559 7  24272609.281                    24272620.258
 121872202.067 6  94965462.69944  23191488.273                    23191497.625
 118346705.386 7  92218283.09844  22520629.406                    22520638.547
 109622724.984 8  85420420.16446  20860481.586                    20860486.840
 11  8 24  0 53  0.0000000  0  8G12G10G05G25G17G04G30G02
 109231337.226 8  85115393.413 8  20786025.180                    20786032.422
 112760154.005 7  87865025.16245  21457471.609                    21457479.789
 108468006.559 8  84520604.489 8  20640745.992                    20640753.570
 118568746.447 7  92391286.105 7  22562881.922                    22562892.484
 127622242.981 7  99445981.223 7  24285708.602                    24285719.305
 121953699.471 6  95028967.13544  23206996.617                    23207006.109
 118280054.264 7  92166347.20644  22507945.914                    22507955.559
 109644613.336 7  85437476.01946  20864646.828                    20864652.227
 11  8 24  0 53 30.0000000  0  8G12G10G05G25G17G04G30G02
 109220536.134 8  85106976.992 8  20783969.602                    20783976.965
 112819847.095 7  87911539.25445  21468830.195                    21468838.684
 108420889.459 8  84483889.914 8  20631779.602                    20631787.379
 118497983.102 7  92336145.890 7  22549415.648                    22549426.254
 127691270.120 7  99499768.598 7  24298843.602                    24298854.641
 122035183.059 6  95092460.80244  23222502.242                    23222512.570
 118213889.028 7  92114789.90244  22495355.508                    22495364.320
 109666671.187 8  85454663.93946  20868844.266                    20868849.664
 11  8 24  0 54  0.0000000  0  8G12G10G05G25G17G04G30G02
 109210313.086 8  85099010.989 8  20782024.609                    20782031.887
 112880056.388 7  87958455.59045  21480287.844                    21480296.793
 108374305.318 8  84447590.632 8  20622915.219                    20622922.758
 118427643.136 7  92281335.561 7  22536030.602                    22536041.055
 127760487.961 7  99553704.562 7  24312015.883                    24312026.605
 122116651.663 6  95155942.79344  23238004.398                    23238015.363
 118148211.488 7  92063612.63245  22482858.047                    22482865.832
 109688897.144 8  85471982.85346  20873073.711                    20873079.457
 11  8 24  0 54 30.0000000  0  8G12G10G05G25G17G04G30G02
 109200668.628 8  85091495.838 8  20780188.930                    20780196.027
 112940779.522 7  88005772.31745  21491843.602                    21491851.621
 108328255.295 8  84411707.544 8  20614151.984                    20614159.801
 118357728.885 7  92226856.956 7  22522726.453                    22522736.594
 127829896.554 7  99607789.157 7  24325222.766                    24325234.859
 122198104.089 6  95219412.18544  23253504.523                    23253514.973
 118083023.819 7  92012817.10145  22470452.938                    22470461.082
 109711289.896 7  85489431.73946  20877334.813                    20877340.473
 11  8 24  0 55  0.0000000  0  8G12G10G05G25G17G04G30G02
 109191603.741 8  85084432.305 8  20778464.211                    20778471.438
 113002014.654 7  88053487.99545  21503495.961                    21503504.184
 108282741.520 8  84376242.307 8  20605491.141                    20605498.551
 118288243.278 7  92172712.366 7  22509504.000                    22509514.172
 127899495.883 7  99662022.383 6  24338467.031                    24338478.594
 122279540.207 7  95282868.85744  23269001.727                    23269011.871
 118018328.792 7  91962405.44244  22458141.742                    22458149.844
 109733849.287 8  85507010.47446  20881627.469                    20881632.762
 11  8 24  0 55 30.0000000  0  9G12G29G10G05G25G17G04G30G02
 109183118.889 8  85077820.754 8  20776849.508                    20776856.805
 129585234.02916 100975550.10516  24659256.344                    24659266.816
 113063759.140 7  88101600.57745  21515245.500                    21515254.086
 108237764.863 8  84341195.600 8  20596932.227                    20596939.672
 118219188.214 7  92118903.266 7  22496363.203                    22496373.527
 127969286.007 7  99716404.273 6  24351747.602                    24351759.012
 122360958.252 7  95346311.45544  23284495.617                    23284505.160
 117954128.149 7  91912379.02044  22445924.938                    22445933.359
 109756573.713 8  85524717.80546  20885951.844                    20885957.516
 11  8 24  0 56  0.0000000  0  9G12G29G10G05G25G17G04G30G02
 109175214.818 8  85071661.758 8  20775345.500                    20775352.609
 129505554.151 6 100913461.957 6  24644092.188                    24644103.836
 113126011.103 7  88150108.59345  21527091.797                    21527100.125
 108193327.340 8  84306568.994 8  20588476.109                    20588483.461
 118150566.581 8  92065431.911 7  22483305.102                    22483315.492
 128039267.207 7  99770935.048 6  24365065.422                    24365076.254
 122442358.246 7  95409740.00944  23299985.508                    23299994.844
 117890424.684 7  91862740.02444  22433802.289                    22433811.215
 109779462.785 8  85542553.43746  20890307.297                    20890313.117
 11  8 24  0 56 30.0000000  0  9G12G29G10G05G25G17G04G30G02
 109167891.779 8  85065955.519 7  20773951.797                    20773959.598
 129425793.535 6 100851310.944 6  24628915.008                    24628925.641
 113188768.124 7  88199010.17045  21539033.859                    21539041.723
 108149430.438 8  84272363.660 8  20580122.484                    20580130.543
 118082380.597 7  92012299.998 7  22470329.625                    22470339.863
 128109439.672 6  99825614.885 6  24378418.133                    24378429.176
 122523738.881 7  95473153.46744  23315472.172                    23315481.418
 117827220.322 7  91813489.94745  22421774.984                    22421784.219
 109802515.313 8  85560516.43446  20894694.563                    20894700.035
 11  8 24  0 57  0.0000000  0  9G12G29G10G05G25G17G04G30G02
 109161149.861 8  85060702.096 8  20772668.734                    20772676.133
 129345952.263 6 100789097.073 6  24613720.430                    24613731.680
 113252027.168 7  88248302.92245  21551072.000                    21551080.125
 108106074.840 8  84238580.109 8  20571872.133                    20571879.758
 118014632.059 8  91959508.959 7  22457437.516                    22457447.645
 128179802.605 6  99880443.127 6  24391807.461                    24391819.250
 122605098.884 7  95536550.82444  23330954.156                    23330963.801
 117764516.796 7  91764630.11444  22409842.055                    22409851.438
 109825729.724 8  85578605.58446  20899112.039                    20899117.672
 11  8 24  0 57 30.0000000  0  9G12G29G10G05G25G17G04G30G02
 109154989.431 8  85055901.781 8  20771496.648                    20771503.746
 129266030.890 6 100726820.748 6  24598512.102                    24598522.895
 113315786.183 8  88297985.26045  21563204.914                    21563213.004
 108063261.721 8  84205219.270 8  20563725.211                    20563732.730
 117947323.153 7  91907060.502 7  22444628.820                    22444639.375
 128250356.138 6  99935419.901 6  24405232.797                    24405244.645
 122686437.338 7  95599931.41444  23346432.672                    23346442.207
 117702316.180 7  91716162.13444  22398005.961                    22398014.531
 109849104.963 8  85596820.05446  20903560.203                    20903565.848
 11  8 24  0 58  0.0000000  0  9G12G29G10G05G25G17G04G30G02
 109149410.614 8  85051554.668 7  20770434.844                    20770442.320
 129186029.745 6 100664482.288 6  24583289.352                    24583299.309
 113380042.658 8  88348055.21945  21575432.266                    21575440.551
 108020992.283 8  84172282.089 8  20555681.328                    20555689.160
 117880456.129 8  91854956.363 7  22431904.539                    22431914.926
 128321100.174 6  99990545.098 6  24418696.906                    24418707.406
 122767753.201 6  95663294.37444  23361906.180                    23361915.902
 117640620.394 7  91668087.53244  22386265.586                    22386274.238
 109872639.740 8  85615158.83446  20908038.391                    20908044.660
 11  8 24  0 58 30.0000000  0  9G12G29G10G05G25G17G04G30G02
 109144413.461 8  85047660.803 7  20769484.063                    20769491.266
 129105949.433 6 100602082.143 6  24568050.766                    24568059.789
 113444793.950 8  88398510.76545  21587754.414                    21587762.215
 107979267.875 8  84139769.600 8  20547741.727                    20547749.488
 117814032.908 8  91803198.044 7  22419264.500                    22419275.000
 128392034.630 6 100045818.722 6  24432193.977                    24432205.035
 122849045.384 7  95726638.87444  23377375.969                    23377385.551
 117579431.238 7  91620407.70945  22374621.430                    22374630.551
 109896332.793 8  85633620.95146  20912547.461                    20912552.996
 11  8 24  0 59  0.0000000  0  9G12G29G10G05G25G17G04G30G02
 109139999.214 8  85044221.148 8  20768643.828                    20768651.020
 129025790.886 7 100539621.041 6  24552797.367                    24552806.324
 113510038.623 8  88449350.75645  21600169.922                    21600178.051
 107938090.052 8  84107683.024 8  20539905.633                    20539913.527
 117748056.676 7  91751788.014 7  22406709.695                    22406720.117
 128463159.373 6 100101240.596 5  24445729.086                    24445740.496
 122930313.740 7  95789964.79644  23392840.563                    23392850.508
 117518751.730 7  91573124.99945  22363075.133                    22363083.859
 109920184.173 8  85652206.43546  20917085.750                    20917091.371
 11  8 24  0 59 30.0000000  0  9G12G29G10G05G25G17G04G30G02
 109136167.787 7  85041235.632 7  20767914.789                    20767922.031
 128945554.913 7 100477099.603 6  24537528.477                    24537537.898
 113575773.640 8  88500572.83045  21612678.602                    21612686.742
 107897459.831 8  84076023.146 8  20532174.023                    20532181.922
 117682529.225 7  91700727.683 7  22394240.289                    22394250.406
 128534474.217 6 100156810.584 5  24459300.156                    24459311.008
 123011556.951 6  95853271.10944  23408300.789                    23408310.730
 117458583.482 7  91526240.67745  22351625.578                    22351634.043
 109944192.349 8  85670914.10346  20921654.414                    20921660.168
 11  8 24  1  0  0.0000000  0  9G12G29G10G05G25G17G04G30G02
 109132919.495 8  85038704.506 7  20767296.758                    20767303.938
 128865241.538 7 100414517.842 6  24522244.578                    24522254.137
 113641995.952 8  88552174.60845  21625280.688                    21625288.988
 107857378.302 8  84044790.822 7  20524546.469                    20524554.438
 117617452.435 7  91650018.527 7  22381856.555                    22381866.645
 128605979.103 6 100212528.695 5  24472907.375                    24472918.234
 123092773.980 6  95916557.00744  23423755.742                    23423765.770
 117398928.209 7  91479756.08145  22340273.672                    22340281.402
 109968355.790 8  85689742.76446  20926252.805                    20926258.262
 11  8 24  1  0 30.0000000  0  9G12G29G10G05G25G17G04G30G02
 109130253.985 8  85036627.485 7  20766789.484                    20766797.008
 128784851.729 6 100351876.509 6  24506947.602                    24506956.480
 113708703.497 8  88604154.48945  21637974.664                    21637982.824
 107817846.517 8  84013986.869 7  20517023.859                    20517031.535
 117552828.795 7  91599662.471 7  22369559.156                    22369569.395
 128677674.232 6 100268395.072 5  24486550.719                    24486560.727
 123173964.324 6  95979822.12744  23439205.594                    23439216.133
 117339788.026 7  91433672.86045  22329019.328                    22329028.063
 109992674.100 8  85708692.10146  20930880.328                    20930885.629
 11  8 24  1  1  0.0000000  0  9G12G29G10G05G25G17G04G30G02
 109128171.834 8  85035005.036 7  20766393.328                    20766400.488
 128704386.188 6 100289176.163 6  24491634.578                    24491644.211
 113775894.064 8  88656510.74745  21650760.219                    21650768.609
 107778865.923 8  83983612.418 7  20509606.289                    20509614.137
 117488660.606 7  91549661.307 7  22357347.977                    22357358.129
 128749559.433 6 100324409.560 5  24500228.969                    24500240.277
 123255127.019 6  96043065.70444  23454650.703                    23454660.738
 117281165.199 7  91387992.76745  22317863.828                    22317872.066
 110017146.231 8  85727761.30146  20935537.242                    20935542.797
 11  8 24  1  1 30.0000000  0  8G12G29G10G05G25G04G30G02
 109126675.221 8  85033838.847 8  20766108.219                    20766115.969
 128623847.361 6 100226418.704 6  24476308.758                    24476317.902
 113843566.910 8  88709242.81345  21663638.094                    21663646.578
 107740439.484 7  83953669.773 7  20502293.969                    20502301.773
 117424951.801 7  91500018.101 7  22345224.930                    22345234.523
 123336263.282 6  96106288.66844  23470089.766                    23470100.527
 117223063.478 7  91342718.71045  22306807.422                    22306815.082
 110041772.956 8  85746950.96846  20940223.500                    20940228.840
 11  8 24  1  2  0.0000000  0  8G12G29G10G05G25G04G30G02
 109125762.154 8  85033127.363 8  20765934.828                    20765942.078
 128543233.866 6 100163603.061 6  24460968.695                    24460978.363
 113911717.783 8  88762347.36645  21676607.148                    21676615.254
 107702566.163 8  83924158.135 7  20495086.781                    20495094.516
 117361702.663 7  91450733.071 7  22333188.758                    22333198.613
 123417370.317 6  96169488.88744  23485524.414                    23485534.797
 117165482.762 7  91297850.64445  22295850.234                    22295857.984
 110066551.444 8  85766258.88846  20944938.438                    20944944.742
 11  8 24  1  2 30.0000000  0  8G12G29G10G05G25G04G30G02
 109125432.774 8  85032870.697 8  20765871.922                    20765879.020
 128462546.370 6 100100729.765 6  24445614.984                    24445623.992
 113980343.778 8  88815822.13745  21689666.117                    21689674.590
 107665247.295 8  83895078.529 7  20487985.438                    20487992.867
 117298915.012 7  91401807.652 7  22321240.828                    22321250.773
 123498446.837 6  96232665.29844  23500953.734                    23500963.371
 117108424.782 7  91253389.90945  22284992.305                    22285000.199
 110091480.539 7  85785684.15946  20949682.719                    20949688.043
 11  8 24  1  3  0.0000000  0  8G12G29G10G05G25G04G30G02
 109125686.967 8  85033068.765 8  20765920.523                    20765927.508
 128381785.041 6 100037798.927 6  24430246.250                    24430255.926
 114049442.284 8  88869665.10145  21702814.891                    21702823.215
 107628483.187 7  83866431.210 7  20480989.242                    20480997.207
 117236590.862 7  91353243.405 7  22309380.656                    22309390.898
 123579491.994 6  96295817.28244  23516375.734                    23516385.730
 117051891.282 7  91209337.84145  22274234.164                    22274242.480
 110116558.592 8  85805225.51346  20954454.625                    20954460.305
 11  8 24  1  3 30.0000000  0  8G12G29G10G05G25G04G30G02
 109126525.058 8  85033721.813 8  20766080.156                    20766086.781
 128300950.873 6  99974811.331 6  24414863.594                    24414873.855
 114119010.636 8  88923874.18445  21716053.547                    21716061.918
 107592275.300 7  83838217.309 7  20474098.938                    20474107.242
 117174732.507 7  91305042.112 7  22297609.594                    22297619.684
 123660505.271 7  96358944.44944  23531792.422                    23531801.883
 116995884.330 7  91165696.10145  22263576.555                    22263584.914
 110141785.132 8  85824882.56246  20959255.313                    20959260.707
 11  8 24  1  4  0.0000000  0  8G12G29G10G05G25G04G30G02
 109127947.139 8  85034829.911 8  20766350.219                    20766357.656
 128220044.777 6  99911767.720 6  24399467.672                    24399476.879
 114189046.538 8  88978447.58945  21729381.125                    21729389.289
 107556624.857 7  83810437.784 7  20467314.820                    20467323.004
 117113342.334 7  91257205.652 7  22285927.336                    22285937.945
 123741486.044 7  96422046.30644  23547202.227                    23547212.027
 116940406.164 7  91122466.39145  22253019.391                    22253027.348
 110167159.467 8  85844654.77946  20964083.602                    20964089.477
 11  8 24  1  4 30.0000000  0  8G12G29G10G05G25G04G30G02
 109129952.890 8  85036392.824 8  20766732.172                    20766739.496
 128139067.323 6  99848668.472 6  24384058.727                    24384068.051
 114259547.304 8  89033383.23645  21742796.867                    21742805.109
 107521532.550 8  83783093.158 7  20460637.703                    20460645.043
 117052422.248 7  91209735.483 7  22274334.609                    22274344.750
 123822433.529 7  96485122.20944  23562606.281                    23562615.520
 116885458.268 7  91079649.86245  22242563.313                    22242571.547
 110192680.368 8  85864541.20246  20968940.500                    20968945.992
 11  8 24  1  5  0.0000000  0  8G12G29G10G05G25G04G30G02
 109132542.653 8  85038410.805 8  20767225.031                    20767232.133
 128058019.551 6  99785514.416 6  24368634.313                    24368644.695
 114330510.802 7  89088679.44645  21756300.922                    21756308.910
 107486999.626 7  83756184.428 7  20454065.828                    20454073.574
 116991974.506 7  91162633.366 7  22262832.031                    22262842.160
 123903346.952 7  96548171.61644  23578003.391                    23578013.176
 116831042.799 7  91037248.21345  22232208.352                    22232216.555
 110218347.106 8  85884541.26146  20973824.398                    20973830.000
 11  8 24  1  5 30.0000000  0  8G12G29G10G05G25G04G30G02
 109135716.903 8  85040884.240 8  20767829.578                    20767836.129
 127976902.364 6  99722306.275 6  24353198.656                    24353208.848
 114401934.941 7  89144334.59845  21769892.367                    21769900.141
 107453027.382 7  83729712.589 7  20447601.148                    20447608.469
 116932001.642 8  91115901.296 7  22251419.188                    22251429.316
 123984226.065 7  96611194.28144  23593394.297                    23593404.293
 116777161.943 7  90995263.14245  22221955.133                    22221963.180
 110244159.400 8  85904654.73546  20978736.273                    20978742.094
 11  8 24  1  6  0.0000000  0  8G12G29G10G05G25G04G30G02
 109139474.819 7  85043812.475 8  20768544.344                    20768551.391
 127895716.151 6  99659044.306 6  24337748.891                    24337760.223
 114473816.281 8  89200346.01345  21783570.781                    21783579.094
 107419616.038 7  83703677.809 7  20441243.188                    20441250.605
 116872504.968 8  91069540.284 7  22240097.570                    22240107.770
 124065069.497 7  96674189.13344  23608777.742                    23608787.484
 116723816.886 7  90953695.59145  22211803.984                    22211812.082
 110270115.264 8  85924880.07946  20983675.430                    20983681.508
 11  8 24  1  6 30.0000000  0  8G12G29G10G05G25G04G30G02
 109143816.435 8  85047195.533 7  20769370.125                    20769377.820
 127814461.412 6  99595728.982 6  24322287.336                    24322298.086
 114546152.045 7  89256711.53545  21797335.953                    21797343.949
 107386766.540 7  83678080.836 7  20434991.930                    20434999.434
 116813486.603 8  91023551.980 7  22228866.180                    22228876.988
 124145876.390 7  96737155.57444  23624154.320                    23624164.602
 116671009.318 7  90912546.85745  22201754.758                    22201762.770
 110296213.840 8  85945216.62746  20988642.078                    20988647.703
 11  8 24  1  7  0.0000000  0  8G12G29G10G05G25G04G30G02
 109148741.889 8  85051033.537 8  20770307.664                    20770315.180
 127733139.232 6  99532361.118 6  24306812.695                    24306822.699
 114618939.840 8  89313429.29745  21811187.195                    21811195.344
 107354479.878 7  83652922.425 7  20428847.828                    20428855.500
 116754948.634 7  90977938.009 7  22217727.047                    22217737.797
 124226646.279 7  96800093.16643  23639525.117                    23639534.922
 116618741.207 7  90871818.48145  22191808.305                    22191816.902
 110322454.474 8  85965663.86646  20993635.422                    20993640.895
 11  8 24  1  7 30.0000000  0  8G12G29G10G05G25G04G30G02
 109154250.604 8  85055326.032 8  20771356.180                    20771363.211
 127651749.644 6  99468940.740 6  24291325.203                    24291333.703
 114692176.864 8  89370497.08545  21825123.320                    21825131.469
 107322756.690 7  83628203.091 7  20422811.094                    20422818.625
 116696892.715 7  90932699.664 7  22206679.281                    22206690.344
 124307378.139 7  96863001.12544  23654887.844                    23654897.832
 116567013.813 7  90831511.44045  22181964.961                    22181973.605
 110348835.648 8  85986220.62646  20998655.656                    20998661.336
 11  8 24  1  8  0.0000000  0  8G12G29G10G05G25G04G30G02
 109160342.307 8  85060072.805 8  20772514.789                    20772522.461
 127570293.984 6  99405468.850 6  24275824.219                    24275832.574
 114765860.530 7  89427912.91345  21839145.305                    21839152.898
 107291597.936 7  83603923.579 7  20416881.992                    20416889.547
 116639321.015 7  90887838.628 7  22195723.539                    22195734.625
 124388071.474 7  96925879.05943  23670243.039                    23670253.320
 116515829.123 7  90791627.28845  22172225.039                    22172232.961
 110375356.880 8  86006886.51746  21003702.453                    21003708.020
 11  8 24  1  8 30.0000000  0  8G12G29G10G05G25G04G30G02
 109167017.909 8  85065274.558 7  20773785.391                    20773792.977
 127488773.610 7  99341946.573 6  24260310.836                    24260319.758
 114839988.892 8  89485675.26245  21853251.203                    21853259.234
 107261005.002 7  83580084.960 7  20411060.453                    20411067.609
 116582236.330 7  90843357.069 7  22184860.898                    22184871.898
 124468726.146 7  96988726.83243  23685591.938                    23685601.539
 116465189.656 7  90752167.98645  22162588.250                    22162596.332
 110402018.186 8  86027661.55246  21008776.297                    21008781.688
 11  8 24  1  9  0.0000000  0  8G12G29G10G05G25G04G30G02
 109174276.192 8  85070930.366 7  20775166.633                    20775173.816
 127407188.359 7  99278373.663 6  24244785.914                    24244794.559
 114914558.362 7  89543781.33745  21867441.375                    21867449.750
 107230977.669 7  83556687.074 7  20405346.211                    20405353.852
 116525639.551 7  90799255.707 7  22174090.891                    22174101.926
 124549340.641 7  97051543.29943  23700932.281                    23700941.664
 116415095.996 7  90713133.99445  22153055.672                    22153064.113
 110428817.114 8  86048543.81946  21013875.867                    21013881.621
 11  8 24  1  9 30.0000000  0  8G12G29G10G05G25G04G30G02
 109182117.147 8  85077040.196 7  20776658.734                    20776665.906
 127325539.757 6  99214751.426 6  24229248.367                    24229257.605
 114989566.793 7  89602229.44545  21881715.047                    21881723.449
 107201516.903 7  83533730.666 7  20399739.961                    20399747.504
 116469533.115 7  90755536.436 7  22163414.273                    22163425.195
 124629914.779 7  97114328.30943  23716264.305                    23716274.414
 116365550.265 7  90674526.96345  22143627.914                    22143636.109
 110455753.421 8  86069533.14246  21019001.742                    21019007.340
 11  8 24  1 10  0.0000000  0  8G12G29G10G05G25G04G30G02
 109190541.163 8  85083604.364 7  20778262.086                    20778269.148
 127243828.563 6  99151080.415 6  24213699.719                    24213708.840
 115065011.961 7  89661017.87445  21896071.617                    21896079.859
 107172624.162 7  83511216.865 7  20394242.016                    20394249.203
 116413919.353 7  90712201.074 7  22152831.133                    22152841.742
 124710448.123 6  97177081.53643  23731589.570                    23731599.469
 116316554.539 7  90636348.51245  22134304.070                    22134312.008
 110482826.881 8  86090629.34546  21024153.391                    21024159.215
 11  8 24  1 10 30.0000000  0  8G12G29G10G05G25G04G30G02
 109199546.811 8  85090621.756 7  20779975.445                    20779982.621
 127162054.929 6  99087360.751 6  24198138.383                    24198147.715
 115140890.471 7  89720143.96945  21910510.719                    21910519.336
 107144299.203 7  83489145.502 7  20388852.023                    20388859.363
 116358799.391 7  90669250.478 7  22142342.109                    22142352.984
 124790939.523 6  97239802.08243  23746906.531                    23746916.875
 116268109.611 7  90598599.24645  22125085.461                    22125093.512
 110510035.361 8  86111830.75446  21029331.117                    21029336.973
 11  8 24  1 11  0.0000000  0  8G12G29G10G05G25G04G30G02
 109209134.461 8  85098092.662 7  20781800.250                    20781807.344
 127080220.672 6  99023593.838 6  24182565.734                    24182575.871
 115217200.147 7  89779606.05145  21925032.016                    21925040.359
 107116543.380 7  83467517.625 7  20383569.828                    20383577.230
 116304175.679 8  90626686.581 7  22131947.844                    22131958.453
 124871388.670 6  97302489.71743  23762215.602                    23762225.617
 116220217.698 7  90561280.90345  22115972.180                    22115979.469
 110537379.070 7  86133137.53546  21034534.672                    21034540.109
 11  8 24  1 11 30.0000000  0  8G12G29G10G05G25G04G30G02
 109219303.705 8  85106016.752 7  20783735.195                    20783742.520
 126998325.940 6  98959779.824 6  24166981.992                    24166992.172
 115293937.697 7  89839401.54345  21939635.055                    21939643.012
 107089357.051 7  83446333.499 7  20378396.570                    20378404.164
 116250049.757 8  90584510.564 7  22121647.602                    22121658.070
 124951794.721 6  97365143.73344  23777515.898                    23777526.609
 116172879.987 7  90524394.41345  22106964.102                    22106971.547
 110564856.616 8  86154548.61146  21039763.469                    21039768.793
 11  8 24  1 12  0.0000000  0  8G12G29G10G05G25G04G30G02
 109230054.327 8  85114393.882 8  20785780.750                    20785788.180
 126916371.831 6  98895919.542 6  24151386.164                    24151395.703
 115371100.616 7  89899528.48145  21954318.438                    21954326.793
 107062741.015 7  83425593.764 7  20373331.570                    20373339.020
 116196423.845 8  90542724.163 7  22111443.211                    22111453.293
 125032157.308 7  97427763.89843  23792809.508                    23792818.934
 116126098.286 7  90487941.15545  22098061.313                    22098068.906
 110592467.453 8  86176063.54146  21045017.383                    21045022.785
 11  8 24  1 12 30.0000000  0  8G12G29G10G05G25G04G30G02
 109241385.580 8  85123223.435 7  20787937.047                    20787943.910
 126834359.413 6  98832013.843 6  24135779.695                    24135789.777
 115448686.266 7  89959984.81144  21969082.531                    21969090.371
 107036695.410 7  83405298.512 7  20368375.195                    20368382.480
 116143299.466 8  90501328.556 7  22101333.977                    22101343.996
 125112475.546 7  97490349.48644  23808093.008                    23808103.359
 116079873.906 7  90451922.19145  22089265.258                    22089273.492
 110620210.404 8  86197681.41846  21050296.617                    21050302.285
 11  8 24  1 13  0.0000000  0  8G12G29G10G05G25G04G30G02
 109253297.389 8  85132505.377 7  20790204.031                    20790210.781
 126752289.350 6  98768063.221 6  24120162.797                    24120171.301
 115526692.148 7  90020768.61844  21983926.500                    21983934.512
 107011221.094 7  83385448.428 7  20363527.430                    20363535.152
 116090678.577 8  90460325.297 7  22091320.648                    22091330.781
 125192748.922 7  97552900.09843  23823368.938                    23823378.258
 116034208.532 7  90416338.80845  22080575.133                    22080583.699
 110648084.686 8  86219401.63946  21055600.773                    21055606.426
 11  8 24  1 13 30.0000000  0  8G12G29G10G05G25G04G30G02
 109265788.726 8  85142238.900 7  20792581.117                    20792587.996
 126670162.013 6  98704067.971 6  24104533.930                    24104542.391
 115605114.899 7  90081877.26445  21998849.820                    21998858.227
 106986318.630 7  83366043.941 7  20358788.836                    20358796.465
 116038562.636 8  90419715.497 7  22081402.750                    22081413.602
 125272976.641 6  97615415.13443  23838635.828                    23838644.879
 115989103.139 7  90381191.78245  22071992.211                    22072000.977
 110676089.085 8  86241223.24246  21060930.094                    21060935.602
 11  8 24  1 14  0.0000000  0  8G12G29G10G05G25G04G30G02
 109278859.730 8  85152424.111 7  20795067.992                    20795075.512
 126587978.817 6  98640029.211 6  24088894.938                    24088903.922
 115683952.085 7  90143308.82645  22013851.688                    22013859.996
 106961987.945 7  83347084.998 7  20354158.563                    20354166.305
 115986953.564 8  90379500.656 7  22071582.133                    22071592.504
 125353158.304 7  97677894.28243  23853894.180                    23853903.344
 115944559.499 7  90346482.47145  22063515.688                    22063524.281
 110704223.060 8  86263145.81346  21066283.930                    21066289.523
 11  8 24  1 14 30.0000000  0  8G12G29G10G05G25G04G30G02
 109292509.554 8  85163060.345 7  20797665.617                    20797672.582
 126505740.794 6  98575947.751 6  24073245.938                    24073254.457
 115763201.421 7  90205061.55145  22028932.406                    22028941.105
 106938230.411 7  83328572.659 7  20349637.688                    20349645.207
 115935853.708 8  90339682.608 7  22061858.164                    22061868.730
 125433293.729 7  97740337.38943  23869142.859                    23869152.824
 115900579.420 7  90312212.31145  22055146.664                    22055155.078
 110732486.161 8  86285169.00446  21071662.063                    21071667.883
 11  8 24  1 15  0.0000000  0  8G12G29G10G05G25G04G30G02
 109306737.315 8  85174146.922 7  20800373.492                    20800379.984
 126423448.323 6  98511823.845 6  24057586.047                    24057595.414
 115842859.460 7  90267132.75345  22044091.047                    22044099.336
 106915045.852 7  83310506.805 7  20345226.016                    20345233.695
 115885264.042 8  90300262.109 7  22052231.469                    22052242.215
 125513381.740 6  97802743.56943  23884382.836                    23884393.430
 115857163.686 7  90278381.88745  22046884.453                    22046892.973
 110760876.767 8  86307291.55146  21077064.406                    21077070.402
 11  8 24  1 15 30.0000000  0  8G12G29G10G05G25G04G30G02
 109321543.057 8  85185683.879 7  20803190.797                    20803197.816
 126341102.732 6  98447658.532 6  24041915.813                    24041924.996
 115922923.275 7  90329520.15545  22059326.969                    22059335.398
 106892434.370 7  83292887.492 7  20340922.852                    20340930.598
 115835186.327 8  90261240.524 7  22042701.859                    22042712.047
 125593421.705 6  97865112.30943  23899613.766                    23899624.988
 115814313.619 7  90244992.23045  22038730.758                    22038739.230
 110789394.161 8  86329512.88946  21082491.383                    21082496.918
 11  8 24  1 16  0.0000000  0  8G12G29G10G05G25G04G30G02
 109336925.964 8  85197670.565 7  20806117.648                    20806125.008
 126258704.893 6  98383452.499 6  24026235.563                    24026245.023
 116003390.698 7  90392222.04945  22074639.031                    22074647.352
 106870396.934 7  83275715.497 7  20336729.664                    20336737.086
 115785622.512 8  90222619.373 7  22033270.273                    22033279.898
 125673413.430 6  97927443.43543  23914835.898                    23914846.574
 115772030.894 7  90212044.67845  22030684.633                    22030692.465
 110818037.894 8  86351832.67346  21087941.984                    21087947.871
 11  8 24  1 16 30.0000000  0  8G12G29G10G05G25G04G30G02
 109352885.676 8  85210106.708 7  20809155.133                    20809162.027
 126176255.906 7  98319206.584 6  24010546.523                    24010555.355
 116084258.932 7  90455236.24345  22090028.227                    22090036.645
 106848934.090 7  83258991.236 7  20332645.516                    20332652.688
 115736574.441 8  90184400.117 7  22023936.539                    22023946.629
 125753356.509 6  97989736.69443  23930049.000                    23930059.102
 115730316.932 7  90179540.29345  22022746.547                    22022754.844
 110846807.283 8  86374250.37846  21093416.641                    21093422.598
 11  8 24  1 17  0.0000000  0  8G12G29G10G05G25G04G30G02
 109369421.200 8  85222991.525 7  20812301.547                    20812308.535
 126093756.767 7  98254921.598 6  23994847.445                    23994856.301
 116165524.954 7  90518560.39245  22105492.141                    22105500.832
 106828046.135 7  83242714.943 7  20328670.672                    20328677.996
 115688043.816 8  90146584.069 7  22014701.125                    22014711.828
 125833250.256 6  98051991.51643  23945252.719                    23945262.547
 115689173.053 7  90147480.14045  22014917.422                    22014925.590
 110875701.531 8  86396765.38146  21098914.797                    21098920.824
 11  8 24  1 17 30.0000000  0  8G12G29G10G05G25G04G30G02
 109386531.386 8  85236324.137 7  20815557.328                    20815564.477
 126011207.484 7  98190597.528 6  23979138.914                    23979147.559
 116247185.177 7  90582191.72545  22121031.492                    22121040.320
 106807732.559 7  83226886.214 7  20324804.906                    20324812.523
 115640031.483 8  90109171.886 7  22005564.836                    22005575.461
 125913093.668 6  98114207.16943  23960446.117                    23960455.906
 115648599.887 7  90115864.69845  22007196.438                    22007204.867
 110904718.585 8  86419376.07146  21104436.570                    21104442.422
 11  8 24  1 18  0.0000000  0  8G12G29G10G05G25G04G30G02
 109404216.639 8  85250104.857 7  20818922.852                    20818930.254
 125928610.291 7  98126236.134 6  23963421.086                    23963429.500
 116329237.662 7  90646128.72245  22136645.836                    22136654.340
 106787994.564 7  83211505.996 7  20321048.563                    20321055.934
 115592539.896 8  90072165.479 7  21996527.453                    21996538.109
 125992886.767 6  98176383.56543  23975630.352                    23975639.680
 115608599.412 7  90084695.51745  21999584.406                    21999593.277
 110933859.209 8  86442083.05446  21109982.227                    21109987.715
 11  8 24  1 18 30.0000000  0  8G12G29G10G05G25G04G30G02
 109422475.818 8  85264332.771 7  20822397.250                    20822404.918
 125845965.489 7  98061837.644 6  23947694.422                    23947702.926
 116411679.630 7  90710369.19845  22152334.320                    22152342.402
 106768832.402 7  83196574.463 7  20317402.063                    20317409.766
 115545570.624 8  90035566.070 7  21987590.164                    21987600.219
 126072628.967 6  98238520.30443  23990804.938                    23990813.691
 115569172.724 7  90053973.44245  21992081.789                    21992090.629
 110963122.254 8  86464885.43746  21115550.250                    21115556.129
 11  8 24  1 19  0.0000000  0  8G12G29G10G05G25G04G30G02
 109441308.159 8  85279007.315 7  20825980.961                    20825988.105
 125763274.370 7  97997403.055 6  23931958.797                    23931967.293
 116494508.310 7  90774911.01745  22168096.094                    22168104.641
 106750246.169 7  83182091.720 7  20313865.461                    20313872.820
 115499125.193 8  89999374.837 7  21978751.781                    21978761.660
 126152319.902 6  98300617.01843  24005969.875                    24005978.887
 115530321.104 7  90023699.46445  21984688.328                    21984697.680
 110992506.888 8  86487782.55746  21121141.852                    21121147.949
 11  8 24  1 19 30.0000000  0  8G12G29G10G05G25G04G30G02
 109460712.768 8  85294127.780 7  20829673.516                    20829680.559
 125680537.579 7  97932932.879 6  23916213.813                    23916223.453
 116577720.596 7  90839751.73745  22183930.508                    22183939.051
 106732235.772 7  83168057.669 7  20310438.367                    20310445.883
 115453204.881 8  89963592.803 7  21970013.000                    21970023.145
 126231958.751 6  98362673.23843  24021123.727                    24021133.590
 115492045.435 7  89993874.28445  21977404.773                    21977413.098
 111022011.890 8  86510773.47146  21126756.852                    21126762.758
 11  8 24  1 20  0.0000000  0  8G12G29G10G05G25G04G30G02
 109480688.838 8  85309693.538 7  20833475.125                    20833482.188
 125597756.232 7  97868427.965 6  23900461.164                    23900470.355
 116661314.072 7  90904889.48845  22199837.969                    22199845.992
 106714801.880 7  83154472.846 8  20307120.633                    20307128.188
 115407811.657 8  89928221.491 7  21961375.070                    21961385.367
 126311545.434 6  98424688.78543  24036268.727                    24036278.578
 115454347.269 7  89964499.10045  21970231.086                    21970239.684
 111051636.983 8  86533857.97146  21132394.156                    21132399.848
 11  8 24  1 20 30.0000000  0  8G12G29G10G05G25G04G30G02
 109501235.921 8  85325704.233 7  20837385.180                    20837392.160
 125514931.497 7  97803889.248 6  23884700.000                    23884709.563
 116745285.707 7  90970321.91345  22215817.438                    22215826.074
 106697944.449 7  83141337.208 8  20303913.227                    20303920.234
 115362946.886 8  89893261.962 7  21952837.539                    21952847.305
 126391079.183 6  98486663.06543  24051403.531                    24051413.762
 115417227.633 7  89935574.73545  21963167.563                    21963176.020
 111081381.240 8  86557035.31946  21138054.516                    21138059.988
 11  8 24  1 21  0.0000000  0  8G12G29G10G05G25G04G30G02
 109522352.647 8  85342158.814 7  20841403.695                    20841410.676
 125432064.447 7  97739317.567 6  23868930.477                    23868940.375
 116829632.427 7  91036046.62045  22231868.203                    22231876.785
 106681663.418 7  83128650.710 7  20300814.859                    20300821.918
 115318611.841 8  89858715.206 7  21944400.992                    21944410.641
 126470559.532 6  98548595.72943  24066527.883                    24066538.695
 115380687.387 7  89907101.83145  21956214.242                    21956222.602
 111111243.658 8  86580304.74346  21143737.117                    21143742.734
 11  8 24  1 21 30.0000000  0  8G12G29G10G05G25G04G30G02
 109544037.974 8  85359056.455 7  20845530.375                    20845537.207
 125349155.982 7  97674713.623 6  23853153.844                    23853163.387
 116914351.165 7  91102061.20145  22247989.586                    22247997.836
 106665958.731 7  83116413.322 8  20297825.945                    20297833.660
 115274807.951 8  89824582.342 7  21936065.164                    21936075.094
 126549985.877 6  98610486.38043  24081642.828                    24081653.270
 115344727.460 7  89879081.12845  21949370.859                    21949379.902
 111141223.372 8  86603665.57446  21149441.930                    21149447.453
 11  8 24  1 22  0.0000000  0  8G12G29G10G05G25G04G30G02
 109566291.643 8  85376396.965 7  20849764.711                    20849771.566
 125266207.426 7  97610078.457 6  23837369.453                    23837378.391
 116999439.567 7  91168363.81445  22264181.414                    22264190.082
 106650831.362 7  83104625.783 7  20294947.648                    20294954.328
 115231536.989 8  89790864.747 7  21927831.180                    21927841.160
 126629358.077 6  98672334.78543  24096747.328                    24096757.004
 115309349.309 7  89851513.75945  21942638.750                    21942647.602
 111171320.163 8  86627117.62146  21155169.258                    21155175.188
 11  8 24  1 22 30.0000000  0  8G12G29G10G05G25G04G30G02
 109589112.914 8  85394179.759 7  20854107.375                    20854114.590
 125183219.879 7  97545412.909 6  23821577.211                    23821586.461
 117084895.050 7  91234952.48245  22280442.727                    22280451.457
 106636280.963 7  83093287.823 8  20292178.734                    20292186.250
 115188800.781 8  89757563.839 7  21919698.547                    21919708.336
 126708676.068 6  98734140.95243  24111840.328                    24111850.914
 115274554.366 7  89824400.84545  21936017.430                    21936026.453
 111201533.832 8  86650660.73946  21160918.727                    21160924.383
 11  8 24  1 23  0.0000000  0  8G12G29G10G05G25G04G30G02
 109612500.224 8  85412403.624 7  20858558.047                    20858565.500
 125100194.059 6  97480717.551 6  23805777.438                    23805786.688
 117170714.114 7  91301824.46145  22296773.836                    22296782.688
 106622307.266 7  83082399.255 7  20289519.070                    20289526.988
 115146600.014 8  89724680.159 7  21911667.945                    21911677.980
 126787938.658 6  98795903.93543  24126924.320                    24126934.465
 115240342.850 7  89797742.55445  21929507.234                    21929516.270
 111231862.481 8  86674293.46246  21166690.047                    21166695.441
 11  8 24  1 23 30.0000000  0  8G12G29G10G05G25G04G30G02
 109636452.611 8  85431067.811 7  20863115.852                    20863122.965
 125017130.746 7  97415992.977 6  23789970.773                    23789980.305
 117256893.815 7  91368977.44845  22313173.305                    22313181.293
 106608910.193 7  83071959.996 8  20286970.234                    20286977.168
 115104936.115 8  89692214.816 7  21903740.078                    21903749.344
 126867145.550 6  98857623.52043  24141995.578                    24142007.121
 115206715.813 7  89771539.69445  21923108.398                    21923116.691
 111262305.465 8  86698015.27346  21172482.859                    21172488.602
 11  8 24  1 24  0.0000000  0  8G12G29G10G05G25G04G30G02
 109660969.158 8  85450171.606 7  20867781.344                    20867788.820
 124934031.714 7  97351240.545 6  23774158.813                    23774167.449
 117343431.711 7  91436409.53445  22329640.938                    22329648.828
 106596090.044 7  83061970.293 8  20284530.125                    20284537.750
 115063810.777 8  89660169.128 7  21895913.648                    21895923.586
 126946296.643 6  98919299.62343  24157058.148                    24157068.906
 115173674.506 7  89745793.24645  21916820.836                    21916829.203
 111292862.555 8  86721826.00046  21178298.133                    21178303.223
 11  8 24  1 24 30.0000000  0  8G12G29G10G05G25G04G30G02
 109686048.797 8  85469714.171 7  20872553.922                    20872561.086
 124850897.773 7  97286460.908 6  23758338.961                    23758347.660
 117430324.481 7  91504118.16645  22346176.031                    22346184.563
 106583846.575 8  83052429.953 8  20282200.492                    20282208.164
 115023225.157 8  89628544.001 7  21888190.500                    21888200.285
 127025391.331 6  98980931.81443  24172109.469                    24172120.309
 115141219.582 7  89720503.73145  21910644.820                    21910652.934
 111323532.810 8  86745724.90946  21184134.148                    21184139.836
 11  8 24  1 25  0.0000000  0  8G12G29G10G05G25G04G30G02
 109711690.618 8  85489694.807 7  20877433.219                    20877440.465
 124767729.996 7  97221654.899 6  23742511.961                    23742520.504
 117517569.398 7  91572101.18545  22362778.453                    22362786.734
 106572179.842 7  83043339.011 7  20279980.453                    20279987.918
 114983180.666 8  89597340.525 7  21880570.250                    21880580.082
 127104429.286 6  99042519.77542  24187150.711                    24187160.574
 115109352.143 7  89695671.98045  21904580.539                    21904588.734
 111354315.592 8  86769711.49846  21189992.023                    21189997.629
 11  8 24  1 25 30.0000000  0  9G12G29G10G05G25G26G04G30G02
 109737893.580 8  85510112.687 7  20882419.289                    20882426.777
 124684529.067 7  97156823.053 6  23726679.078                    23726688.258
 117605163.621 7  91640356.42345  22379447.273                    22379455.207
 106561089.628 8  83034697.309 8  20277870.234                    20277877.160
 114943678.339 8  89566559.511 7  21873053.016                    21873062.914
 130555805.10416 101731884.10153  24843953.508                    24843966.250
 127183409.727 6  99104062.97443  24202179.484                    24202189.543
 115078072.718 7  89671298.42445  21898628.453                    21898636.523
 111385209.759 7  86793784.88546  21195870.930                    21195876.863
 11  8 24  1 26  0.0000000  0  9G12G29G10G05G25G26G04G30G02
 109764657.204 8  85530967.453 7  20887512.523                    20887519.809
 124601297.348 7  97091967.212 6  23710841.023                    23710850.086
 117693105.417 7  91708882.48645  22396181.797                    22396190.160
 106550576.914 7  83026505.605 7  20275869.695                    20275877.113
 114904720.800 8  89536203.003 7  21865639.719                    21865649.590
 130464459.662 6 101660706.01743  24826571.438                    24826583.770
 127262333.633 6  99165562.07342  24217198.703                    24217207.859
 115047383.454 7  89647384.73145  21892788.227                    21892796.508
 111416216.490 8  86817945.98646  21201771.680                    21201776.922
 11  8 24  1 26 30.0000000  0  9G12G29G10G05G25G26G04G30G02
 109791979.412 8  85552257.487 7  20892711.867                    20892718.695
 124518035.439 7  97027087.835 6  23694996.531                    23695005.621
 117781390.765 7  91777676.23345  22412981.953                    22412990.500
 106540640.466 7  83018762.939 8  20273978.469                    20273986.082
 114866308.119 8  89506271.054 7  21858330.055                    21858339.586
 130372972.364 6 101589417.34744  24809161.844                    24809173.309
 127341199.556 6  99227015.98442  24232205.773                    24232215.727
 115017284.016 7  89623930.65245  21887060.508                    21887068.754
 111447333.226 7  86842192.80346  21207692.602                    21207698.332
 11  8 24  1 27  0.0000000  0  9G12G29G10G05G25G26G04G30G02
 109819859.389 7  85573982.133 7  20898017.117                    20898024.605
 124434744.344 6  96962185.717 6  23679146.273                    23679155.598
 117870016.818 7  91846735.47145  22429846.617                    22429855.371
 106531280.338 7  83011469.354 8  20272197.359                    20272205.070
 114828441.714 8  89476764.771 7  21851124.242                    21851133.953
 130281346.048 6 101518020.40143  24791725.695                    24791737.102
 127420007.263 6  99288424.55642  24247202.008                    24247212.914
 114987775.367 7  89600936.91545  21881445.125                    21881453.371
 111478559.750 8  86866525.16646  21213634.891                    21213640.336
 11  8 24  1 27 30.0000000  0  9G12G29G10G05G25G26G04G30G02
 109848295.721 8  85596140.315 7  20903428.602                    20903435.410
 124351425.122 7  96897261.672 6  23663291.875                    23663299.727
 117958980.743 7  91916057.97945  22446775.844                    22446784.422
 106522496.437 7  83004624.780 7  20270525.906                    20270533.316
 114791122.894 8  89447685.185 7  21844022.367                    21844032.547
 130189583.707 6 101446517.41343  24774264.289                    24774276.539
 127498756.441 6  99349787.50943  24262187.789                    24262198.836
 114958858.450 7  89578404.26245  21875942.391                    21875951.008
 111509895.208 8  86890942.41546  21219597.828                    21219603.434
 11  8 24  1 28  0.0000000  0  9G12G29G10G05G25G26G04G30G02
 109877287.594 7  85618731.387 7  20908945.383                    20908952.555
 124268078.932 7  96832316.599 6  23647431.375                    23647439.004
 118048279.777 7  91985641.59445  22463769.539                    22463777.914
 106514288.409 7  82998228.936 8  20268963.563                    20268971.066
 114754352.826 8  89419033.190 7  21837025.813                    21837035.547
 130097687.999 6 101374910.45243  24756776.492                    24756788.734
 127577446.711 6  99411104.60742  24277162.453                    24277173.004
 114930533.910 7  89556333.21345  21870552.484                    21870560.863
 111541339.382 7  86915444.37446  21225581.555                    21225587.141
 11  8 24  1 28 30.0000000  0  9G12G29G10G05G25G26G04G30G02
 109906833.492 8  85641754.174 7  20914567.555                    20914574.926
 124184707.285 7  96767351.684 6  23631566.188                    23631574.102
 118137910.790 7  92055483.91445  22480825.742                    22480833.727
 106506655.634 7  82992281.340 8  20267511.148                    20267518.598
 114718132.562 8  89390809.618 7  21830133.070                    21830143.066
 130005661.750 6 101303201.90443  24739264.695                    24739275.941
 127656077.675 6  99472375.48542  24292125.734                    24292135.590
 114902802.271 7  89534724.15845  21865275.328                    21865283.234
 111572891.438 8  86940030.40346  21231585.625                    21231591.164
 11  8 24  1 29  0.0000000  0  9G12G29G10G05G25G26G04G30G02
 109936932.516 8  85665207.951 7  20920295.492                    20920302.758
 124101311.222 7  96702367.741 6  23615696.406                    23615705.098
 118227871.290 7  92125582.96445  22497944.313                    22497953.020
 106499598.583 7  82986782.356 7  20266168.508                    20266175.805
 114682463.580 8  89363015.613 7  21823345.727                    21823355.406
 129913508.010 6 101231393.94342  24721728.156                    24721739.730
 127734649.045 6  99533599.90542  24307076.852                    24307087.109
 114875664.641 7  89513577.96145  21860111.313                    21860119.602
 111604550.845 8  86964700.08546  21237610.563                    21237615.977
 11  8 24  1 29 30.0000000  0  9G12G29G10G05G25G26G04G30G02
 109967583.088 8  85689091.510 7  20926128.156                    20926135.258
 124017891.797 7  96637365.606 6  23599822.063                    23599831.570
 118318158.149 7  92195936.31445  22515125.594                    22515134.090
 106493116.543 7  82981731.431 8  20264935.352                    20264942.406
 114647346.785 8  89335651.886 7  21816663.227                    21816673.305
 129821229.211 5 101159488.40442  24704167.070                    24704179.746
 127813160.631 6  99594777.73042  24322017.383                    24322027.668
 114849121.439 7  89492894.95445  21855059.906                    21855068.305
 111636316.733 8  86989452.74646  21243655.336                    21243660.496
 11  8 24  1 30  0.0000000  0  9G12G29G10G05G25G26G04G30G02
 109998784.055 8  85713403.955 7  20932065.281                    20932072.797
 123934450.472 7  96572346.406 6  23583943.258                    23583952.957
 118408768.405 7  92266541.68144  22532367.352                    22532376.461
 106487209.345 7  82977128.436 7  20263810.961                    20263817.934
 114612783.454 8  89308719.432 7  21810086.063                    21810096.039
 129728828.657 5 101087488.18142  24686584.391                    24686597.059
 127891612.048 6  99655908.64943  24336946.180                    24336956.262
 114823173.415 7  89472675.71645  21850122.648                    21850130.609
 111668188.739 8  87014288.08746  21249719.945                    21249725.582
 11  8 24  1 30 30.0000000  0  9G12G29G10G05G25G26G04G30G02
 110030534.186 8  85738144.302 7  20938107.398                    20938114.551
 123850988.289 6  96507310.982 6  23568061.328                    23568071.148
 118499699.120 7  92337396.76045  22549671.289                    22549680.223
 106481877.004 7  82972973.376 7  20262796.234                    20262803.602
 114578774.621 8  89282219.048 7  21803614.484                    21803624.230
 129636309.117 5 101015395.23042  24668978.125                    24668990.777
 127970003.124 7  99716992.59343  24351864.102                    24351873.813
 114797821.176 7  89452920.72645  21845298.266                    21845306.164
 111700166.047 8  87039205.48146  21255805.164                    21255810.855
 11  8 24  1 31  0.0000000  0  9G12G29G10G05G25G26G04G30G02
 110062831.869 8  85763311.323 7  20944253.078                    20944260.484
 123767506.628 7  96442260.377 6  23552176.250                    23552184.348
 118590947.437 7  92408499.33144  22567035.633                    22567043.871
 106477118.525 7  82969265.488 7  20261891.008                    20261898.051
 114545321.327 8  89256151.552 7  21797248.297                    21797258.285
 129543673.359 6 100943211.59643  24651350.633                    24651361.805
 128048333.346 7  99778029.08643  24366769.469                    24366779.875
 114773065.276 7  89433630.41545  21840587.492                    21840596.008
 111732248.148 8  87064204.52146  21261909.969                    21261915.844
 11  8 24  1 31 30.0000000  0  9G12G29G10G05G25G26G04G30G02
 110095675.794 8  85788903.986 7  20950503.273                    20950510.480
 123684006.660 6  96377195.546 6  23536286.039                    23536294.480
 118682510.283 7  92479846.97144  22584459.344                    22584467.656
 106472933.618 7  82966004.543 7  20261094.273                    20261101.344
 114512424.506 8  89230517.662 7  21790988.313                    21790998.074
 129450924.237 6 100870939.70443  24633700.344                    24633711.922
 128126602.436 7  99839017.94843  24381663.836                    24381673.664
 114748906.177 7  89414805.13945  21835989.609                    21835998.234
 111764434.322 8  87089284.67346  21268035.195                    21268040.742
 11  8 24  1 32  0.0000000  0  9G12G29G10G05G25G26G04G30G02
 110129064.457 8  85814921.111 7  20956856.844                    20956864.746
 123600489.586 6  96312117.398 6  23520392.656                    23520401.707
 118774384.991 7  92551437.61644  22601943.133                    22601951.281
 106469322.097 7  82963190.382 8  20260407.313                    20260414.164
 114480085.321 7  89205318.295 7  21784834.289                    21784844.086
 129358064.713 6 100798581.81043  24616031.180                    24616041.059
 128204810.153 6  99899958.95143  24396546.336                    24396556.449
 114725344.537 7  89396445.41946  21831507.156                    21831514.664
 111796724.050 7  87114445.50946  21274179.664                    21274185.254
 11  8 24  1 32 30.0000000  0  9G12G29G10G05G25G26G04G30G02
 110162996.792 8  85841361.879 7  20963314.117                    20963321.457
 123516956.706 6  96247026.932 6  23504496.578                    23504505.543
 118866568.543 7  92623268.92844  22619484.406                    22619493.000
 106466283.291 7  82960822.500 7  20259828.461                    20259836.332
 114448304.627 8  89180554.119 7  21778786.367                    21778796.789
 129265097.594 6 100726140.04243  24598339.320                    24598349.305
 128282956.312 6  99960852.01243  24411416.695                    24411427.402
 114702380.678 7  89378551.49645  21827136.969                    21827144.883
 111829116.791 7  87139686.62346  21280344.109                    21280349.203
 11  8 24  1 33  0.0000000  0  9G12G29G10G05G25G26G04G30G02
 110197470.932 8  85868224.844 7  20969874.516                    20969881.336
 123433409.236 7  96181925.079 6  23488598.375                    23488607.086
 118959057.967 6  92695338.58744  22637084.984                    22637093.121
 106463816.553 7  82958900.388 7  20259359.453                    20259366.953
 114417083.345 8  89156225.848 7  21772845.133                    21772855.277
 129172025.850 6 100653616.74443  24580628.734                    24580638.254
 128361040.404 6 100021696.71943  24426275.891                    24426286.488
 114680015.175 7  89361123.82345  21822880.750                    21822889.156
 111861611.650 7  87165007.30346  21286527.008                    21286532.785
 11  8 24  1 33 30.0000000  0  9G12G29G10G05G25G26G04G30G02
 110232485.811 8  85895509.160 7  20976537.297                    20976544.398
 123349848.915 7  96116813.212 7  23472697.914                    23472706.621
 119051850.668 6  92767644.54144  22654742.516                    22654751.207
 106461921.990 7  82957424.126 7  20258998.594                    20259005.824
 114386422.732 8  89132334.455 7  21767010.875                    21767020.918
 129078852.562 6 100581014.29343  24562897.523                    24562908.035
 128439062.451 6 100082493.08143  24441122.859                    24441133.418
 114658248.597 7  89344162.85245  21818738.195                    21818747.063
 111894208.274 7  87190407.27846  21292730.453                    21292735.809
 11  8 24  1 34  0.0000000  0  9G12G29G10G05G25G26G04G30G02
 110268040.006 8  85923213.717 7  20983303.273                    20983310.449
 123266276.592 7  96051692.005 6  23456794.703                    23456803.445
 119144943.702 7  92840184.53144  22672457.531                    22672466.070
 106460598.869 7  82956393.138 7  20258746.742                    20258754.516
 114356323.617 8  89108880.599 7  21761282.930                    21761293.180
 128985580.604 6 100508334.94643  24545147.695                    24545159.152
 128517022.395 6 100143241.06343  24455958.063                    24455968.777
 114637081.403 7  89327668.92845  21814710.320                    21814718.859
 111926906.461 7  87215886.39246  21298952.336                    21298957.742
 11  8 24  1 34 30.0000000  0  9G12G29G10G05G25G26G04G30G02
 110304131.659 8  85951337.078 7  20990170.992                    20990178.504
 123182693.652 7  95986562.515 6  23440889.570                    23440898.219
 119238333.716 6  92912955.92144  22690229.031                    22690237.637
 106459846.616 7  82955806.996 7  20258603.875                    20258611.000
 114326786.868 8  89085864.941 7  21755662.563                    21755672.578
 128892213.009 6 100435581.07643  24527380.414                    24527391.469
 128594919.676 6 100203940.18043  24470781.453                    24470792.352
 114616513.881 7  89311642.28345  21810796.102                    21810804.836
 111959704.879 7  87241443.59546  21305193.938                    21305199.102
 11  8 24  1 35  0.0000000  0  9G12G29G10G05G25G26G04G30G02
 110340759.393 8  85979878.161 7  20997141.219                    20997148.266
 123099101.596 7  95921425.937 6  23424982.172                    23424990.836
 119332018.377 6  92985956.92444  22708056.594                    22708065.313
 106459664.820 7  82955665.359 7  20258569.180                    20258576.266
 114297813.426 8  89063288.232 7  21750148.938                    21750159.555
 128798752.672 6 100362754.94743  24509595.531                    24509606.656
 128672754.204 6 100264590.41843  24485593.375                    24485603.430
 114596546.485 7  89296083.27045  21806996.742                    21807005.008
 111992603.401 7  87267078.81246  21311453.766                    21311459.617
 11  8 24  1 35 30.0000000  0  9G12G29G10G05G25G26G04G30G02
 110377922.111 8  86008836.114 7  21004213.039                    21004220.078
 123015501.771 7  95856283.305 6  23409072.773                    23409081.539
 119425994.915 6  93059185.36144  22725939.766                    22725948.957
 106460052.938 7  82955967.818 7  20258643.086                    20258649.895
 114269404.226 8  89041151.191 7  21744742.961                    21744752.969
 128705202.844 6 100289859.08743  24491794.047                    24491805.359
 128750525.923 6 100325191.69743  24500392.578                    24500402.852
 114577179.722 8  89280992.28645  21803311.102                    21803319.707
 112025602.118 7  87292792.09546  21317734.016                    21317739.426
 11  8 24  1 36  0.0000000  0  9G12G29G10G05G25G26G04G30G02
 110415617.828 8  86038209.403 7  21011386.164                    21011393.426
 122931895.362 6  95791135.540 6  23393163.664                    23393171.410
 119520260.058 6  93132638.67644  22743877.938                    22743886.816
 106461010.280 7  82956713.820 7  20258825.211                    20258832.262
 114241560.107 8  89019454.476 7  21739444.844                    21739454.648
 128611566.355 6 100216895.62143  24473975.797                    24473987.277
 128828234.329 6 100385743.68243  24515180.117                    24515190.391
 114558413.841 7  89266369.52245  21799740.250                    21799748.211
 112058700.041 7  87318582.68546  21324032.195                    21324037.266
 11  8 24  1 36 30.0000000  0  9G12G29G10G05G25G26G04G30G02
 110453844.721 8  86067996.580 7  21018660.656                    21018667.992
 122848283.703 6  95725983.670 6  23377252.500                    23377260.438
 119614810.870 6  93206314.60244  22761870.617                    22761879.422
 106462535.901 7  82957902.649 7  20259115.820                    20259122.992
 114214281.537 8  88998198.451 7  21734253.320                    21734263.473
 128517846.005 5 100143866.90442  24456140.242                    24456153.039
 128905879.231 6 100446246.15643  24529956.016                    24529966.008
 114540248.768 8  89252214.92145  21796283.641                    21796291.336
 112091896.314 8  87344449.89846  21330348.914                    21330354.621
 11  8 24  1 37  0.0000000  0  9G12G29G10G05G25G26G04G30G02
 110492601.518 8  86098196.665 7  21026035.820                    21026043.359
 122764668.169 6  95660828.779 6  23361341.180                    23361348.809
 119709644.441 7  93280210.83744  22779916.648                    22779925.156
 106464629.223 7  82959533.845 7  20259513.641                    20259520.879
 114187569.518 8  88977383.905 7  21729170.500                    21729180.582
 128424044.885 6 100070775.21342  24438290.734                    24438302.203
 128983460.507 6 100506699.05643  24544719.156                    24544729.121
 114522685.073 8  89238528.93745  21792941.289                    21792949.137
 112125190.489 8  87370393.39246  21336684.656                    21336690.273
 11  8 24  1 37 30.0000000  0  9G12G29G10G05G25G26G04G30G02
 110531886.591 8  86128808.396 7  21033511.789                    21033518.855
 122681050.242 6  95595671.987 6  23345428.750                    23345437.203
 119804757.955 7  93354325.24244  22798016.195                    22798024.840
 106467290.116 7  82961607.302 7  20260020.289                    20260027.359
 114161425.018 8  88957011.576 7  21724195.148                    21724205.387
 128330166.194 6  99997623.17342  24420427.000                    24420437.410
 129060978.179 6 100567102.40843  24559469.828                    24559479.980
 114505723.109 8  89225311.82845  21789713.523                    21789721.629
 112158582.256 7  87396412.93646  21343039.016                    21343044.523
 11  8 24  1 38  0.0000000  0  9G12G29G10G05G25G26G04G30G02
 110571697.955 8  86159830.235 7  21041087.547                    21041094.785
 122597431.186 6  95530514.299 6  23329517.133                    23329524.980
 119900148.279 7  93428655.31244  22816168.438                    22816177.195
 106470517.483 7  82964122.161 7  20260634.391                    20260641.508
 114135848.482 8  88937081.819 7  21719328.273                    21719338.137
 128236212.980 6  99924413.01342  24402546.922                    24402558.805
 129138431.878 6 100627455.93942  24574208.672                    24574219.535
 114489362.804 8  89212563.54745  21786600.930                    21786608.473
 112192070.904 8  87422507.98446  21349411.609                    21349417.270
 11  8 24  1 38 30.0000000  0  9G12G29G10G05G25G26G04G30G02
 110612033.964 8  86191260.883 7  21048763.352                    21048770.199
 122513812.448 6  95465356.872 6  23313605.063                    23313613.250
 119995812.655 7  93503198.95244  22834373.070                    22834381.598
 106474310.429 7  82967077.740 7  20261356.117                    20261363.188
 114110840.632 8  88917595.197 7  21714569.219                    21714579.285
 128142188.063 6  99851146.88843  24384655.359                    24384666.840
 129215821.322 6 100687759.39743  24588935.289                    24588946.094
 114473604.381 8  89200284.26845  21783601.719                    21783609.801
 112225655.881 7  87448678.08546  21355802.617                    21355808.195
 11  8 24  1 39  0.0000000  0  9G12G29G10G05G25G26G04G30G02
 110652893.176 8  86223099.222 7  21056538.711                    21056545.570
 122430195.311 6  95400200.689 6  23297692.539                    23297702.043
 120091748.250 7  93577953.93244  22852629.102                    22852637.871
 106478668.293 7  82970473.510 7  20262185.250                    20262192.070
 114086402.089 8  88898552.184 7  21709918.758                    21709928.629
 128048094.495 6  99777827.39042  24366749.297                    24366760.863
 129293146.508 6 100748012.77143  24603650.391                    24603660.059
 114458447.953 8  89188474.05245  21780717.313                    21780725.320
 112259336.844 7  87474922.99346  21362212.125                    21362217.527
 11  8 24  1 39 30.0000000  0  9G12G29G10G05G25G26G04G30G02
 110694273.663 8  86255343.739 7  21064413.156                    21064419.738
 122346581.380 7  95335047.006 6  23281781.742                    23281789.949
 120187952.081 7  93652917.92244  22870935.891                    22870944.441
 106483590.233 7  82974308.812 7  20263121.336                    20263129.203
 114062533.555 8  88879953.345 7  21705376.578                    21705386.742
 127953935.469 6  99704456.82443  24348831.734                    24348842.750
 129370406.979 6 100808215.71743  24618352.508                    24618362.137
 114443893.672 8  89177133.05945  21777948.422                    21777956.063
 112293113.160 7  87501242.19246  21368639.195                    21368644.848
 11  8 24  1 40  0.0000000  0  9G12G29G10G05G25G26G04G30G02
 110736173.710 8  86287993.125 7  21072386.156                    21072393.297
 122262971.971 7  95269896.852 6  23265871.141                    23265879.727
 120284421.470 7  93728088.84944  22889293.242                    22889301.508
 106489075.532 7  82978583.101 7  20264165.336                    20264172.863
 114039235.789 8  88861799.265 7  21700943.211                    21700953.430
 127859714.049 6  99631037.65843  24330902.258                    24330912.781
 129447602.636 7 100868368.21143  24633042.336                    24633052.387
 114429941.710 8  89166261.41945  21775293.406                    21775301.129
 112326984.683 7  87527635.57946  21375084.906                    21375090.320
 11  8 24  1 40 30.0000000  0  9G12G29G10G05G25G26G04G30G02
 110778591.419 8  86321045.876 7  21080458.086                    21080465.289
 122179368.549 7  95204751.374 6  23249962.516                    23249970.320
 120381153.018 7  93803464.06844  22907700.891                    22907709.176
 106495123.091 7  82983295.513 7  20265316.938                    20265323.578
 114016509.139 8  88844090.206 7  21696618.039                    21696628.457
 127765433.288 6  99557572.24543  24312961.484                    24312971.980
 129524733.331 6 100928470.02643  24647719.445                    24647730.129
 114416591.877 8  89155858.95845  21772752.617                    21772760.766
 112360950.496 7  87554102.43146  21381548.172                    21381553.816
 11  8 24  1 41  0.0000000  0  9G12G29G10G05G25G26G04G30G02
 110821525.323 8  86354500.861 7  21088627.945                    21088635.160
 122095772.543 7  95139611.651 6  23234054.234                    23234062.391
 120478144.322 7  93879041.69243  22926156.930                    22926166.172
 106501732.645 7  82988445.846 7  20266574.195                    20266581.336
 113994354.412 8  88826826.806 7  21692402.516                    21692412.785
 127671096.276 7  99484063.02343  24295009.555                    24295020.535
 129601799.219 7 100988521.35543  24662385.086                    24662395.215
 114403844.510 8  89145925.95945  21770327.000                    21770334.633
 112395010.376 8  87580642.59446  21388029.625                    21388035.160
 11  8 24  1 41 30.0000000  0  9G12G29G10G05G25G26G04G30G02
 110864974.377 8  86388357.258 7  21096896.305                    21096903.277
 122012186.166 7  95074479.467 6  23218148.148                    23218156.637
 120575392.948 6  93954819.82843  22944663.289                    22944671.203
 106508903.594 7  82994033.616 7  20267939.000                    20267946.055
 113972772.683 8  88810009.890 7  21688295.742                    21688305.891
 127576706.703 6  99410512.89842  24277047.352                    24277057.977
 129678800.445 6 101048522.27643  24677038.117                    24677048.410
 114391700.060 8  89136462.76645  21768015.805                    21768023.863
 112429164.599 7  87607256.27046  21394529.047                    21394534.707
 11  8 24  1 42  0.0000000  0  8G12G29G10G05G25G26G30G02
 110908935.844 8  86422612.932 7  21105261.633                    21105268.992
 121928610.458 7  95009355.590 6  23202243.844                    23202252.922
 120672896.039 6  94030796.26943  22963217.867                    22963225.945
 106516635.175 7  83000058.250 7  20269409.938                    20269417.156
 113951764.493 8  88793639.888 7  21684298.070                    21684308.113
 127482267.722 6  99336924.18443  24259075.281                    24259087.070
 114380158.532 8  89127469.37845  21765819.758                    21765827.449
 112463412.660 8  87633943.07446  21401046.211                    21401051.652
 11  8 24  1 42 30.0000000  0  8G12G29G10G05G25G26G30G02
 110953407.771 8  86457266.367 7  21113724.422                    21113731.461
 121845046.550 7  94944240.906 7  23186342.461                    23186351.285
 120770650.133 7  94106968.27044  22981819.281                    22981827.934
 106524925.692 7  83006518.414 7  20270987.703                    20270994.762
 113931329.823 8  88777716.791 7  21680409.461                    21680419.613
 127387782.015 6  99263299.11742  24241095.461                    24241105.813
 114369219.459 8  89118945.45045  21763737.914                    21763745.496
 112497753.473 8  87660702.15146  21407581.102                    21407587.023
 11  8 24  1 43  0.0000000  0  8G12G29G10G05G25G26G30G02
 110998388.279 8  86492316.101 7  21122283.695                    21122290.887
 121761496.372 7  94879136.917 7  23170443.875                    23170451.832
 120868652.324 6  94183333.59543  23000469.203                    23000477.531
 106533774.322 7  83013413.449 7  20272671.555                    20272678.469
 113911469.124 8  88762240.951 7  21676630.227                    21676640.285
 127293252.533 6  99189639.90043  24223107.055                    24223118.410
 114358882.624 8  89110890.80145  21761771.000                    21761778.738
 112532186.723 8  87687533.26046  21414133.211                    21414139.039
 11  8 24  1 43 30.0000000  0  8G12G29G10G05G25G26G30G02
 111043875.706 8  86527760.831 7  21130939.719                    21130947.066
 121677960.947 7  94814044.446 7  23154546.750                    23154555.707
 120966899.867 7  94259890.08544  23019164.727                    23019173.227
 106543180.117 7  83020742.661 7  20274461.531                    20274468.082
 113892182.981 8  88747212.797 7  21672960.102                    21672969.852
 127198682.487 6  99115949.10742  24205110.320                    24205121.488
 114349148.036 8  89103305.40745  21759918.617                    21759926.215
 112566712.043 8  87714436.11946  21420703.359                    21420708.965
 11  8 24  1 44  0.0000000  0  8G12G29G10G05G25G26G30G02
 111089868.094 8  86563599.045 7  21139692.273                    21139699.297
 121594441.807 7  94748964.645 6  23138654.102                    23138662.438
 121065389.776 6  94336635.43544  23037907.039                    23037915.277
 106553142.192 7  83028505.330 7  20276357.008                    20276363.984
 113873471.580 8  88732632.500 7  21669399.656                    21669409.480
 127104075.301 6  99042229.34142  24187106.797                    24187117.344
 114340015.401 8  89096189.08245  21758180.625                    21758188.637
 112601328.683 8  87741410.12746  21427290.898                    21427296.363
 11  8 24  1 44 30.0000000  0  8G12G29G10G05G25G26G30G02
 111136363.326 8  86599829.075 7  21148539.766                    21148547.176
 121510940.628 7  94683898.857 6  23122763.766                    23122772.480
 121164119.039 7  94413567.30444  23056694.781                    23056703.164
 106563659.385 7  83036700.548 7  20278358.539                    20278365.359
 113855335.533 8  88718500.535 7  21665948.102                    21665958.406
 127009433.872 5  98968482.91642  24169097.641                    24169107.648
 114331484.732 8  89089541.82245  21756557.109                    21756565.367
 112636036.471 7  87768455.16146  21433895.492                    21433901.246
 11  8 24  1 45  0.0000000  0  8G12G29G10G05G25G26G30G02
 111183359.629 8  86636449.555 7  21157482.836                    21157490.039
 121427458.929 7  94618848.221 6  23106878.102                    23106886.277
 121263084.826 7  94490683.48444  23075527.039                    23075535.633
 106574730.742 7  83045327.589 7  20280465.383                    20280472.141
 113837775.191 8  88704817.171 7  21662606.203                    21662616.688
 126914761.452 5  98894712.31342  24151082.172                    24151092.129
 114323555.845 8  89083363.47645  21755048.508                    21755056.227
 112670834.943 7  87795570.87246  21440517.172                    21440522.926
 11  8 24  1 45 30.0000000  0  8G12G29G10G05G25G26G30G02
 111230855.292 8  86673459.142 7  21166521.070                    21166528.191
 121343998.023 7  94553813.807 6  23090995.781                    23091004.129
 121362284.703 7  94567982.05444  23094404.188                    23094413.258
 106586355.387 8  83054385.771 7  20282677.328                    20282684.055
 113820790.912 8  88691582.673 8  21659374.633                    21659384.984
 126820061.363 6  98820920.21442  24133060.875                    24133071.559
 114316228.483 8  89077653.85945  21753654.250                    21753662.016
 112705723.935 7  87822757.11946  21447156.172                    21447162.035
 11  8 24  1 46  0.0000000  0  8G12G29G10G05G25G26G30G02
 111278847.722 8  86710855.829 7  21175653.969                    21175660.762
 121260559.876 7  94488797.109 6  23075118.227                    23075126.332
 121461715.276 7  94645460.39144  23113324.906                    23113333.578
 106598531.955 7  83063874.010 7  20284994.398                    20285001.082
 113804382.912 8  88678797.223 7  21656252.141                    21656262.359
 126725336.459 6  98747108.66243  24115036.133                    24115046.527
 114309502.329 8  89072412.70645  21752374.117                    21752381.871
 112740702.675 7  87850013.29646  21453812.570                    21453817.965
 11  8 24  1 46 30.0000000  0  8G12G29G10G05G25G26G30G02
 111327334.716 8  86748637.877 7  21184880.133                    21184887.363
 121177145.353 7  94423798.825 6  23059245.531                    23059253.648
 121561373.529 6  94723116.15544  23132289.523                    23132298.555
 106611259.050 8  83073791.231 7  20287416.172                    20287423.051
 113788551.117 8  88666460.769 7  21653239.422                    21653249.559
 126630590.002 6  98673280.33743  24097007.195                    24097016.602
 114303376.725 8  89067639.50945  21751208.641                    21751216.488
 112775770.772 7  87877339.10646  21460486.219                    21460491.434
 11  8 24  1 47  0.0000000  0  8G12G29G10G05G25G26G30G02
 111376314.467 8  86786803.897 7  21194201.227                    21194208.570
 121093756.261 7  94358820.357 6  23043376.578                    23043384.887
 121661256.978 6  94800947.34344  23151296.500                    23151305.371
 106624535.973 8  83084136.897 8  20289942.820                    20289949.910
 113773296.229 8  88654573.851 7  21650336.273                    21650346.344
 126535825.324 7  98599437.87343  24078974.063                    24078984.383
 114297851.805 8  89063334.38745  21750157.133                    21750164.859
 112810928.042 8  87904734.39345  21467176.148                    21467181.980
 11  8 24  1 47 30.0000000  0  8G12G29G10G05G25G26G30G02
 111425784.860 8  86825352.243 7  21203614.969                    21203621.605
 121010394.006 7  94293862.797 7  23027512.813                    23027521.629
 121761362.512 7  94878951.61644  23170346.273                    23170354.742
 106638360.900 8  83094909.585 7  20292573.508                    20292580.293
 113758618.107 8  88643136.358 7  21647543.422                    21647553.703
 126441045.359 6  98525583.41142  24060936.797                    24060947.676
 114292926.911 8  89059496.80445  21749220.305                    21749227.723
 112846173.519 7  87932198.41146  21473883.109                    21473888.738
 11  8 24  1 48  0.0000000  0  8G12G29G10G05G25G26G30G02
 111475744.260 8  86864281.631 7  21213121.547                    21213129.133
 120927060.590 7  94228927.718 6  23011655.258                    23011663.723
 121861687.395 7  94957126.81843  23189437.305                    23189445.559
 106652733.521 8  83106109.031 8  20295308.500                    20295315.254
 113744517.401 8  88632148.799 7  21644860.086                    21644869.953
 126346253.897 6  98451720.09543  24042899.641                    24042909.512
 114288602.018 8  89056126.76445  21748397.180                    21748404.668
 112881507.597 7  87959731.46346  21480606.828                    21480612.262
 11  8 24  1 48 30.0000000  0  8G12G29G10G05G25G26G30G02
 111526191.067 8  86903590.819 7  21222721.625                    21222728.867
 120843757.992 7  94164016.626 6  22995803.141                    22995811.965
 121962229.291 7  95035471.14643  23208570.000                    23208578.195
 106667652.924 8  83117734.548 8  20298147.430                    20298154.848
 113730994.663 8  88621611.605 7  21642286.477                    21642296.859
 126251454.254 6  98377850.24742  24024859.500                    24024868.754
 114284877.106 8  89053224.23345  21747687.820                    21747695.875
 112916930.182 8  87987333.48446  21487347.555                    21487353.367
 11  8 24  1 49  0.0000000  0  8G12G29G10G05G25G26G30G02
 111577122.324 8  86943277.499 7  21232413.648                    21232420.887
 120760487.847 7  94099130.831 7  22979957.281                    22979965.664
 122062985.224 7  95113982.24243  23227743.539                    23227751.871
 106683117.918 8  83129785.208 8  20301090.609                    20301097.652
 113718049.907 8  88611524.784 7  21639823.508                    21639833.676
 126156649.673 6  98303976.70242  24006818.180                    24006829.008
 114281751.694 7  89050788.84145  21747093.281                    21747101.141
 112952440.886 8  88015004.17245  21494104.781                    21494110.570
 11  8 24  1 49 30.0000000  0  8G12G29G10G05G25G26G30G02
 111628536.407 8  86983340.407 7  21242197.352                    21242204.688
 120677251.451 7  94034271.314 7  22964118.320                    22964126.422
 122163952.208 7  95192657.81943  23246957.164                    23246965.133
 106699126.833 8  83142259.701 8  20304137.109                    20304143.809
 113705683.201 8  88601888.399 7  21637469.875                    21637480.156
 126061843.363 5  98230101.77342  23988775.695                    23988787.672
 114279225.231 8  89048820.17145  21746612.750                    21746620.363
 112988039.305 8  88042743.19445  21500879.109                    21500884.348
 11  8 24  1 50  0.0000000  0  8G12G29G10G05G25G26G30G02
 111680430.849 8  87023777.633 7  21252072.648                    21252079.559
 120594050.496 7  93969439.410 7  22948286.141                    22948293.980
 122265127.421 7  95271495.66743  23266209.766                    23266217.844
 106715678.519 8  83155157.126 8  20307286.703                    20307293.719
 113693894.584 8  88592702.463 7  21635226.938                    21635236.957
 125967038.625 5  98156227.94042  23970735.742                    23970747.215
 114277297.094 7  89047317.72545  21746245.797                    21746253.539
 113023724.914 8  88070550.16546  21507669.945                    21507675.582
 11  8 24  1 50 30.0000000  0  8G12G29G10G05G25G26G30G02
 111732803.645 8  87064587.602 7  21262038.750                    21262045.883
 120510886.500 7  93904636.298 6  22932460.180                    22932468.449
 122366508.132 7  95350493.62843  23285502.016                    23285510.438
 106732771.935 8  83168476.690 8  20310539.398                    20310546.473
 113682684.306 8  88583967.188 7  21633093.727                    21633103.703
 125872238.883 5  98082358.13142  23952695.922                    23952707.953
 114275967.024 8  89046281.31545  21745992.688                    21746000.480
 113059497.619 8  88098425.00146  21514477.250                    21514483.219
 11  8 24  1 51  0.0000000  0  8G12G29G10G05G25G26G30G02
 111785652.518 7  87105768.533 7  21272095.172                    21272102.699
 120427760.991 7  93839863.186 7  22916641.602                    22916649.711
 122468091.271 7  95429649.28144  23304832.383                    23304841.258
 106750405.130 8  83182216.853 8  20313895.063                    20313901.754
 113672052.143 8  88575682.404 7  21631070.266                    21631080.504
 125777447.091 5                  23934657.430
 114275234.247 7  89045710.32045  21745852.867                    21745861.129
 113095356.764 7  88126367.18746  21521301.281                    21521306.324
 11  8 24  1 51 30.0000000  0  8G12G29G10G05G25G26G30G02
 111838975.576 8  87147318.947 7  21282242.516                    21282249.723
 120344675.772 7  93775121.465 6  22900830.734                    22900839.070
 122569874.125 7  95508960.58644  23324201.039                    23324210.199
 106768577.092 8  83196376.843 8  20317352.977                    20317359.844
 113661998.243 8  88567848.208 7  21629157.289                    21629167.059
 125682666.622 5                  23916621.047
 114275098.264 7  89045604.36845  21745827.078                    21745835.207
 113131302.100 8  88154376.53045  21528141.188                    21528146.770
 11  8 24  1 52  0.0000000  0  7G12G29G10G05G25G30G02
 111892769.674 7  87189236.411 7  21292479.398                    21292486.379
 120261632.223 7  93710412.213 6  22885028.211                    22885036.609
 122671853.904 7  95588425.29643  23343607.250                    23343615.551
 106787286.479 8  83210955.598 8  20320913.211                    20320920.137
 113652522.327 8  88560464.383 7  21627353.906                    21627363.945
 114275558.217 7  89045962.77745  21745914.859                    21745923.211
 113167333.041 8  88182452.58045  21534997.570                    21535003.285
 11  8 24  1 52 30.0000000  0  8G12G29G10G05G25G26G30G02
 111947033.400 8  87231519.827 7  21302805.250                    21302812.609
 120178632.782 7  93645737.331 7  22869233.898                    22869242.516
 122774027.900 7  95668041.36743  23363050.336                    23363058.730
 106806532.533 8  83225952.539 8  20324575.563                    20324582.684
 113643625.008 7  88553531.426 7  21625660.750                    21625671.074
 125493154.79015                  23880556.898
 114276614.117 8  89046785.56645  21746115.844                    21746123.871
 113203450.253 8  88210595.85745  21541870.414                    21541876.090
 11  8 24  1 53  0.0000000  0  8G12G29G10G05G25G26G30G02
 112001764.277 8  87274167.244 7  21313220.156                    21313227.656
 120095678.540 7  93581097.672 7  22853448.742                    22853456.824
 122876393.144 7  95747806.44443  23382529.922                    23382538.359
 106826313.189 8  83241366.048 8  20328339.695                    20328346.594
 113635305.844 8  88547048.965 7  21624077.508                    21624087.719
 125398428.452 5  97713120.24952  23862532.180                    23862542.621
 114278264.917 8  89048071.91645  21746430.102                    21746437.398
 113239652.585 8  88238805.45946  21548759.430                    21548764.895
 11  8 24  1 53 30.0000000  0  8G12G29G10G05G25G26G30G02
 112056960.215 8  87317177.046 7  21323723.648                    21323730.867
 120012771.300 7  93516494.653 7  22837671.734                    22837679.902
 122978946.785 7  95827718.35144  23402044.289                    23402053.781
 106846627.385 8  83257195.307 8  20332205.352                    20332212.250
 113627564.886 8  88541017.055 7  21622604.922                    21622614.840
 125303726.740 6  97639326.84642  23844511.938                    23844522.273
 114280510.152 8  89049821.46145  21746857.281                    21746865.184
 113275940.352 8  88267081.63845  21555664.961                    21555670.445
 11  8 24  1 54  0.0000000  0  8G12G29G10G05G25G26G30G02
 112112618.507 8  87360547.119 7  21334315.266                    21334322.215
 119929912.407 7  93451929.326 7  22821903.859                    22821912.523
 123081685.840 7  95907774.70644  23421595.523                    23421604.996
 106867473.129 8  83273438.760 8  20336172.141                    20336179.242
 113620401.665 8  88535435.336 7  21621241.313                    21621251.469
 125209052.875 6  97565555.11843  23826496.078                    23826505.316
 114283348.643 8  89052033.29045  21747397.109                    21747405.461
 113312312.666 8  88295423.69845  21562586.281                    21562591.734
 11  8 24  1 54 30.0000000  0  8G12G29G10G05G25G26G30G02
 112168736.693 7  87404275.568 7  21344993.992                    21345001.609
 119847104.052 7  93387403.370 6  22806145.875                    22806154.207
 123184607.643 7  95987973.48344  23441180.992                    23441189.715
 106888849.369 8  83290095.581 8  20340239.766                    20340246.719
 113613816.258 8  88530303.849 7  21619988.211                    21619998.352
 125114410.237 6  97491807.73043  23808486.484                    23808495.801
 114286779.975 8  89054707.05745  21748050.328                    21748058.109
 113348769.334 7  88323831.48145  21569523.656                    21569529.586
 11  8 24  1 55  0.0000000  0  8G12G29G10G05G25G26G30G02
 112225313.069 7  87448361.049 7  21355760.008                    21355767.344
 119764347.931 7  93322918.115 6  22790397.461                    22790406.832
 123287710.043 7  96068312.99343  23460800.516                    23460809.656
 106910755.123 8  83307165.014 8  20344408.125                    20344415.438
 113607808.852 8  88525622.758 7  21618845.000                    21618855.316
 125019802.402 6  97418087.47243  23790482.344                    23790492.258
 114290803.727 8  89057842.44645  21748815.742                    21748823.836
 113385310.718 8  88352305.27845  21576477.438                    21576483.141
 11  8 24  1 55 30.0000000  0  8G12G29G10G05G25G26G30G02
 112282345.048 7  87492801.531 7  21366612.852                    21366620.480
 119681645.627 7  93258474.795 7  22774660.070                    22774668.734
 123390989.952 7  96148790.81144  23480453.922                    23480463.520
 106933188.571 8  83324645.636 8  20348677.320                    20348684.230
 113602379.001 8  88521391.707 7  21617812.008                    21617822.066
 124925232.844 5  97344396.97042  23772485.445                    23772495.270
 114295418.778 7  89061438.59545  21749693.883                    21749701.855
 113421936.416 7  88380844.77646  21583447.156                    21583452.500
 11  8 24  1 56  0.0000000  0  8G12G29G10G05G25G26G30G02
 112339830.732 7  87537595.559 7  21377552.258                    21377559.621
 119598999.392 7  93194075.172 6  22758932.820                    22758941.707
 123494444.382 7  96229404.64843  23500140.688                    23500149.586
 106956148.316 8  83342536.359 8  20353046.539                    20353053.434
 113597526.783 8  88517610.763 7  21616888.555                    21616898.594
 124830705.117 5  97270739.13942  23754497.242                    23754507.984
 114300624.663 8  89065495.14345  21750684.422                    21750692.488
 113458646.156 7  88409449.76846  21590432.516                    21590438.230
 11  8 24  1 56 30.0000000  0  8G12G29G10G05G25G26G30G02
 112397767.370 7  87582740.973 7  21388576.969                    21388584.473
 119516410.759 7  93129720.435 6  22743216.813                    22743225.371
 123598070.947 7  96310152.59943  23519860.758                    23519869.246
 106979633.030 8  83360836.150 8  20357515.281                    20357522.418
 113593251.932 8  88514279.714 7  21616075.180                    21616085.098
 124736222.478 5  97197116.33742  23736516.789                    23736528.570
 114306420.495 8  89070011.37745  21751787.625                    21751795.098
 113495439.877 8  88438120.19645  21597434.367                    21597439.984
 11  8 24  1 57  0.0000000  0  9G12G29G10G05G25G26G15G30G02
 112456152.753 7  87628236.066 7  21399687.328                    21399694.809
 119433881.284 7  93065411.807 7  22727512.219                    22727520.137
 123701866.636 7  96391032.32543  23539612.055                    23539620.633
 107003640.858 8  83379543.563 8  20362084.016                    20362090.652
 113589554.147 7  88511398.326 7  21615371.656                    21615380.824
 124641788.30015                  23718545.742
 129402689.13416 100833213.99816  24624496.039                    24624506.680
 114312805.425 8  89074986.65645  21753002.508                    21753010.500
 113532317.085 8  88466855.68545  21604451.609                    21604456.996
 11  8 24  1 57 30.0000000  0  9G12G29G10G05G25G26G15G30G02
 112514984.405 7  87674078.890 7  21410882.922                    21410890.520
 119351412.848 7  93001150.746 7  22711819.266                    22711827.410
 123805829.046 7  96472041.96943  23559395.539                    23559404.578
 107028170.334 8  83398657.448 8  20366751.445                    20366758.938
 113586433.050 7  88508966.296 7  21614777.672                    21614787.590
 124547406.39114                  23700584.508
 129309932.633 6 100760936.351 6  24606845.617                    24606856.102
 114319778.418 8  89080420.14645  21754329.180                    21754337.203
 113569277.692 8  88495656.15045  21611484.797                    21611490.168
 11  8 24  1 58  0.0000000  0  8G12G29G10G05G25G15G30G02
 112574259.800 7  87720267.487 7  21422162.555                    21422170.297
 119269007.609 7  92936938.927 7  22696137.953                    22696145.648
 123909955.030 6  96553179.07043  23579210.766                    23579219.051
 107053219.937 8  83418176.636 8  20371518.313                    20371525.715
 113583888.433 8  88506983.483 7  21614293.711                    21614303.391
 129217042.812 6 100688554.794 5  24589169.063                    24589178.945
 114327338.689 8  89086311.25745  21755768.211                    21755776.191
 113606321.380 7  88524521.35245  21618534.688                    21618539.922
 11  8 24  1 58 30.0000000  0  9G12G29G10G05G25G26G15G30G02
 112633976.837 7  87766800.223 7  21433526.414                    21433533.652
 119186666.799 7  92872777.308 6  22680468.984                    22680477.129
 124014242.037 6  96634441.62743  23599055.969                    23599064.508
 107078788.315 8  83438100.053 8  20376383.906                    20376391.426
 113581920.067 8  88505449.696 7  21613918.617                    21613928.645
 124358812.62915                  23664695.305
 129124022.357 6 100616071.413 5  24571466.781                    24571476.930
 114335485.419 8  89092659.36245  21757318.461                    21757326.941
 113643448.328 7  88553451.43645  21625599.563                    21625605.105
 11  8 24  1 59  0.0000000  0  9G12G29G10G05G25G26G15G30G02
 112694132.909 7  87813675.058 7  21444973.664                    21444981.016
 119104392.578 7  92808667.565 7  22664812.898                    22664820.320
 124118687.574 6  96715827.74743  23618930.570                    23618939.934
 107104874.046 8  83458426.605 8  20381347.898                    20381354.809
 113580527.643 8  88504364.682 7  21613654.008                    21613663.797
 124264606.87315                  23646773.031
 129030873.573 6 100543488.075 6  24553741.891                    24553751.418
 114344217.694 7  89099463.73145  21758979.852                    21758987.961
 113680658.193 7  88582446.13345  21632680.242                    21632685.492
 11  8 24  1 59 30.0000000  0  9G12G29G10G05G25G26G15G30G02
 112754725.100 7  87860889.741 7  21456504.117                    21456511.375
 119022186.248 7  92744610.721 7  22649168.883                    22649177.246
 124223288.416 6  96797334.89643  23638835.328                    23638844.629
 107131474.914 8  83479154.568 8  20386410.211                    20386417.023
 113579710.262 8  88503727.750 7  21613498.516                    21613508.137
 124170466.339 6                  23628858.234
 128937598.529 5 100470806.368 6  24535991.789                    24536001.441
 114353534.002 8  89106723.17945  21760753.039                    21760761.191
 113717950.279 8  88611504.90145  21639776.695                    21639782.070
 11  8 24  2  0  0.0000000  0  9G12G29G10G05G25G26G15G30G02
 112815751.181 7  87908442.517 7  21468117.180                    21468124.340
 118940049.957 7  92680608.448 7  22633539.375                    22633547.027
 124328041.750 6  96878960.83943  23658769.023                    23658778.098
 107158589.215 8  83500282.605 8  20391569.664                    20391576.605
 113579467.722 8  88503538.761 7  21613452.516                    21613462.031
 124076394.605 6  96682953.81152  23610956.633                    23610965.148
 128844199.708 6 100398028.194 6  24518217.734                    24518228.672
 114363433.506 7  89114437.07545  21762636.625                    21762644.957
 113755324.879 7  88640627.97645  21646888.891                    21646894.285
 11  8 24  2  0 30.0000000  0  9G12G29G10G05G25G26G15G30G02
 112877208.359 7  87956331.218 7  21479811.609                    21479818.781
 118857985.465 7  92616662.128 7  22617922.734                    22617930.824
 124432944.886 6  96960703.50143  23678731.742                    23678740.477
 107186215.161 8  83521809.323 8  20396826.586                    20396833.535
 113579799.441 8  88503797.242 7  21613515.398                    21613525.496
 123982395.168 6  96609707.50042  23593069.391                    23593078.438
 128750679.487 5 100325155.415 6  24500422.352                    24500432.125
 114373915.061 7  89122604.52045  21764631.461                    21764639.266
 113792781.465 7  88669814.93245  21654016.594                    21654022.105
 11  8 24  2  1  0.0000000  0  9G12G29G10G05G25G26G15G30G02
 112939094.500 7  88004554.171 7  21491588.297                    21491595.898
 118775994.609 7  92552773.178 7  22602320.516                    22602328.434
 124537995.441 7  97042561.03243  23698722.727                    23698730.969
 107214351.453 8  83543733.706 8  20402180.594                    20402187.902
 113580705.208 8  88504503.029 7  21613687.555                    21613698.012
 123888471.576 6  96536520.46942  23575195.984                    23575204.777
 128657041.032 5 100252190.559 6  24482602.969                    24482613.359
 114384977.795 8  89131224.82245  21766736.742                    21766744.629
 113830320.137 8  88699065.85545  21661160.109                    21661165.551
 11  8 24  2  1 30.0000000  0  9G12G29G10G05G25G26G15G30G02
 113001407.304 7  88053109.589 7  21503446.063                    21503453.785
 118694079.376 7  92488943.159 7  22586732.289                    22586740.438
 124643190.876 7  97124531.49243  23718740.516                    23718748.996
 107242996.619 8  83566054.623 8  20407631.930                    20407638.734
 113582184.588 8  88505655.776 7  21613969.086                    21613979.434
 123794627.528 5  96463395.30942  23557338.336                    23557347.184
 128563286.583 6 100179135.282 6  24464762.531                    24464773.219
 114396620.765 8  89140297.26245  21768951.773                    21768960.016
 113867940.971 8  88728380.80745  21668319.328                    21668324.465
 11  8 24  2  2  0.0000000  0  9G12G29G10G05G25G26G15G30G02
 113064144.240 7  88101995.494 7  21515384.484                    21515392.152
 118612241.885 7  92425173.723 7  22571159.031                    22571167.148
 124748528.530 6  97206612.75143  23738785.492                    23738794.500
 107272149.057 8  83588770.814 8  20413179.203                    20413186.012
 113584237.149 8  88507255.172 7  21614359.680                    21614369.559
 123700866.680 5                  23539494.414
 128469418.918 6 100105991.808 6  24446900.141                    24446910.688
 114408842.884 8  89149820.99145  21771277.781                    21771286.105
 113905643.600 8  88757759.49245  21675493.336                    21675498.301
 11  8 24  2  2 30.0000000  0  9G12G29G10G05G25G26G15G30G02
 113127302.915 7  88151210.025 7  21527403.305                    21527410.977
 118530483.560 7  92361465.973 7  22555601.133                    22555609.523
 124854005.546 6  97288802.62143  23758857.313                    23758866.406
 107301806.761 8  83611880.719 8  20418822.945                    20418830.414
 113586862.336 8  88509300.755 7  21614859.258                    21614869.168
 123607192.308 5                  23521668.180
 128375440.462 6 100032762.008 6  24429015.625                    24429026.879
 114421642.927 8  89159795.05045  21773713.484                    21773721.922
 113943428.094 8  88787201.95245  21682683.703                    21682689.227
 11  8 24  2  3  0.0000000  0  9G12G29G10G05G25G26G15G30G02
 113190880.312 7  88200750.836 7  21539501.742                    21539509.277
 118448806.711 7  92297821.732 7  22540058.664                    22540066.504
 124959619.395 6  97371099.10743  23778954.813                    23778963.477
 107331968.176 8  83635383.128 8  20424562.453                    20424569.410
 113590059.611 8  88511792.135 7  21615467.586                    21615477.605
 123513607.924 5                  23503859.633
 128281353.560 6  99959447.649 6  24411111.930                    24411122.523
 114435019.877 8  89170218.64145  21776259.156                    21776267.730
 113981294.305 8  88816708.10245  21689889.477                    21689895.238
 11  8 24  2  3 30.0000000  0  9G12G29G10G05G25G26G15G30G02
 113254873.672 7  88250615.767 7  21551679.016                    21551687.117
 118367212.786 7  92234242.102 7  22524531.586                    22524539.613
 125065367.142 6  97453499.92843  23799077.656                    23799086.777
 107362631.113 8  83659276.324 8  20430397.195                    20430404.574
 113593827.926 8  88514728.475 7  21616184.836                    21616194.535
 123420116.72115                  23486068.891
 128187160.669 6  99886050.695 6  24393187.453                    24393197.344
 114448971.958 8  89181090.38945  21778914.273                    21778922.309
 114019241.809 8  88846277.59745  21697110.648                    21697116.246
 11  8 24  2  4  0.0000000  0  9G12G29G10G05G25G26G15G30G02
 113319280.720 7  88300803.051 7  21563936.000                    21563942.926
 118285703.548 7  92170728.472 6  22509020.945                    22509028.535
 125171246.312 6  97536003.15643  23819226.094                    23819234.355
 107393793.885 8  83683559.016 8  20436327.445                    20436334.645
 113598166.882 8  88518109.464 7  21617010.297                    21617020.621
 123326722.375 6                  23468297.859
 128092864.232 6  99812573.099 6  24375243.281                    24375253.324
 114463498.279 8  89192409.60645  21781678.375                    21781686.512
 114057270.517 7  88875910.37245  21704347.453                    21704352.859
 11  8 24  2  4 30.0000000  0  9G12G29G10G05G25G26G15G30G02
 113384098.609 7  88351310.469 7  21576269.820                    21576277.590
 118204281.297 7  92107282.636 7  22493526.586                    22493534.465
 125277254.011 6  97618606.53743  23839399.219                    23839407.695
 107425454.976 7  83708230.001 8  20442352.320                    20442359.391
 113603075.877 8  88521934.646 7  21617944.422                    21617954.520
 123233428.471 5                  23450545.375
 127998467.085 6  99739017.022 6  24357280.609                    24357289.391
 114478597.610 8  89204175.31945  21784552.023                    21784559.945
 114095380.356 7  88905606.36445  21711599.016                    21711604.316
 11  8 24  2  5  0.0000000  0  9G12G29G10G05G25G26G15G30G02
 113449324.486 7  88402135.813 7  21588682.266                    21588689.543
 118122947.569 7  92043905.781 7  22478049.625                    22478057.168
 125383387.263 6  97701307.75243  23859595.461                    23859603.625
 107457611.963 7  83733287.397 8  20448471.648                    20448479.094
 113608553.903 8  88526203.227 7  21618986.883                    21618997.051
 123140238.134 6                  23432811.008
 127903971.582 6  99665384.292 6  24339298.484                    24339307.859
 114494268.264 8  89216386.20945  21787533.805                    21787541.965
 114133571.033 7  88935365.34145  21718866.648                    21718871.750
 11  8 24  2  5 30.0000000  0  9G12G29G10G05G25G26G15G30G02
 113514956.805 7  88453277.872 7  21601171.938                    21601178.734
 118041704.701 7  91980599.721 7  22462588.844                    22462596.949
 125489644.112 6  97784105.28843  23879814.750                    23879823.832
 107490263.906 7  83758730.477 8  20454684.906                    20454692.219
 113614600.831 8  88530915.103 7  21620137.836                    21620147.938
 123047155.605 6                  23415098.461
 127809380.673 6  99591677.230 6  24321298.578                    24321307.871
 114510509.627 8  89229041.81345  21790624.477                    21790632.457
 114171842.869 7  88965187.54545  21726149.344                    21726154.637
 11  8 24  2  6  0.0000000  0  9G12G29G10G05G25G26G15G30G02
 113580992.496 7  88504734.236 7  21613737.320                    21613745.266
 117960554.662 7  91917366.000 7  22447146.438                    22447154.695
 125596021.944 6  97866997.06743  23900058.508                    23900067.273
 107523408.977 7  83784557.810 8  20460992.367                    20460999.395
 113621215.872 8  88536069.673 7  21621396.984                    21621406.535
 122954184.208 6  95808500.15952  23397406.430                    23397415.008
 127714696.936 6  99517897.819 6  24303280.109                    24303290.602
 114527320.220 8  89242140.96845  21793823.156                    21793831.754
 114210195.870 7  88995073.01345  21733447.703                    21733453.406
 11  8 24  2  6 30.0000000  0  9G12G29G10G05G25G26G15G30G02
 113647428.518 7  88556502.549 7  21626379.641                    21626387.465
 117879499.174 7  91854205.951 7  22431722.445                    22431730.688
 125702518.004 6  97949980.98943  23920323.414                    23920332.902
 107557044.586 7  83810767.396 8  20467392.930                    20467400.000
 113628397.989 8  88541666.118 7  21622763.602                    21622772.977
 122861327.014 5  95736144.06542  23379735.883                    23379744.980
 127619922.659 6  99444047.873 6  24285244.734                    24285254.836
 114544698.425 8  89255682.42045  21797130.242                    21797138.773
 114248629.776 7  89025021.51845  21740761.422                    21740766.902
 11  8 24  2  7  0.0000000  0  9G12G29G10G05G25G26G15G30G02
 113714262.456 7  88608580.922 7  21639098.063                    21639105.867
 117798540.299 7  91791121.190 7  22416316.258                    22416324.254
 125809129.466 6  98033054.80343  23940611.500                    23940620.512
 107591169.601 7  83837358.326 8  20473886.594                    20473893.660
 113636146.711 8  88547704.077 7  21624238.055                    21624247.332
 122768588.393 6  95663880.25842  23362088.445                    23362097.766
 127525060.929 6  99370129.762 6  24267193.250                    24267203.414
 114562643.095 8  89269665.27045  21800544.852                    21800553.730
 114287144.540 7  89055033.03745  21748090.844                    21748095.813
 11  8 24  2  7 30.0000000  0  9G12G29G10G05G25G26G15G30G02
 113781491.687 7  88660967.328 7  21651891.359                    21651898.605
 117717680.081 7  91728113.308 7  22400928.930                    22400937.230
 125915854.022 6  98116216.75843  23960920.836                    23960929.379
 107625781.718 7  83864328.825 8  20480472.891                    20480480.398
 113644461.089 8  88554182.810 7  21625820.539                    21625830.488
 122675971.265 6  95591711.13042  23344463.633                    23344473.598
 127430114.024 6  99296145.276 6  24249125.023                    24249135.574
 114581152.789 8  89284088.38745  21804067.578                    21804075.934
 114325740.106 7  89085107.50845  21755434.555                    21755440.262
 11  8 24  2  8  0.0000000  0  9G12G29G10G05G25G26G15G30G02
 113849113.417 7  88713659.570 7  21664759.414                    21664766.715
 117636920.247 7  91665183.650 7  22385560.852                    22385568.613
 126022688.884 6  98199464.65243  23981250.203                    23981259.762
 107660879.277 7  83891677.585 8  20487151.805                    20487159.172
 113653340.308 8  88561101.676 7  21627509.992                    21627519.699
 122583479.445 6  95519639.71242  23326863.094                    23326872.633
 127335084.700 6  99222096.579 6  24231042.258                    24231051.863
 114600226.055 8  89298950.65545  21807696.867                    21807705.195
 114364416.341 7  89115244.83745  21762794.953                    21762800.371
 11  8 24  2  8 30.0000000  0  9G12G29G10G05G25G26G15G30G02
 113917125.077 7  88766655.661 7  21677701.438                    21677709.438
 117556262.681 7  91602333.669 7  22370212.078                    22370220.156
 126129631.590 6  98282796.59943  24001601.219                    24001610.094
 107696459.991 7  83919402.838 8  20493922.438                    20493929.918
 113662783.400 8  88568459.910 7  21629306.711                    21629316.867
 122491116.275 6  95447668.44342  23309285.797                    23309296.785
 127239975.491 6  99147985.661 6  24212943.352                    24212952.902
 114619861.270 7  89314250.80645  21811432.977                    21811441.207
 114403173.106 7  89145444.91845  21770170.313                    21770175.359
 11  8 24  2  9  0.0000000  0  9G12G29G10G05G25G26G15G30G02
 113985523.731 7  88819953.295 7  21690717.602                    21690724.688
 117475709.886 7  91539565.330 7  22354883.453                    22354890.977
 126236679.319 6  98366210.39543  24021971.203                    24021980.113
 107732522.170 7  83947503.255 8  20500785.039                    20500792.449
 113672789.657 8  88576256.980 7  21631210.766                    21631220.957
 122398885.692 5  95375800.65942  23291734.930                    23291745.961
 127144789.078 6  99073814.588 6  24194829.227                    24194838.922
 114640057.225 8  89329987.89245  21815276.680                    21815285.160
 114442010.621 7  89175707.91845  21777560.930                    21777566.359
 11  8 24  2  9 30.0000000  0  9G12G29G10G05G25G26G15G30G02
 114054306.691 7  88873550.382 7  21703806.938                    21703813.996
 117395263.441 7  91476879.850 7  22339574.453                    22339582.762
 126343829.874 6  98449704.29243  24042361.227                    24042370.258
 107769064.158 7  83975977.548 8  20507738.750                    20507745.988
 113683358.206 8  88584492.197 7  21633221.758                    21633232.109
 122306791.17915                  23274210.422
 127049528.413 6  98999585.639 6  24176702.164                    24176710.887
 114660812.356 8  89346160.69845  21819226.203                    21819234.813
 114480928.753 7  89206033.74145  21784966.125                    21784971.824
 11  8 24  2 10  0.0000000  0  9G12G29G10G05G25G26G15G30G02
 114123471.459 7  88927444.985 7  21716968.578                    21716975.711
 117314925.664 7  91414279.050 7  22324287.023                    22324295.117
 126451080.665 6  98533276.29543  24062770.734                    24062779.285
 107806083.885 7  84004824.100 8  20514783.617                    20514790.660
 113694488.104 8  88593164.836 7  21635339.992                    21635350.121
 122214836.122 5                  23256712.008
 126954195.877 6  98925300.682 6  24158560.648                    24158569.848
 114682125.208 8  89362768.09546  21823281.977                    21823290.457
 114519927.679 7  89236422.51945  21792387.789                    21792392.941
 11  8 24  2 10 30.0000000  0  9G12G29G10G05G25G26G15G30G02
 114193015.122 7  88981634.838 7  21730201.953                    21730209.469
 117234698.311 7  91351764.282 7  22309020.180                    22309028.262
 126558429.160 6  98616924.44343  24083198.297                    24083207.238
 107843579.225 8  84034041.271 8  20521918.836                    20521925.879
 113706178.312 8  88602274.075 7  21637564.570                    21637574.629
 122123024.351 5  95160842.90152  23239240.891                    23239250.387
 126858794.151 6  98850961.791 6  24140406.078                    24140415.199
 114703994.100 7  89379808.76345  21827442.711                    21827451.695
 114559007.247 7  89266874.12745  21799824.695                    21799830.063
 11  8 24  2 11  0.0000000  0  9G12G29G10G05G25G26G15G30G02
 114262935.512 7  89036118.249 7  21743506.781                    21743514.863
 117154583.674 7  91289337.327 7  22293775.430                    22293783.305
 126665872.679 6  98700646.62643  24103644.664                    24103653.551
 107881548.180 8  84063627.486 7  20529143.984                    20529150.922
 113718427.841 8  88611819.152 7  21639895.563                    21639905.613
 122031359.077 6  95089415.50842  23221797.789                    23221806.797
 126763325.765 6  98776570.977 6  24122238.539                    24122248.441
 114726417.457 8  89397281.47645  21831710.289                    21831718.848
 114598167.317 7  89297388.47645  21807276.391                    21807281.891
 11  8 24  2 11 30.0000000  0  9G12G29G10G05G25G26G15G30G02
 114333229.057 7  89090892.424 7  21756883.320                    21756891.504
 117074583.327 7  91226999.442 7  22278551.570                    22278559.406
 126773408.802 6  98784440.94443  24124107.352                    24124116.918
 107919988.872 8  84093581.281 7  20536458.992                    20536465.281
 113731235.736 8  88621799.323 7  21642332.773                    21642343.035
 121939844.322 6  95018105.40843  23204382.406                    23204392.520
 126667793.600 6  98702130.457 6  24104059.969                    24104069.895
 114749393.671 8  89415184.99645  21836082.672                    21836090.969
 114637407.871 7  89327965.53745  21814743.438                    21814748.887
 11  8 24  2 12  0.0000000  0  9G12G29G10G05G25G26G15G30G02
 114403893.026 7  89145955.243 7  21770330.820                    21770338.371
 116994699.537 7  91164752.366 7  22263350.172                    22263358.293
 126881034.546 6  98868305.16143  24144588.539                    24144597.141
 107958899.077 8  84123900.929 7  20543863.320                    20543870.227
 113744600.851 8  88632213.688 7  21644876.273                    21644886.309
 121848483.480 6  94946915.20642  23186997.844                    23187007.094
 126572200.227 7  98627642.248 6  24085869.273                    24085878.773
 114772921.124 7  89433518.05445  21840559.797                    21840568.371
 114676729.039 7  89358605.40945  21822225.992                    21822231.852
 11  8 24  2 12 30.0000000  0  9G12G29G10G05G25G26G15G30G02
 114474924.753 7  89201304.636 7  21783847.063                    21783855.246
 116914933.998 7  91102597.426 7  22248171.383                    22248179.508
 126988747.507 6  98952237.30343  24165085.492                    24165094.078
 107998276.614 8  84154584.738 7  20551356.648                    20551363.832
 113758522.087 8  88643061.395 7  21647525.070                    21647535.348
 121757280.081 6  94875847.71142  23169641.656                    23169651.414
 126476548.387 6  98553108.464 6  24067666.344                    24067676.035
 114796998.007 8  89452279.24845  21845142.102                    21845149.133
 114716130.595 7  89389307.91545  21829724.352                    21829729.453
 11  8 24  2 13  0.0000000  0  9G12G29G10G05G25G26G15G30G02
 114546321.867 7  89256938.742 7  21797433.734                    21797441.352
 116835289.474 7  91040536.783 7  22233014.891                    22233023.453
 127096545.748 6  99036235.94543  24185598.555                    24185608.164
 108038120.478 8  84185631.907 7  20558938.383                    20558945.988
 113772998.798 8  88654341.939 7  21650280.102                    21650290.234
 121666238.192 6  94804906.03042  23152317.234                    23152326.043
 126380841.245 7  98478531.624 6  24049453.609                    24049464.016
 114821623.182 8  89471467.68145  21849827.641                    21849835.465
 114755613.090 7  89420073.49845  21837237.078                    21837242.633
 11  8 24  2 13 30.0000000  0  9G12G29G10G05G25G26G15G30G02
 114618081.294 7  89312855.175 7  21811089.008                    21811096.043
 116755767.662 7  90978571.746 7  22217883.008                    22217890.922
 127204426.459 6  99120298.79743  24206127.773                    24206137.059
 108078427.629 8  84217040.085 7  20566608.773                    20566616.387
 113788029.416 8  88666054.107 7  21653140.258                    21653150.664
 121575360.789 6  94734092.48842  23135023.633                    23135032.832
 126285081.012 7  98403913.418 6  24031232.078                    24031241.215
 114846794.442 7  89491081.62445  21854617.586                    21854625.766
 114795175.980 7  89450901.72745  21844765.625                    21844771.043
 11  8 24  2 14  0.0000000  0  9G12G29G10G05G25G26G15G30G02
 114690200.037 7  89369051.581 7  21824812.781                    21824820.266
 116676370.446 7  90916703.787 7  22202773.906                    22202781.816
 127312387.268 6  99204424.09343  24226672.375                    24226681.551
 108119196.284 8  84248807.865 7  20574366.734                    20574373.809
 113803612.936 8  88678197.106 7  21656105.625                    21656116.000
 121484651.725 6  94663410.17242  23117761.141                    23117772.414
 126189270.472 6  98329255.977 6  24012999.164                    24013008.188
 114872510.183 7  89511119.84945  21859510.977                    21859519.254
 114834819.512 7  89481792.79145  21852309.797                    21852315.273
 11  8 24  2 14 30.0000000  0  9G12G29G10G05G25G26G15G30G02
 114762675.374 7  89425525.860 7  21838604.594                    21838611.992
 116597100.038 7  90854934.641 7  22187689.250                    22187697.152
 127420425.541 6  99288609.74043  24247230.977                    24247240.367
 108160424.247 8  84280933.558 7  20582212.336                    20582219.664
 113819748.174 8  88690770.022 7  21659176.328                    21659186.059
 121394114.612 6  94592861.84042  23100533.406                    23100542.988
 126093412.374 7  98254561.498 6  23994758.250                    23994767.336
 114898768.591 7  89531580.93345  21864507.734                    21864516.070
 114874543.671 8  89512746.68845  21859868.898                    21859874.516
 11  8 24  2 15  0.0000000  0  9G12G29G10G05G25G26G15G30G02
 114835504.490 7  89482275.802 7  21852463.805                    21852471.035
 116517958.627 7  90793266.014 7  22172629.602                    22172637.180
 127528538.660 6  99372853.69643  24267803.617                    24267813.711
 108202109.478 8  84313415.567 7  20590144.617                    20590151.496
 113836433.946 8  88703771.925 7  21662351.219                    21662361.426
 121303753.095 6  94522450.36542  23083337.844                    23083347.453
 125997509.455 7  98179832.101 6  23976508.664                    23976517.547
 114925568.022 7  89552463.60145  21869607.438                    21869615.766
 114914348.339 7  89543763.29845  21867443.570                    21867448.785
 11  8 24  2 15 30.0000000  0  9G12G29G10G05G25G26G15G30G02
 114908684.778 7  89539299.386 7  21866389.195                    21866397.102
 116438948.241 7  90731699.490 7  22157593.945                    22157602.109
 127636724.341 6  99457154.19943  24288391.758                    24288400.707
 108244250.115 8  84346252.431 7  20598163.594                    20598170.688
 113853669.106 8  88717201.937 7  21665631.039                    21665641.195
 121213571.120 6  94452178.82342  23066177.375                    23066186.605
 125901564.640 6  98105070.057 6  23958250.758                    23958260.383
 114952906.658 7  89573766.43245  21874810.281                    21874818.027
 114954233.974 7  89574843.00545  21875033.719                    21875038.926
 11  8 24  2 16  0.0000000  0  9G12G29G10G05G25G26G15G30G02
 114982213.284 7  89596594.314 7  21880381.203                    21880389.000
 116360071.184 7  90670236.857 7  22142584.516                    22142592.477
 127744980.141 6  99541509.31743  24308992.039                    24309001.730
 108286844.230 8  84379442.659 7  20606269.055                    20606275.836
 113871452.606 8  88731059.206 7  21669014.930                    21669025.059
 121123572.000 6  94382049.67142  23049050.453                    23049060.047
 125805581.022 7  98030277.753 6  23939985.484                    23939994.883
 114980782.922 7  89595488.18445  21880114.711                    21880122.449
 114994200.584 8  89605985.80445  21882638.844                    21882644.098
 11  8 24  2 16 30.0000000  0  9G12G29G10G05G25G26G15G30G02
 115056086.844 7  89654158.121 7  21894438.734                    21894446.789
 116281329.356 7  90608879.594 7  22127600.547                    22127608.246
 127853303.439 6  99625917.05143  24329604.398                    24329614.609
 108329889.243 8  84412984.242 7  20614460.289                    20614466.934
 113889782.990 8  88745342.628 7  21672503.336                    21672513.438
 121033759.499 6  94312065.91442  23031959.781                    23031968.863
 125709560.758 6  97955456.907 6  23921712.602                    23921722.891
 115009194.758 7  89617627.27545  21885521.406                    21885529.309
 115034248.190 8  89637191.72045  21890259.867                    21890265.676
 11  8 24  2 17  0.0000000  0  9G12G29G10G05G25G26G15G30G02
 115130302.491 7  89711988.483 7  21908561.852                    21908569.621
 116202724.957 7  90547629.422 7  22112642.547                    22112650.199
 127961691.948 6  99710375.56943  24350230.469                    24350240.359
 108373382.932 8  84446875.443 7  20622736.773                    20622744.000
 113908658.884 8  88760051.136 7  21676095.258                    21676105.059
 120944137.192 6  94242230.44042  23014904.680                    23014914.152
 125613506.464 6  97880609.542 6  23903434.258                    23903444.121
 115038140.143 7  89640182.11945  21891029.516                    21891037.207
 115074376.600 7  89668460.61045  21897896.000                    21897901.438
 11  8 24  2 17 30.0000000  0  9G12G29G10G05G25G26G15G30G02
 115204857.804 7  89770083.516 7  21922748.859                    21922757.023
 116124259.983 7  90486487.904 7  22097711.188                    22097718.590
 128070142.973 6  99794882.83943  24370868.859                    24370877.941
 108417323.319 8  84481114.716 8  20631098.305                    20631105.266
 113928079.162 8  88775183.833 7  21679790.813                    21679800.539
 120854708.737 6  94172546.02642  22997887.727                    22997896.621
 125517421.631 6  97805738.319 6  23885150.125                    23885159.094
 115067617.487 7  89663151.48545  21896639.094                    21896646.965
 115114586.103 7  89699792.68645  21905547.438                    21905553.254
 11  8 24  2 18  0.0000000  0  9G12G29G10G05G25G26G15G30G02
 115279750.099 7  89828441.121 7  21937000.828                    21937008.828
 116045936.785 7  90425456.863 7  22082806.070                    22082814.289
 128178654.547 5  99879437.26543  24391517.383                    24391526.914
 108461708.716 8  84515700.746 7  20639544.930                    20639551.801
 113948042.635 8  88790739.791 7  21683589.688                    21683599.902
 120765477.936 6  94103015.57942  22980907.258                    22980916.926
 125421308.816 6  97730845.286 6  23866860.750                    23866869.027
 115097624.933 8  89686533.91645  21902348.945                    21902357.508
 115154876.887 8  89731188.09945  21913214.609                    21913220.227
 11  8 24  2 18 30.0000000  0  9G12G29G10G05G25G26G15G30G02
 115354976.306 7  89887058.926 7  21951315.922                    21951323.574
 115967757.353 7  90364537.868 7  22067929.133                    22067937.598
 128287224.166 5  99964036.90042  24412178.586                    24412187.465
 108506536.671 8  84550631.631 8  20648075.156                    20648082.160
 113968547.825 8  88806717.866 7  21687491.680                    21687501.559
 120676448.323 6  94033641.95742  22963964.828                    22963975.348
 125325170.776 6  97655932.636 6  23848566.195                    23848574.566
 115128160.496 7  89710327.86545  21908160.141                    21908168.297
 115195249.056 7  89762646.93345  21920897.195                    21920902.668
 11  8 24  2 19  0.0000000  0  9G12G29G10G05G25G26G15G30G02
 115430532.969 7  89945934.231 7  21965693.773                    21965701.109
 115889723.398 7  90303732.246 7  22053080.164                    22053087.910
 128395849.223 5 100048679.75843  24432848.195                    24432857.414
 108551804.355 8  84585905.158 8  20656689.102                    20656696.273
 113989592.866 8  88823116.612 7  21691496.477                    21691506.805
 120587622.950 6  93964427.46942  22947062.234                    22947071.914
 125229010.142 7  97581002.351 6  23830267.250                    23830275.004
 115159221.725 7  89734531.43245  21914070.281                    21914078.410
 115235702.096 8  89794168.77745  21928595.297                    21928600.758
 11  8 24  2 19 30.0000000  0  9G12G29G10G05G25G26G15G30G02
 115506417.653 7  90005065.134 7  21980134.219                    21980141.012
 115811837.886 7  90243042.292 7  22038259.055                    22038266.480
 128504527.430 6 100133364.01843  24453529.625                    24453538.074
 108597510.390 8  84621520.256 8  20665387.008                    20665393.719
 114011176.870 8  88839935.317 7  21695603.891                    21695613.891
 120499006.282 6  93895375.55942  22930199.461                    22930207.809
 125132829.817 7  97506056.709 6  23811964.227                    23811972.973
 115190807.161 7  89759143.47245  21920081.391                    21920089.316
 115276236.438 8  89825753.97445  21936309.375                    21936314.246
 11  8 24  2 20  0.0000000  0  9G12G29G10G05G25G26G15G30G02
 115582627.287 7  90064449.252 7  21994636.406                    21994643.957
 115734102.503 7  90182469.323 7  22023466.203                    22023473.469
 128613256.274 6 100218087.77543  24474219.500                    24474228.828
 108643652.209 8  84657474.929 8  20674167.555                    20674174.039
 114033298.344 8  88857172.833 7  21699813.516                    21699823.738
 120410601.661 6  93826488.93442  22913376.195                    22913385.258
 125036632.706 7  97431098.027 6  23793658.641                    23793667.547
 115222914.708 7  89784162.34845  21926191.188                    21926199.445
 115316852.395 8  89857402.76045  21944037.648                    21944042.965
 11  8 24  2 20 30.0000000  0  9G12G29G10G05G25G26G15G30G02
 115659159.066 7  90124084.393 7  22009199.844                    22009207.359
 115656519.463 7  90122015.065 7  22008702.617                    22008709.918
 128722033.748 6 100302849.45343  24494919.320                    24494928.578
 108690227.936 8  84693767.703 8  20683030.742                    20683037.219
 114055955.936 8  88874828.102 7  21704124.891                    21704134.902
 120322413.022 6  93757770.59342  22896594.758                    22896603.719
 124940421.753 7  97356128.556 6  23775349.852                    23775358.953
 115255542.509 7  89809586.62045  21932399.297                    21932407.891
 115357550.161 8  89889115.30345  21951782.531                    21951787.539
 11  8 24  2 21  0.0000000  0  9G12G29G10G05G25G26G15G30G02
 115736009.782 7  90183968.069 7  22023824.516                    22023831.891
 115579090.655 7  90061680.989 7  21993968.617                    21993976.207
 128830857.116 6 100387646.86443  24515627.914                    24515637.055
 108737234.804 8  84730396.445 8  20691975.563                    20691982.520
 114079147.879 8  88892899.763 7  21708538.180                    21708548.109
 120234443.559 6  93689223.05943  22879855.188                    22879863.668
 124844199.823 7  97281150.523 6  23757040.258                    23757049.047
 115288688.189 7  89835414.43345  21938707.328                    21938715.508
 115398329.646 8  89920891.52845  21959542.578                    21959547.918
 11  8 24  2 21 30.0000000  0  9G12G29G10G05G25G26G15G30G02
 115813176.978 7  90244098.333 7  22038508.594                    22038516.410
 115501818.697 8  90001469.148 7  21979263.930                    21979271.813
 128939724.069 6 100472478.27243  24536344.641                    24536353.848
 108784671.003 8  84767359.723 8  20701002.211                    20701009.270
 114102872.972 8  88911386.854 7  21713052.906                    21713062.871
 120146697.334 6  93620849.44643  22863156.906                    22863166.332
 124747969.629 7  97206166.033 6  23738727.930                    23738736.840
 115322349.955 7  89861644.38445  21945112.922                    21945121.012
 115439190.974 8  89952731.52045  21967318.078                    21967323.555
 11  8 24  2 22  0.0000000  0  9G12G29G10G05G25G26G15G30G02
 115890657.465 7  90304472.731 7  22053252.258                    22053260.145
 115424705.810 8  89941381.263 7  21964590.023                    21964597.680
 129048632.418 6 100557341.90543  24557069.000                    24557078.234
 108832534.247 8  84804655.760 8  20710110.391                    20710117.242
 114127129.609 8  88930288.122 7  21717668.688                    21717678.863
 120059177.789 6  93552652.47843  22846503.492                    22846511.813
 124651734.008 7  97131177.328 6  23720414.625                    23720423.043
 115356525.686 7  89888274.82845  21951616.297                    21951624.344
 115480134.574 8  89984635.62045  21975109.648                    21975114.434
 11  8 24  2 22 30.0000000  0  9G12G29G10G05G25G26G15G30G02
 115968448.371 8  90365089.002 7  22068056.234                    22068063.547
 115347754.017 8  89881418.908 7  21949946.656                    21949954.168
 129157579.999 6 100642236.14543  24577800.508                    24577810.297
 108880822.568 8  84842283.026 8  20719299.492                    20719305.902
 114151916.426 8  88949602.520 7  21722385.391                    21722395.551
 119971888.706 6  93484635.05743  22829892.273                    22829901.367
 124555495.899 7  97056186.646 6  23702101.102                    23702109.621
 115391213.555 7  89915304.34645  21958216.867                    21958225.219
 115521160.470 8  90016603.84945  21982916.078                    21982921.621
 11  8 24  2 23  0.0000000  0  8G12G29G05G25G26G15G30G02
 116046547.817 8  90425945.703 7  22082917.820                    22082925.340
 115270966.480 8  89821584.533 7  21935334.438                    21935341.469
 108929534.628 8  84880240.485 8  20728568.953                    20728575.648
 114177232.665 8  88969329.465 7  21727203.281                    21727213.715
 119884834.919 6  93416800.99243  22813326.430                    22813335.574
 124459259.208 7  96981197.126 6  23683787.852                    23683796.391
 115426412.137 8  89942731.81645  21964915.063                    21964922.996
 115562269.839 8  90048637.12545  21990739.008                    21990744.641
 11  8 24  2 23 30.0000000  0  9G12G29G21G05G25G26G15G30G02
 116124951.462 7  90487039.442 7  22097837.438                    22097844.926
 115194344.367 7  89761879.070 7  21920753.141                    21920761.164
 132323882.57116 103109568.79853  25180402.797                    25180410.594
 108978666.849 8  84918525.337 8  20737918.219                    20737925.340
 114203075.692 8  88989466.881 7  21732120.836                    21732131.246
 119798018.841 6  93349152.14143  22796805.703                    22796814.918
 124363025.675 6  96906210.057 6  23665474.758                    23665483.844
 115462118.177 7  89970554.70345  21971709.648                    21971717.988
 115603461.600 7  90080734.59845  21998577.898                    21998582.891
 11  8 24  2 24  0.0000000  0  9G12G29G21G05G25G26G15G30G02
 116203657.086 7  90548368.478 7  22112814.453                    22112822.098
 115117890.380 7  89702304.607 7  21906204.578                    21906211.977
 132268338.832 6 103066288.00143  25169834.445                    25169841.055
 109028217.567 8  84957136.299 8  20747347.703                    20747354.484
 114229444.409 8  89010013.936 7  21737138.594                    21737149.016
 119711444.416 5  93281691.60343  22780330.086                    22780339.941
 124266798.829 7  96831228.174 6  23647163.703                    23647172.309
 115498330.144 8  89998771.82445  21978600.469                    21978609.012
 115644736.312 8  90112896.69845  22006432.000                    22006437.000
 11  8 24  2 24 30.0000000  0  9G12G29G21G05G25G26G15G30G02
 116282661.381 7  90609930.261 7  22127848.430                    22127856.102
 115041606.421 7  89642862.636 7  21891688.133                    21891695.707
 132212799.410 6 103023010.54742  25159265.102                    25159272.027
 109078183.939 8  84996071.137 8  20756855.977                    20756862.961
 114256336.804 8  89030969.049 7  21742255.961                    21742265.730
 119625115.200 6  93214422.13642  22763902.906                    22763912.086
 124170580.872 7  96756253.222 6  23628854.133                    23628862.883
 115535045.399 7  90027381.10745  21985587.578                    21985595.266
 115686093.929 8  90145123.42145  22014302.023                    22014307.551
 11  8 24  2 25  0.0000000  0  9G12G29G21G05G25G26G15G30G02
 116361960.643 7  90671721.868 7  22142938.898                    22142946.824
 114965494.295 8  89583554.555 7  21877204.266                    21877211.773
 132157263.176 6 102979735.56142  25148696.820                    25148703.945
 109128562.959 8  85035327.522 8  20766442.516                    20766449.496
 114283750.575 8  89052330.424 7  21747472.617                    21747482.793
 119539034.275 6  93147346.13642  22747522.102                    22747531.570
 124074374.189 7  96681287.069 6  23610546.578                    23610555.074
 115572261.184 7  90056380.42245  21992669.211                    21992677.480
 115727534.017 8  90177414.40645  22022188.055                    22022193.219
 11  8 24  2 25 30.0000000  0  9G12G29G21G05G25G26G15G30G02
 116441552.531 7  90733741.506 7  22158084.453                    22158092.316
 114889556.504 8  89524382.327 7  21862753.805                    21862761.391
 132101729.967 6 102936462.95442  25138128.875                    25138136.938
 109179352.949 8  85074904.146 8  20776107.688                    20776114.738
 114311684.784 8  89074097.340 7  21752788.273                    21752798.453
 119453205.952 6  93080467.03943  22731189.461                    22731198.148
 123978182.527 7  96606332.621 6  23592241.539                    23592250.043
 115609975.997 8  90085768.58145  21999846.016                    21999854.234
 115769057.116 8  90209770.07845  22030089.328                    22030094.918
 11  8 24  2 26  0.0000000  0  9G12G29G21G05G25G26G15G30G02
 116521434.335 7  90795987.056 7  22173285.555                    22173293.320
 114813795.680 8  89465347.995 7  21848337.383                    21848344.930
 132046199.799 6 102893192.68642  25127561.820                    25127570.035
 109230552.763 8  85114800.111 8  20785850.734                    20785857.695
 114340137.999 8  89096268.667 7  21758202.633                    21758212.988
 119367634.192 6  93013787.80543  22714906.180                    22714914.203
 123882009.045 7  96531392.318 6  23573940.625                    23573949.359
 115648187.806 8  90115544.01145  22007117.680                    22007125.383
 115810663.788 8  90242190.86545  22038006.875                    22038012.305
 11  8 24  2 26 30.0000000  0  9G12G29G21G05G25G26G15G30G02
 116601602.430 7  90858455.698 7  22188541.164                    22188548.121
 114738213.665 8  89406452.980 7  21833954.430                    21833961.625
 131990671.300 6 102849923.76242  25116995.281                    25117003.789
 109282158.941 8  85155012.731 8  20795671.039                    20795677.707
 114369107.939 8  89118842.636 7  21763715.453                    21763726.059
 119282321.964 6  92947310.83543  22698671.938                    22698679.934
 123785856.056 7  96456467.990 6  23555642.953                    23555651.793
 115686893.864 8  90145704.58045  22014483.227                    22014491.039
 115852354.141 8  90274676.86845  22045940.336                    22045945.355
 11  8 24  2 27  0.0000000  0  9G12G29G21G05G25G26G15G30G02
 116682053.131 7  90921144.536 7  22203850.117                    22203858.363
 114662812.102 8  89347698.576 7  21819605.492                    21819613.086
 131935143.870 6 102806655.54542  25106428.656                    25106436.492
 109334168.633 8  85195539.760 8  20805568.195                    20805574.980
 114398592.444 8  89141817.571 7  21769326.352                    21769336.871
 119197272.538 6  92881038.66643  22682487.781                    22682496.145
 123689726.082 7  96381561.626 6  23537349.797                    23537358.316
 115726091.475 8  90176248.16545  22021942.039                    22021949.707
 115894127.836 8  90307227.82045  22053889.578                    22053894.840
 11  8 24  2 27 30.0000000  0  9G12G29G21G05G25G26G15G30G02
 116762784.825 7  90984052.333 7  22219213.164                    22219220.945
 114587593.833 7  89289086.991 7  21805291.609                    21805299.223
 131879617.377 6 102763388.30542  25095862.250                    25095870.305
 109386580.261 8  85236379.996 8  20815541.625                    20815548.695
 114428590.383 8  89165192.574 7  21775034.961                    21775044.535
 119112490.336 6  92814974.65343  22666353.445                    22666362.418
 123593622.645 7  96306675.923 6  23519062.055                    23519069.938
 115765778.916 8  90207173.44745  22029494.625                    22029502.578
 115935985.490 8  90339844.19345  22061854.969                    22061860.305
 11  8 24  2 28  0.0000000  0  9G12G29G21G05G25G26G15G30G02
 116843794.470 7  91047176.700 7  22234628.797                    22234636.363
 114512561.558 7  89230620.332 7  21791013.914                    21791021.242
 131824091.071 6 102720121.04342  25085295.734                    25085304.621
 109439391.926 8  85277531.941 8  20825591.406                    20825597.902
 114459100.283 8  89188966.521 7  21780840.797                    21780850.832
 119027979.349 6  92749121.98643  22650271.398                    22650280.895
 123497548.970 7  96231813.383 6  23500779.797                    23500787.359
 115805954.164 7  90238478.82045  22037139.797                    22037147.344
 115977927.415 7  90372526.22345  22069836.273                    22069841.336
 11  8 24  2 28 30.0000000  0  9G12G29G21G05G25G26G15G30G02
 116925078.276 7  91110514.705 7  22250096.586                    22250104.051
 114437716.924 7  89172299.872 7  21776771.273                    21776778.723
 131768564.120 6 102676853.42242  25074729.070                    25074738.031
 109492600.314 8  85318993.024 8  20835716.938                    20835723.355
 114490119.811 8  89213137.566 7  21786743.523                    21786753.379
 118943742.679 6  92683483.06843  22634241.438                    22634250.465
 123401507.393 7  96156975.864 6  23482503.320                    23482511.316
 115846614.466 7  90270162.16145  22044876.656                    22044884.969
 116019953.573 8  90405273.90345  22077833.648                    22077838.719
 11  8 24  2 29  0.0000000  0  9G12G29G21G05G25G26G15G30G02
 117006633.645 7  91174064.325 7  22265616.094                    22265623.285
 114363062.575 8  89114127.684 7  21762564.914                    21762572.688
 131713036.069 6 102633584.86043  25064162.820                    25064171.090
 109546203.887 8  85360762.049 8  20845917.047                    20845923.852
 114521647.440 8  89237704.541 7  21792743.359                    21792752.922
 118859784.385 6  92618061.09343  22618264.180                    22618273.203
 123305501.493 7  96082166.139 6  23464234.141                    23464242.578
 115887757.760 8  90302221.85845  22052706.242                    22052714.059
 116062064.304 8  90438087.47445  22085846.836                    22085852.148
 11  8 24  2 29 30.0000000  0  9G12G29G21G05G25G26G15G30G02
 117088457.489 7  91237823.145 7  22281186.555                    22281194.496
 114288600.577 7  89056105.389 7  21748395.156                    21748402.961
 131657506.280 6 102590314.92243  25053595.531                    25053603.457
 109600199.687 8  85402836.697 8  20856192.164                    20856199.066
 114553681.036 8  89262665.774 7  21798838.898                    21798848.781
 118776107.626 6  92552858.41943  22602341.781                    22602350.098
 123209533.607 7  96007386.051 6  23445972.719                    23445980.547
 115929381.348 8  90334655.80945  22060627.297                    22060635.449
 116104259.717 8  90470967.03745  22093875.969                    22093881.637
 11  8 24  2 30  0.0000000  0  9G12G29G21G05G25G26G15G30G02
 117170546.920 7  91301788.907 7  22296807.469                    22296815.609
 114214333.543 7  88998235.015 7  21734262.789                    21734270.090
 131601974.277 6 102547043.29843  25043027.953                    25043036.395
 109654586.096 8  85445215.721 7  20866541.500                    20866548.723
 114586219.144 8  89288020.131 7  21805030.563                    21805040.332
 118692716.554 6  92487878.39443  22586472.828                    22586481.230
 123113607.125 7  95932638.221 6  23427717.563                    23427726.359
 115971483.240 7  90367462.47045  22068638.594                    22068646.793
 116146540.525 8  90503913.13045  22101922.031                    22101927.492
 11  8 24  2 30 30.0000000  0  9G12G29G21G05G25G26G15G30G02
 117252898.985 7  91365959.327 7  22312478.500                    22312486.500
 114140263.507 7  88940518.152 7  21720167.555                    21720175.098
 131546439.550 6 102503769.52943  25032460.594                    25032468.316
 109709360.491 8  85487897.065 7  20876964.484                    20876971.492
 114619259.659 8  89313765.975 7  21811318.172                    21811328.273
 118609614.497 6  92423123.61343  22570659.445                    22570667.746
 123017724.856 7  95857924.865 6  23409471.719                    23409480.727
 116014060.901 7  90400639.83945  22076741.000                    22076749.160
 116188906.685 8  90536925.74645  22109984.180                    22109989.375
 11  8 24  2 31  0.0000000  0  9G12G29G21G05G25G26G15G30G02
 117335510.269 7  91430331.721 7  22328198.852                    22328207.180
 114066392.620 7  88882956.468 7  21706110.289                    21706118.465
 131490901.131 6 102460492.85343  25021891.648                    25021899.258
 109764520.112 7  85530878.598 7  20887461.336                    20887468.051
 114652800.661 8  89339901.811 7  21817700.734                    21817710.535
 118526805.315 6  92358597.02843  22554901.211                    22554909.973
 122921889.917 7  95783248.384 6  23391234.641                    23391244.039
 116057111.829 7  90434186.00845  22084933.125                    22084941.727
 116231358.184 8  90570004.84745  22118062.242                    22118067.449
 11  8 24  2 31 30.0000000  0  9G12G29G21G05G25G26G15G30G02
 117418377.578 7  91494903.633 7  22343968.086                    22343976.336
 113992723.228 7  88825551.777 7  21692091.438                    21692099.293
 131435358.506 6 102417212.95243  25011322.633                    25011330.719
 109820062.472 7  85574158.356 8  20898030.609                    20898037.457
 114686839.968 8  89366425.943 7  21824178.141                    21824188.574
 118444292.349 6  92294301.31343  22539199.367                    22539208.559
 122826104.747 7  95708610.695 6  23373007.531                    23373015.742
 116100633.369 7  90468098.87345  22093215.445                    22093223.906
 116273895.303 8  90603150.67645  22126157.023                    22126162.348
 11  8 24  2 32  0.0000000  0  9G12G29G21G05G25G26G15G30G02
 117501498.249 7  91559672.950 6  22359785.500                    22359793.434
 113919257.731 7  88768305.966 7  21678111.469                    21678119.207
 131379811.254 6 102373929.40143  25000751.867                    25000760.176
 109875985.513 7  85617734.758 7  20908672.867                    20908679.449
 114721375.929 8  89393337.083 7  21830750.016                    21830760.266
 118362079.592 6  92230239.51643  22523554.453                    22523563.465
 122730372.932 7  95634014.535 6  23354790.594                    23354798.145
 116144623.390 7  90502376.79345  22101586.430                    22101594.203
 116316518.437 8  90636363.53745  22134267.773                    22134273.184
 11  8 24  2 32 30.0000000  0  9G12G29G21G05G25G26G15G30G02
 117584869.039 7  91624637.187 6  22375650.438                    22375657.934
 113845998.230 7  88711220.663 7  21664170.719                    21664178.422
 131324258.648 6 102330641.71143  24990180.219                    24990188.891
 109932286.830 8  85661605.917 8  20919386.242                    20919392.922
 114756406.555 8  89420633.666 7  21837416.391                    21837426.738
 118280170.539 6  92166414.34243  22507967.516                    22507976.230
 122634697.154 7  95559462.008 6  23336584.227                    23336591.469
 116189079.250 7  90537017.70345  22110046.133                    22110054.156
 116359227.899 8  90669643.65345  22142395.211                    22142400.723
 11  8 24  2 33  0.0000000  0  9G12G29G21G05G25G26G15G30G02
 117668486.981 7  91689793.995 6  22391562.789                    22391570.379
 113772947.352 7  88654297.922 7  21650270.094                    21650277.063
 131268700.022 6 102287349.29843  24979608.328                    24979616.301
 109988963.889 7  85705769.865 7  20930171.516                    20930178.320
 114791929.637 8  89448313.978 7  21844176.031                    21844186.199
 118198568.808 6  92102828.61543  22492439.258                    22492447.633
 122539080.556 7  95484955.618 6  23318389.078                    23318397.145
 116233998.430 7  90572019.65845  22118593.875                    22118602.180
 116402023.773 8  90702991.09545  22150538.820                    22150543.949
 11  8 24  2 33 30.0000000  0  9G12G29G21G05G25G26G15G30G02
 117752348.992 7  91755140.993 7  22407521.094                    22407528.383
 113700106.971 8  88597539.213 7  21636408.484                    21636416.098
 131213135.166 6 102244052.05143  24969033.703                    24969042.914
 110046014.402 7  85750224.806 8  20941027.992                    20941035.184
 114827943.302 8  89476376.576 7  21851029.156                    21851039.156
 118117278.121 6  92039485.28943  22476970.070                    22476978.363
 122443526.128 7  95410497.687 6  23300205.734                    23300213.918
 116279378.510 7  90607380.75745  22127229.445                    22127237.449
 116444906.255 8  90736406.02845  22158699.180                    22158704.492
 11  8 24  2 34  0.0000000  0  9G12G29G21G05G25G26G15G30G02
 117836452.381 7  91820676.067 7  22423525.383                    22423533.223
 113627480.069 8  88540946.852 7  21622588.086                    21622595.535
 131157563.475 6 102200749.45343  24958459.492                    24958467.031
 110103436.478 7  85794969.283 8  20951954.922                    20951962.398
 114864445.991 8  89504820.231 7  21857975.453                    21857985.395
 118036302.535 6  91976387.50343  22461560.992                    22461569.145
 122348037.172 7  95336090.780 6  23282034.023                    23282042.625
 116325217.320 7  90643099.29445  22135952.055                    22135960.328
 116487875.994 8  90769888.94745  22166875.719                    22166881.242
 11  8 24  2 34 30.0000000  0  9G12G29G21G05G25G26G15G30G02
 117920794.200 7  91886396.934 7  22439575.227                    22439583.238
 113555068.846 8  88484522.563 7  21608808.641                    21608816.383
 131101984.255 6 102157441.00843  24947882.711                    24947890.816
 110161227.280 7  85840001.082 7  20962952.203                    20962958.980
 114901435.362 8  89533643.114 7  21865014.008                    21865024.762
 117955645.384 6  91913537.80943  22446212.031                    22446220.250
 122252616.257 7  95261736.902 6  23263876.109                    23263884.750
 116371512.193 7  90679173.20345  22144761.859                    22144770.199
 116530933.303 8  90803440.10545  22175068.961                    22175075.035
 11  8 24  2 35  0.0000000  0  9G12G29G21G05G25G26G15G30G02
 118005371.287 7  91952301.140 7  22455669.984                    22455677.387
 113482875.719 8  88428268.227 7  21595070.992                    21595078.656
 131046396.687 6 102114126.05643  24937305.016                    24937312.535
 110219384.358 7  85885318.283 7  20974018.945                    20974025.965
 114938909.428 8  89562843.687 7  21872145.273                    21872155.547
 117875310.488 6  91850939.21843  22430925.914                    22430933.281
 122157266.901 7  95187438.807 6  23245731.695                    23245740.691
 116418260.614 7  90715600.53045  22153657.664                    22153665.855
 116574078.438 7  90837059.70145  22183279.781                    22183285.406
 11  8 24  2 35 30.0000000  0  9G12G29G21G05G25G26G15G30G02
 118090179.951 7  92018385.795 7  22471808.320                    22471815.699
 113410902.471 8  88372185.211 7  21581374.992                    21581382.281
 130990800.322 6 102070804.19442  24926725.594                    24926733.129
 110277905.067 8  85930918.839 7  20985155.086                    20985162.098
 114976865.680 8  89592419.982 7  21879368.023                    21879378.262
 117795300.918 6  91788594.15743  22415700.273                    22415708.672
 122061991.671 7  95113198.423 6  23227601.625                    23227609.914
 116465459.535 7  90752378.89145  22162639.188                    22162647.391
 116617311.232 8  90870747.60045  22191506.609                    22191512.023
 11  8 24  2 36  0.0000000  0  9G12G29G21G05G25G26G15G30G02
 118175216.960 7  92084648.381 7  22487990.258                    22487997.887
 113339151.132 8  88316275.113 7  21567720.813                    21567728.262
 130935194.523 6 102027475.04942  24916144.656                    24916151.273
 110336786.656 8  85976800.596 7  20996359.852                    20996366.777
 115015301.860 8  89622370.239 7  21886682.219                    21886692.418
 117715620.428 6  91726505.50443  22400537.883                    22400545.848
 121966793.458 7  95039018.053 6  23209485.977                    23209493.582
 116513106.271 8  90789506.21245  22171706.289                    22171714.527
 116660631.821 8  90904503.90345  22199750.258                    22199755.820
 11  8 24  2 36 30.0000000  0  9G12G29G21G05G25G26G15G30G02
 118260480.296 7  92151087.317 7  22504215.500                    22504223.043
 113267625.145 8  88260540.603 7  21554109.758                    21554117.152
 130879579.249 6 101984138.54042  24905560.492                    24905567.883
 110396028.082 8  86022962.737 7  21007633.219                    21007640.602
 115054216.702 8  89652693.488 7  21894087.719                    21894097.895
 117636273.269 6  91664676.61143  22385438.125                    22385446.383
 121871675.661 7  94964900.328 6  23191385.273                    23191393.711
 116561199.063 8  90826981.10445  22180857.906                    22180866.078
 116704041.378 8  90938329.52745  22208010.727                    22208016.320
 11  8 24  2 37  0.0000000  0  9G12G29G21G05G25G26G15G30G02
 118345966.090 7  92217699.604 7  22520482.727                    22520490.766
 113196326.191 8  88204983.002 7  21540542.258                    21540549.699
 130823953.281 6 101940793.62842  24894974.172                    24894982.895
 110455625.854 8  86069402.545 7  21018974.242                    21018981.379
 115093607.461 8  89683387.575 7  21901583.398                    21901593.445
 117557262.349 6  91603109.70143  22370402.789                    22370411.141
 121776641.239 7  94890847.563 6  23173300.391                    23173308.758
 116609734.724 7  90864801.10245  22190093.828                    22190101.797
 116747539.887 8  90972224.46045  22216288.453                    22216293.645
 11  8 24  2 37 30.0000000  0  9G12G29G21G05G25G26G15G30G02
 118431671.551 7  92284483.045 7  22536791.891                    22536799.996
 113125256.578 8  88149604.108 7  21527017.953                    21527025.945
 130768316.290 6 101897440.20942  24884387.164                    24884395.379
 110515577.597 8  86116118.186 7  21030382.727                    21030390.117
 115133472.084 8  89714450.910 7  21909169.367                    21909179.289
 117478591.630 6  91541807.88243  22355431.734                    22355440.199
 121681693.148 7  94816862.135 7  23155231.828                    23155241.250
 116658710.676 8  90902964.17745  22199413.922                    22199422.121
 116791127.488 8  91006188.80145  22224582.836                    22224588.684
 11  8 24  2 38  0.0000000  0  9G12G29G21G05G25G26G15G30G02
 118517594.058 7  92351435.602 7  22553142.453                    22553150.516
 113054418.993 8  88094406.018 7  21513538.016                    21513545.543
 130712668.060 6 101854078.00142  24873798.031                    24873806.188
 110575881.221 8  86163108.018 7  21041858.492                    21041865.461
 115173808.671 8  89745882.010 7  21916845.469                    21916855.348
 117400264.783 6  91480774.03343  22340525.727                    22340535.156
 121586834.329 7  94742946.226 7  23137181.461                    23137190.172
 116708124.566 8  90941468.49845  22208817.500                    22208825.027
 116834804.724 8  91040222.99345  22232893.961                    22232899.789
 11  8 24  2 38 30.0000000  0  9G12G29G21G05G25G26G15G30G02
 118603729.954 7  92418554.454 7  22569533.695                    22569541.898
 112983815.517 8  88039390.349 7  21500102.586                    21500110.188
 130657007.696 6 101810706.37343  24863206.188                    24863214.801
 110636534.025 8  86210369.916 7  21053400.047                    21053407.199
 115214614.650 8  89777678.857 7  21924610.383                    21924620.371
 117322285.343 6  91420010.90743  22325687.297                    22325695.887
 121492068.266 7  94669102.610 7  23119148.797                    23119157.270
 116757973.426 7  90980311.76845  22218302.844                    22218311.313
 116878571.499 7  91074326.96145  22241222.641                    22241228.156
 11  8 24  2 39  0.0000000  0  9G12G29G21G05G25G26G15G30G02
 118690076.586 7  92485837.514 7  22585964.922                    22585972.684
 112913448.576 8  87984558.994 7  21486712.211                    21486719.656
 130601334.482 6 101767324.69943  24852611.844                    24852620.270
 110697533.574 8  86257902.009 7  21065008.227                    21065014.777
 115255887.860 8  89809839.792 7  21932464.445                    21932474.773
 117244656.815 6  91359521.16043  22310915.664                    22310923.484
 121397397.601 7  94595333.310 7  23101133.156                    23101141.805
 116808254.546 7  91019491.86345  22227871.219                    22227879.367
 116922428.394 7  91108501.16845  22249568.266                    22249574.105
 11  8 24  2 39 30.0000000  0  9G12G29G21G05G25G26G15G30G02
 118776630.242 7  92553281.895 6  22602435.766                    22602443.609
 112843320.680 8  87929913.905 7  21473367.539                    21473374.914
 130545647.941 6 101723932.60843  24842016.227                    24842023.355
 110758877.527 8  86305702.466 7  21076681.789                    21076688.230
 115297626.145 8  89842363.120 7  21940407.086                    21940417.508
 117167382.898 6  91299307.79343  22296211.484                    22296219.090
 121302825.452 7  94521640.767 7  23083136.789                    23083144.879
 116858965.463 7  91059006.85545  22237520.914                    22237529.629
 116966375.587 7  91142745.73945  22257931.133                    22257936.566
 11  8 24  2 40  0.0000000  0  9G12G29G21G05G25G26G15G30G02
 118863388.179 7  92620885.473 6  22618945.289                    22618952.551
 112773433.998 8  87875456.781 7  21460068.266                    21460075.961
 130489947.624 6 101680529.79543  24831416.320                    24831423.895
 110820563.398 8  86353769.372 7  21088419.750                    21088426.496
 115339827.240 8  89875247.078 7  21948437.734                    21948448.301
 117090467.078 6  91239373.45443  22281573.719                    22281582.230
 121208354.888 7  94448027.387 6  23065159.086                    23065166.961
 116910103.359 7  91098854.56645  22247252.125                    22247260.723
 117010413.457 7  91177060.96345  22266311.063                    22266316.922
 11  8 24  2 40 30.0000000  0  9G12G29G21G05G25G26G15G30G02
 118950347.009 7  92688645.578 6  22635493.227                    22635500.445
 112703790.788 8  87821189.375 7  21446815.344                    21446823.121
 130434232.499 6 101637115.44743  24820813.852                    24820821.969
 110882588.331 8  86402100.478 7  21100222.766                    21100229.957
 115382488.574 8  89908489.666 7  21956555.461                    21956566.043
 117013912.691 6  91179720.71143  22267006.961                    22267014.578
 121113988.878 7  94374495.477 6  23047201.813                    23047210.344
 116961665.187 7  91139032.60545  22257064.539                    22257072.559
 117054542.246 7  91211447.01245  22274708.781                    22274714.371
 11  8 24  2 41  0.0000000  0  9G12G29G21G05G25G26G15G30G02
 119037504.428 7  92756560.421 6  22652078.281                    22652086.379
 112634394.093 8  87767114.059 7  21433609.938                    21433617.324
 130378502.741 6 101593689.71643  24810208.219                    24810216.832
 110944950.619 8  86450694.456 7  21112089.867                    21112097.148
 115425608.531 8  89942089.614 7  21964761.125                    21964771.793
 116937723.862 6  91120352.83743  22252507.766                    22252516.227
 121019730.752 7  94301047.652 7  23029264.406                    23029273.434
 117013648.914 7  91179539.39445  22266956.172                    22266964.922
 117098762.802 7  91245904.56745  22283123.844                    22283129.289
 11  8 24  2 41 30.0000000  0  9G12G29G21G05G25G26G15G30G02
 119124857.145 7  92824627.438 7  22668701.430                    22668708.793
 112565245.785 8  87713232.287 7  21420451.125                    21420458.855
 130322757.590 6 101550251.99143  24799599.766                    24799608.527
 111007647.745 8  86499549.347 7  21124020.859                    21124027.906
 115469184.663 8  89976045.040 7  21973053.492                    21973063.891
 116861904.153 7  91061272.58843  22238080.555                    22238088.484
 120925583.797 7  94227686.426 6  23011350.016                    23011357.270
 117066051.718 7  91220372.73845  22276928.430                    22276936.820
 117143075.372 7  91280433.81445  22291556.516                    22291561.441
 11  8 24  2 42  0.0000000  0  9G12G29G21G05G25G26G15G30G02
 119212401.892 7  92892844.090 6  22685360.750                    22685368.434
 112496348.054 8  87659545.762 7  21407340.547                    21407347.855
 130266996.651 6 101506801.99843  24788989.195                    24788997.988
 111070677.052 8  86548663.088 7  21136014.945                    21136022.027
 115513214.561 8  90010354.030 7  21981432.023                    21981442.445
 116786457.148 7  91002482.76443  22223723.391                    22223731.676
 120831551.084 7  94154414.226 7  22993455.945                    22993463.668
 117118870.629 7  91261530.32945  22286979.898                    22286987.887
 117187480.090 8  91315034.87645  22300005.992                    22300011.672
 11  8 24  2 42 30.0000000  0  9G12G29G21G05G25G26G15G30G02
 119300135.871 7  92961208.191 6  22702055.836                    22702063.484
 112427703.866 8  87606056.812 7  21394277.961                    21394285.598
 130211219.329 6 101463339.19743  24778374.555                    24778383.891
 111134036.262 8  86598033.895 7  21148071.773                    21148078.852
 115557695.958 8  90045014.847 7  21989896.805                    21989907.246
 116711386.348 7  90943986.06443  22209437.625                    22209446.047
 120737635.394 7  94081233.209 7  22975584.508                    22975592.480
 117172103.124 7  91303010.18945  22297109.398                    22297117.484
 117231977.495 7  91349708.17145  22308473.969                    22308479.176
 11  8 24  2 43  0.0000000  0  9G12G29G21G05G25G26G15G30G02
 119388055.274 7  93029716.778 7  22718785.703                    22718793.887
 112359314.957 8  87552766.782 7  21381263.930                    21381271.129
 130155424.607 6 101419862.85843  24767757.828                    24767765.781
 111197722.524 8  86647659.549 7  21160190.867                    21160197.938
 115602626.150 8  90080025.368 7  21998446.344                    21998457.000
 116636695.043 6  90885785.08743  22195224.156                    22195232.805
 120643839.741 7  94008145.715 7  22957735.242                    22957743.500
 117225745.960 7  91344809.79245  22307317.219                    22307325.641
 117276567.637 7  91384453.72445  22316959.234                    22316964.508
 11  8 24  2 43 30.0000000  0 10G12G29G21G05G25G26G15G30G02G18
 119476157.045 7  93098367.480 7  22735551.266                    22735559.215
 112291183.588 8  87499677.431 7  21368298.984                    21368305.988
 130099612.099 6 101376372.62243  24757137.297                    24757145.414
 111261732.971 8  86697537.812 7  21172371.813                    21172378.633
 115648002.614 8  90115383.634 7  22007081.141                    22007091.879
 116562386.566 6  90827882.42343  22181082.883                    22181092.188
 120550167.013 7  93935154.039 7  22939909.703                    22939918.047
 117279796.167 7  91386926.83445  22317602.922                    22317611.199
 117321250.667 7  91419271.67145  22325461.727                    22325467.324
 129719351.21416 101080056.85952  24684773.555                    24684782.629
 11  8 24  2 44  0.0000000  0 10G12G29G21G05G25G26G15G30G02G18
 119564438.677 7  93167158.325 6  22752350.719                    22752358.059
 112223312.475 8  87446790.884 7  21355383.320                    21355390.633
 130043781.104 6 101332868.02943  24746512.664                    24746521.188
 111326065.525 8  86747667.065 7  21184614.008                    21184620.992
 115693823.210 8  90151087.986 7  22015800.852                    22015811.289
 116488464.595 6  90770280.93743  22167016.305                    22167025.594
 120456620.548 7  93862260.753 7  22922108.227                    22922117.395
 117334251.273 7  91429359.38645  22327965.156                    22327973.340
 117366027.223 7  91454162.49045  22333982.422                    22333987.949
 129630144.312 6 101010545.11943  24667799.039                    24667807.887
 11  8 24  2 44 30.0000000  0 10G12G29G21G05G25G26G15G30G02G18
 119652896.931 7  93236086.812 7  22769184.195                    22769191.656
 112155704.115 8  87394109.081 7  21342517.930                    21342524.961
 129987931.671 6 101289349.01143  24735884.617                    24735893.230
 111390717.750 8  86798045.418 7  21196916.633                    21196923.453
 115740085.605 8  90187136.595 7  22024604.148                    22024614.133
 116414932.965 6  90712983.59343  22153023.805                    22153032.246
 120363203.181 7  93789468.042 7  22904332.008                    22904340.547
 117389108.441 7  91472105.22045  22338404.305                    22338412.824
 117410897.569 7  91489126.39745  22342521.102                    22342526.484
 129541103.382 6 100941162.69042  24650854.727                    24650863.176
 11  8 24  2 45  0.0000000  0 10G12G29G21G05G25G26G15G30G02G18
 119741528.354 7  93305150.225 6  22786049.906                    22786057.508
 112088360.676 8  87341633.707 7  21329702.781                    21329709.969
 129932062.807 6 101245814.89842  24725252.938                    24725260.965
 111455687.153 8  86848670.925 7  21209279.977                    21209286.723
 115786787.198 8  90223527.445 7  22033491.516                    22033501.512
 116341794.814 6  90655992.87143  22139106.156                    22139114.191
 120269918.073 7  93716778.397 7  22886580.438                    22886588.121
 117444364.690 7  91515162.03945  22348919.133                    22348927.543
 117455862.101 7  91524163.70145  22351077.383                    22351082.984
 129452229.628 6 100871910.54343  24633942.211                    24633951.422
 11  8 24  2 45 30.0000000  0 10G12G29G21G05G25G26G15G30G02G18
 119830330.181 7  93374346.421 6  22802948.758                    22802956.289
 112021284.460 8  87289366.564 7  21316938.867                    21316945.711
 129876174.380 6 101202265.48942  24714617.852                    24714625.699
 111520971.290 8  86899541.677 7  21221703.102                    21221710.027
 115833925.633 8  90260258.676 7  22042461.391                    22042471.652
 116269053.681 6  90599311.50143  22125264.492                    22125271.809
 120176768.626 7  93644194.460 7  22868854.383                    22868862.277
 117500017.330 7  91558527.72545  22359509.414                    22359517.410
 117500921.460 7  91559274.89245  22359652.266                    22359657.473
 129363524.017 6 100802789.39843  24617061.961                    24617071.109
 11  8 24  2 46  0.0000000  0 10G12G29G21G05G25G26G15G30G02G18
 119919299.336 7  93443673.000 6  22819878.813                    22819886.406
 111954478.164 8  87237309.752 7  21304225.492                    21304232.855
 129820265.489 6 101158700.17943  24703979.266                    24703986.414
 111586567.749 8  86950655.794 7  21234185.469                    21234192.379
 115881498.623 8  90297328.518 7  22051514.039                    22051524.605
 116196713.235 6  90542942.36543  22111498.930                    22111505.895
 120083757.946 7  93571718.681 7  22851155.258                    22851163.332
 117556063.534 7  91602200.07645  22370174.586                    22370182.832
 117546075.908 7  91594460.17145  22368244.766                    22368250.199
 129274988.302 6 100733800.65843  24600214.320                    24600223.406
 11  8 24  2 46 30.0000000  0 10G12G29G21G05G25G26G15G30G02G18
 120008432.944 7  93513127.731 6  22836840.750                    22836848.582
 111887944.273 8  87185465.195 7  21291564.766                    21291572.273
 129764335.851 7 101115118.65343  24693335.930                    24693343.582
 111652474.169 8  87002011.447 7  21246727.328                    21246733.977
 115929503.758 8  90334735.104 7  22060649.367                    22060659.359
 116124777.180 6  90486888.35543  22097810.102                    22097817.309
 119990888.960 7  93499353.298 7  22833482.617                    22833491.043
 117612500.590 7  91646176.99845  22380914.422                    22380922.527
 117591325.763 7  91629719.79245  22376855.023                    22376860.914
 129186623.826 6 100664945.33142  24583398.773                    24583408.027
 11  8 24  2 47  0.0000000  0 10G12G29G21G05G25G26G15G30G02G18
 120097727.773 7  93582708.088 6  22853832.688                    22853840.414
 111821685.026 8  87133834.650 7  21278956.086                    21278963.414
 129708385.098 6 101071520.69043  24682689.930                    24682697.453
 111718688.145 8  87053606.757 7  21259327.281                    21259334.129
 115977938.400 8  90372476.362 7  22069866.172                    22069876.762
 116053248.817 6  90431152.02143  22084198.109                    22084205.555
 119898164.998 7  93427100.904 7  22815837.922                    22815846.152
 117669325.458 7  91690456.10745  22391727.625                    22391735.707
 117636671.378 7  91665054.01745  22385484.523                    22385489.645
 129098431.607 6 100596224.25342  24566616.633                    24566625.613
 11  8 24  2 47 30.0000000  0 10G12G29G21G05G25G26G15G30G02G18
 120187180.589 7  93652411.532 6  22870854.750                    22870862.680
 111755702.654 8  87082419.856 7  21266400.063                    21266407.375
 129652412.160 6 101027905.45743  24672038.305                    24672046.344
 111785206.901 8  87105439.558 7  21271985.531                    21271992.273
 116026800.041 8  90410550.345 7  22079164.281                    22079174.488
 115982131.701 6  90375736.08843  22070664.164                    22070672.094
 119805588.960 7  93354963.809 7  22798221.078                    22798229.449
 117726535.193 7  91735035.10145  22402614.414                    22402622.301
 117682113.227 7  91700463.23945  22394132.039                    22394137.363
 129010413.292 6 100527638.66843  24549867.352                    24549876.004
 11  8 24  2 48  0.0000000  0 10G12G29G21G05G25G26G15G30G02G18
 120276788.185 7  93722235.593 6  22887906.305                    22887914.582
 111689999.440 8  87031222.581 7  21253897.094                    21253904.496
 129596416.836 6 100984272.79143  24661381.984                    24661390.836
 111852027.512 8  87157507.573 7  21284701.109                    21284707.754
 116076085.995 8  90448954.962 7  22088543.031                    22088553.359
 115911428.806 6  90320642.96043  22057209.828                    22057217.328
 119713163.856 7  93282944.307 7  22780633.234                    22780641.242
 117784126.744 7  91779911.62445  22413573.953                    22413581.324
 117727651.548 7  91735947.62745  22402797.297                    22402803.039
 128922569.387 6 100459189.00943  24533151.016                    24533160.324
 11  8 24  2 48 30.0000000  0 10G12G29G21G05G25G26G15G30G02G18
 120366547.912 7  93792178.213 6  22904986.813                    22904995.234
 111624578.113 8  86980244.956 7  21241447.852                    21241454.988
 129540398.794 6 100940622.43543  24650722.320                    24650731.055
 111919148.613 8  87209809.728 7  21297473.969                    21297480.070
 116125794.040 8  90487688.476 7  22098002.320                    22098012.684
 115841144.249 6  90265875.78043  22043834.742                    22043843.012
 119620892.769 7  93211044.820 7  22763074.594                    22763082.172
 117842097.489 7  91825083.60745  22424605.188                    22424613.129
 117773286.973 7  91771507.67945  22411481.508                    22411487.266
 128834901.721 6 100390876.66543  24516468.414                    24516477.129
 11  8 24  2 49  0.0000000  0 10G12G29G21G05G25G26G15G30G02G18
 120456456.531 7  93862236.848 6  22922096.469                    22922104.410
 111559440.811 8  86929488.653 7  21229052.734                    21229059.813
 129484357.380 6 100896953.88943  24640058.555                    24640066.754
 111986567.149 8  87262343.644 7  21310303.063                    21310309.891
 116175921.613 8  90526748.907 7  22107540.922                    22107551.813
 115771281.413 6  90211437.24243  22030540.922                    22030549.012
 119528779.201 7  93139268.056 7  22745546.320                    22745553.984
 117900444.529 7  91870548.80845  22435708.305                    22435716.047
 117819019.810 7  91807143.63345  22420184.461                    22420189.570
 128747411.554 6 100322702.64343  24499818.688                    24499827.777
 11  8 24  2 49 30.0000000  0 10G12G29G21G05G25G26G15G30G02G18
 120546510.804 7  93932408.988 6  22939233.555                    22939240.945
 111494590.004 8  86878955.593 7  21216711.992                    21216719.063
 129428291.958 6 100853266.67843  24629388.727                    24629397.195
 112054280.585 8  87315107.369 7  21323188.617                    21323195.379
 116226465.911 8  90566134.040 7  22117159.633                    22117169.945
 115701843.151 6  90157329.52643  22017327.422                    22017335.664
 119436825.684 7  93067616.012 7  22728047.992                    22728055.715
 117959164.646 7  91916304.72345  22446882.227                    22446890.121
 117864850.528 7  91842855.85545  22428905.664                    22428911.301
 128660099.944 6 100254667.76543  24483204.336                    24483213.117
 11  8 24  2 50  0.0000000  0 10G12G29G21G05G25G26G15G30G02G18
 120636708.151 7  94002692.606 6  22956397.133                    22956404.789
 111430028.357 8  86828647.850 7  21204426.289                    21204433.027
 129372202.473 6 100809560.69643  24618715.984                    24618723.414
 112122286.637 8  87368099.094 7  21336129.375                    21336136.309
 116277424.717 8  90605842.183 7  22126856.750                    22126867.164
 115632833.454 6  90103555.74343  22004194.781                    22004202.852
 119345035.968 7  92996091.609 7  22710580.641                    22710588.699
 118018255.269 7  91962349.32945  22458126.500                    22458135.105
 117910779.476 7  91878644.63445  22437645.531                    22437651.238
 128572968.185 5 100186772.99042  24466623.984                    24466631.992
 11  8 24  2 50 30.0000000  0 10G12G29G21G05G25G26G15G30G02G18
 120727044.974 7  94073084.891 6  22973588.102                    22973595.551
 111365758.168 8  86778567.212 7  21192196.086                    21192202.719
 129316088.250 6 100765835.44143  24608037.305                    24608045.285
 112190582.626 8  87421316.752 7  21349125.898                    21349133.047
 116328795.433 8  90645871.284 7  22136632.055                    22136642.676
 115564255.650 7  90050118.51143  21991145.406                    21991152.816
 119253413.134 7  92924697.265 7  22693145.086                    22693153.469
 118077713.399 7  92008680.32345  22469441.547                    22469449.434
 117956807.193 7  91914510.36645  22446403.922                    22446409.746
 128486017.64116 100119007.44653  24450077.344                    24450085.480
 11  8 24  2 51  0.0000000  0 10G12G29G21G05G25G26G15G30G02G18
 120817518.652 7  94143583.821 6  22990804.625                    22990812.473
 111301781.825 7  86728715.545 7  21180021.883                    21180028.945
 129259948.895 6 100722090.60143  24597353.297                    24597361.793
 112259166.314 8  87474758.581 7  21362176.938                    21362183.809
 116380575.519 8  90686219.382 7  22146485.836                    22146495.969
 115496113.228 7  89997020.53943  21978178.477                    21978185.645
 119161960.375 7  92853435.445 7  22675742.227                    22675751.109
 118137536.193 7  92055295.45445  22480825.539                    22480833.527
 118002934.071 7  91950453.35745  22455182.188                    22455187.516
 128399249.655 6 100051396.16243  24433565.961                    24433574.523
 11  8 24  2 51 30.0000000  0 10G12G29G21G05G25G26G15G30G02G18
 120908125.956 7  94214186.876 6  23008046.211                    23008054.035
 111238101.825 7  86679094.791 7  21167903.898                    21167911.094
 129203783.754 6 100678325.71443  24586665.695                    24586674.352
 112328035.376 8  87528422.782 7  21375282.141                    21375289.453
 116432762.289 8  90726884.384 7  22156417.008                    22156426.551
 115428409.650 6  89944264.56643  21965294.852                    21965302.770
 119070680.502 7  92782308.333 7  22658372.492                    22658380.918
 118197720.556 7  92102192.33245  22492278.148                    22492286.375
 118049160.786 7  91986474.14344  22463978.445                    22463984.559
 128312665.360 6  99983928.01743  24417089.211                    24417097.773
 11  8 24  2 52  0.0000000  0 10G12G29G21G05G25G26G15G30G02G18
 120998863.736 7  94284891.600 6  23025312.797                    23025321.117
 111174720.305 7  86629706.622 7  21155842.859                    21155849.977
 129147592.346 6 100634540.27043  24575973.281                    24575981.145
 112397187.103 8  87582307.240 7  21388441.148                    21388447.953
 116485352.934 8  90767864.090 7  22166424.391                    22166434.363
 115361148.042 6  89891852.94242  21952495.070                    21952502.695
 118979576.397 7  92711318.176 7  22641035.789                    22641043.582
 118258263.279 7  92149368.45845  22503798.711                    22503807.273
 118095487.411 7  92022572.77045  22472794.273                    22472799.879
 128226265.646 6  99916603.67143  24400647.602                    24400656.770
 11  8 24  2 52 30.0000000  0 10G12G29G21G05G25G26G15G30G02G18
 121089729.003 7  94355695.669 6  23042604.219                    23042612.238
 111111639.915 8  86580553.085 7  21143838.695                    21143845.840
 129091374.259 6 100590734.08543  24565274.906                    24565282.617
 112466619.119 8  87636410.107 7  21401653.563                    21401660.570
 116538344.896 8  90809156.509 7  22176508.453                    22176518.391
 115294331.676 6  89839788.27943  21939779.820                    21939787.973
 118888651.482 7  92640467.648 7  22623733.563                    22623741.137
 118319161.575 7  92196821.63845  22515387.781                    22515396.035
 118141914.472 7  92058749.66045  22481629.008                    22481634.703
 128140051.821 6  99849424.15943  24384241.625                    24384250.488
 11  8 24  2 53  0.0000000  0 10G12G29G21G05G25G26G15G30G02G18
 121180718.639 7  94426596.645 6  23059919.148                    23059926.848
 111048862.658 7  86531635.763 7  21131892.828                    21131899.910
 129035128.940 6 100546906.66943  24554571.859                    24554579.227
 112536328.500 8  87690729.105 7  21414919.250                    21414926.117
 116591735.516 8  90850759.572 7  22186668.250                    22186678.316
 115227964.026 6  89788073.26643  21927151.047                    21927159.707
 118797908.951 7  92569759.236 7  22606465.359                    22606473.328
 118380412.307 7  92244549.44545  22527042.750                    22527051.543
 118188442.167 7  92095004.96045  22490483.008                    22490489.113
 128054025.050 6  99782390.45243  24367871.766                    24367879.371
 11  8 24  2 53 30.0000000  0 10G12G29G21G05G25G26G15G30G02G18
 121271829.520 7  94497592.105 6  23077257.070                    23077264.980
 110986391.052 7  86482956.605 7  21120004.477                    21120011.813
 128978855.849 6 100503057.49443  24543863.789                    24543870.883
 112606313.197 8  87745262.644 7  21428236.484                    21428243.492
 116645522.094 8  90892671.173 7  22196903.828                    22196913.570
 115162048.354 6  89736710.45643  21914607.188                    21914616.016
 118707351.767 7  92499195.246 7  22589233.016                    22589240.867
 118442012.576 7  92292549.63445  22538765.672                    22538773.859
 118235071.139 7  92131339.18645  22499356.133                    22499361.816
 127968186.618 6  99715503.46743  24351536.773                    24351545.086
 11  8 24  2 54  0.0000000  0 10G12G29G21G05G25G26G15G30G02G18
 121363058.577 7  94568679.642 6  23094617.250                    23094624.871
 110924227.615 8  86434517.579 7  21108175.336                    21108182.676
 128922554.485 6 100459186.36443  24533150.055                    24533156.438
 112676570.634 8  87800008.699 7  21441606.445                    21441613.191
 116699701.936 8  90934889.217 7  22207213.609                    22207223.473
 115096588.011 6  89685702.36043  21902151.258                    21902159.195
 118616982.970 7  92428778.040 7  22572036.563                    22572044.098
 118503959.274 7  92340819.76045  22550553.633                    22550561.914
 118281801.728 7  92167752.59345  22508248.867                    22508253.777
 127882537.756 7  99648764.23143  24335238.125                    24335246.664
 11  8 24  2 54 30.0000000  0 10G12G29G21G05G25G26G15G30G02G18
 121454402.338 7  94639856.566 6  23111999.625                    23112007.031
 110862374.123 7  86386320.068 7  21096405.195                    21096412.168
 128866224.451 6 100415292.91143  24522430.117                    24522436.859
 112747097.721 8  87854964.869 7  21455026.984                    21455034.098
 116754271.993 8  90977411.331 7  22217597.727                    22217608.102
 115031585.881 6  89635051.40743  21889781.344                    21889789.961
 118526805.266 7  92358509.746 7  22554876.039                    22554884.059
 118566249.039 7  92389357.22145  22562406.445                    22562415.355
 118328634.213 7  92204245.40345  22517160.828                    22517166.406
 127797078.818 6  99582172.97843  24318975.766                    24318983.723
 11  8 24  2 55  0.0000000  0 10G12G29G21G05G25G26G15G30G02G18
 121545858.381 7  94711120.991 6  23129403.133                    23129410.551
 110800833.662 8  86338366.485 7  21084694.422                    21084701.656
 128809865.490 6 100371376.89543  24511704.727                    24511712.242
 112817892.765 8  87910129.832 7  21468498.914                    21468506.000
 116809230.111 8  91020235.832 7  22228056.031                    22228066.406
 114967045.990 6  89584760.58243  21877500.875                    21877508.070
 118436822.713 7  92288393.515 7  22537753.227                    22537761.191
 118628879.277 7  92438159.97645  22574324.742                    22574333.508
 118375569.272 7  92240818.14245  22526091.852                    22526097.938
 127711811.784 6  99515731.19443  24302750.266                    24302758.547
 11  8 24  2 55 30.0000000  0 10G12G29G21G05G25G26G15G30G02G18
 121637424.129 7  94782470.881 6  23146827.250                    23146835.461
 110739609.076 8  86290659.029 8  21073043.547                    21073050.973
 128753477.179 6 100327438.01543  24500974.625                    24500982.043
 112888953.779 8  87965502.058 7  21482021.172                    21482028.285
 116864573.899 8  91063360.860 7  22238587.711                    22238597.621
 114902971.757 6  89534832.64043  21865307.234                    21865315.762
 118347038.337 7  92218431.726 7  22520667.602                    22520675.582
 118691847.445 7  92487226.06745  22586307.586                    22586315.645
 118422607.610 7  92277471.35945  22535042.984                    22535049.320
 127626738.018 7  99449440.05943  24286561.117                    24286569.328
 11  8 24  2 56  0.0000000  0 10G12G29G21G05G25G26G15G30G02G18
 121729095.881 7  94853903.392 6  23164272.047                    23164280.102
 110678702.162 8  86243199.106 8  21061453.859                    21061460.996
 128697059.067 6 100283475.91243  24490237.867                    24490245.598
 112960277.723 8  88021079.170 7  21495593.859                    21495600.855
 116920300.371 7  91106784.088 7  22249191.977                    22249202.270
 114839366.345 6  89485270.01443  21853203.758                    21853212.156
 118257454.971 7  92148626.565 7  22503620.531                    22503628.371
 118755150.136 7  92536552.81245  22598353.500                    22598362.238
 118469749.425 7  92314205.21444  22544014.438                    22544019.980
 127541858.364 6  99383300.15143  24270408.984                    24270417.434
 11  8 24  2 56 30.0000000  0 10G12G29G21G05G25G26G15G30G02G18
 121820870.672 7  94925416.186 6  23181736.359                    23181744.055
 110618115.060 8  86195988.391 7  21049924.250                    21049931.316
 128640610.347 6 100239489.92143  24479496.742                    24479503.781
 113031862.055 8  88076859.170 7  21509215.711                    21509222.438
 116976406.433 7  91150503.096 7  22259868.773                    22259878.941
 114776232.607 6  89436074.94743  21841189.117                    21841197.113
 118168075.758 7  92078980.485 7  22486611.891                    22486619.715
 118818783.887 7  92586137.54845  22610462.516                    22610471.230
 118516995.200 7  92351020.08345  22553004.500                    22553010.301
 127457173.904 6  99317312.33943  24254293.336                    24254302.406
 11  8 24  2 57  0.0000000  0 10G12G29G21G05G25G26G15G30G02G18
 121912745.591 7  94997007.001 6  23199219.273                    23199227.172
 110557850.706 8  86149029.156 7  21038456.375                    21038463.359
 128584130.988 6 100195480.10243  24468748.297                    24468755.477
 113103704.760 8  88132840.506 7  21522887.086                    21522894.063
 117032889.779 7  91194516.073 7  22270617.148                    22270626.695
 114713574.134 6  89387250.16943  21829265.195                    21829273.770
 118078904.095 7  92009496.079 7  22469643.172                    22469651.035
 118882746.160 7  92635978.25645  22622634.125                    22622642.941
 118564345.428 7  92387916.33544  22562015.063                    22562020.891
 127372685.934 7  99251477.64743  24238216.258                    24238224.820
 11  8 24  2 57 30.0000000  0 10G12G29G21G05G25G26G15G30G02G18
 122004717.152 7  95068673.116 6  23216721.156                    23216729.180
 110497910.694 8  86102322.663 8  21027050.094                    21027056.828
 128527620.328 6 100151445.86342  24457994.719                    24458002.629
 113175802.554 8  88189020.605 7  21536606.820                    21536613.980
 117089747.111 7  91238820.478 7  22281436.250                    22281446.598
 114651393.542 6  89338797.80343  21817432.492                    21817440.609
 117989942.446 7  91940175.373 7  22452714.570                    22452722.684
 118947033.370 7  92686072.18045  22634868.156                    22634876.348
 118611800.231 7  92424894.06644  22571045.406                    22571050.676
 127288394.933 7  99185796.44543  24222176.672                    24222184.355
 11  8 24  2 58  0.0000000  0 10G12G29G21G05G25G26G15G30G02G18
 122096783.115 7  95140412.778 6  23234240.758                    23234248.820
 110438298.674 8  86055871.751 7  21015705.969                    21015713.242
 128471078.272 6 100107387.26243  24447235.664                    24447243.250
 113248153.715 8  88245398.132 7  21550374.477                    21550381.617
 117146976.231 7  91283414.572 7  22292327.117                    22292336.996
 114589694.802 6  89290720.87543  21805691.414                    21805700.391
 117901194.663 7  91871021.322 7  22435825.836                    22435834.188
 119011642.933 7  92736417.30045  22647162.453                    22647171.531
 118659360.727 7  92461954.14944  22580096.484                    22580101.555
 127204302.469 7  99120269.96443  24206174.008                    24206182.352
 11  8 24  2 58 30.0000000  0 10G12G29G21G05G25G26G15G30G02G18
 122188939.594 6  95212222.980 6  23251777.766                    23251785.793
 110379015.702 8  86009677.241 7  21004424.867                    21004431.930
 128414503.801 6 100063303.31243  24436469.750                    24436478.195
 113320755.268 8  88301970.775 7  21564190.523                    21564197.230
 117204573.880 7  91328295.840 7  22303287.430                    22303297.516
 114528480.547 6  89243021.49743  21794042.906                    21794051.484
 117812663.261 7  91802035.855 7  22418978.672                    22418986.664
 119076571.356 7  92787010.87544  22659518.461                    22659526.098
 118707026.774 7  92499096.49144  22589167.070                    22589172.133
 127120409.637 6  99054899.04643  24190209.820                    24190217.824
 11  8 24  2 59  0.0000000  0 10G12G29G21G05G25G26G15G30G02G18
 122281184.019 7  95284101.697 6  23269331.156                    23269339.500
 110320064.268 8  85963741.084 7  20993206.656                    20993213.563
 128357896.656 6 100019193.87443  24425697.805                    24425706.168
 113393604.599 8  88358736.493 7  21578053.258                    21578059.730
 117262537.058 7  91373461.949 7  22314317.688                    22314327.723
 114467753.833 6  89195702.00643  21782487.492                    21782496.602
 117724351.308 7  91733221.391 7  22402174.070                    22402181.563
 119141815.299 7  92837850.34045  22671933.484                    22671941.742
 118754798.624 7  92536321.28544  22598257.102                    22598262.676
 127036717.138 6  98989684.19743  24174283.289                    24174291.645
 11  8 24  2 59 30.0000000  0 10G12G29G21G05G25G26G15G30G02G18
 122373512.978 7  95356046.303 6  23286900.961                    23286908.973
 110261447.361 8  85918065.592 7  20982052.539                    20982059.793
 128301256.630 6  99975058.85543  24414919.875                    24414927.742
 113466699.748 8  88415693.758 7  21591962.492                    21591969.680
 117320863.482 7  91418911.073 7  22325416.578                    22325427.039
 114407518.468 6  89148765.36243  21771025.305                    21771033.359
 117636262.403 7  91664580.750 7  22385411.180                    22385418.988
 119207372.191 7  92888933.63745  22684408.531                    22684416.676
 118802677.307 7  92573629.34744  22607368.461                    22607373.652
 126953226.363 6  98924626.54143  24158395.852                    24158403.570
 11  8 24  3  0  0.0000000  0 10G12G29G21G05G25G26G15G30G02G18
 122465923.872 7  95428054.744 6  23304486.078                    23304493.930
 110203167.210 8  85872652.521 7  20970961.953                    20970969.230
 128244583.106 6  99930897.73944  24404135.531                    24404143.746
 113540038.454 8  88472840.807 7  21605918.375                    21605925.164
 117379550.436 7  91464641.152 7  22336584.328                    22336594.109
 114347777.447 6  89102213.93543  21759656.430                    21759664.746
 117548399.618 7  91596116.277 7  22368691.469                    22368698.859
 119273238.971 7  92940258.39345  22696942.914                    22696951.145
 118850663.183 7  92611020.91144  22616499.828                    22616505.566
 126869938.616 6  98859727.08143  24142546.805                    24142554.578
 11  8 24  3  0 30.0000000  0 10G12G29G21G05G25G26G15G30G02G18
 122558413.449 7  95500124.499 6  23322085.781                    23322094.609
 110145225.804 7  85827503.402 7  20959936.273                    20959943.465
 128187875.747 7  99886710.23444  24393344.492                    24393352.539
 113613617.990 8  88530175.521 7  21619920.281                    21619926.988
 117438594.653 7  91510649.621 7  22347820.109                    22347830.449
 114288533.454 6  89056049.79743  21748383.070                    21748391.195
 117460765.818 7  91527830.241 7  22352015.031                    22352023.000
 119339412.179 7  92991821.93544  22709535.219                    22709542.977
 118898756.458 7  92648496.17344  22625651.953                    22625656.969
 126786854.406 6  98794986.21543  24126735.117                    24126744.113
 11  8 24  3  1  0.0000000  0 10G12G29G21G05G25G26G15G30G02G18
 122650978.994 6  95572253.432 6  23339700.273                    23339708.688
 110087626.058 8  85782620.515 7  20948975.188                    20948982.254
 128131134.336 6  99842496.22343  24382546.570                    24382554.379
 113687436.016 8  88587696.060 7  21633967.688                    21633974.359
 117497993.682 7  91556934.562 7  22359123.273                    22359133.551
 114229790.240 6  89010275.88543  21737204.695                    21737213.574
 117373364.276 7  91459725.212 7  22335383.555                    22335390.871
 119405889.037 7  93043622.07045  22722184.977                    22722193.148
 118946957.980 7  92686055.76544  22634824.500                    22634829.270
 126703975.118 6  98730405.10042  24110964.016                    24110972.953
 11  8 24  3  1 30.0000000  0 10G12G29G21G05G25G26G15G30G02G18
 122743616.936 6  95644438.796 6  23357329.781                    23357337.121
 110030369.686 8  85738005.181 7  20938079.305                    20938086.773
 128074358.163 7  99798255.07543  24371742.117                    24371749.871
 113761489.613 8  88645400.162 7  21648059.414                    21648066.469
 117557744.160 7  91603493.349 7  22370493.641                    22370504.059
 114171550.184 6  88964894.07843  21726122.039                    21726129.902
 117286197.766 7  91391803.289 7  22318796.883                    22318803.824
 119472665.891 7  93095655.95445  22734891.805                    22734900.902
 118995267.879 7  92723699.79444  22644017.383                    22644022.336
 126621301.644 6  98665984.27642  24095232.984                    24095240.469
 11  8 24  3  2  0.0000000  0 10G12G29G21G05G25G26G15G30G02G18
 122836325.054 7  95716678.833 6  23374970.852                    23374978.945
 109973459.876 8  85693659.902 8  20927249.828                    20927257.672
 128017547.144 6  99753986.78443  24360932.133                    24360939.594
 113835777.043 8  88703286.467 7  21662195.820                    21662202.781
 117617843.824 7  91650324.240 7  22381930.180                    22381940.305
 114113817.214 6  88919907.38443  21715135.508                    21715142.996
 117199269.963 7  91324067.385 7  22302254.102                    22302262.082
 119539740.306 7  93147921.70944  22747655.953                    22747664.488
 119043686.902 7  92761428.87445  22653231.398                    22653236.227
 126538835.368 7  98601724.86043  24079539.016                    24079547.070
 11  8 24  3  2 30.0000000  0 10G12G29G21G05G25G26G15G30G02G18
 122929100.118 7  95788971.055 6  23392625.281                    23392633.496
 109916898.556 7  85649586.162 8  20916486.680                    20916494.180
 127960700.776 6  99709690.95343  24350114.164                    24350121.520
 113910295.523 8  88761352.803 7  21676376.664                    21676383.672
 117678289.664 7  91697424.876 7  22393432.781                    22393443.008
 114056593.825 6  88875317.73543  21704245.938                    21704253.820
 117112583.835 7  91256519.807 7  22285757.984                    22285766.109
 119607108.873 7  93200416.67045  22760475.695                    22760484.707
 119092215.280 7  92799243.15245  22662465.672                    22662471.133
 126456577.216 7  98537627.66443  24063885.438                    24063893.453
 11  8 24  3  3  0.0000000  0 10G12G29G21G05G25G26G15G30G02G18
 123021938.463 7  95861312.565 6  23410292.586                    23410300.117
 109860687.560 7  85605785.404 8  20905790.406                    20905797.281
 127903818.644 6  99665367.27943  24339288.680                    24339297.102
 113985042.566 8  88819597.248 7  21690600.391                    21690606.863
 117739078.471 7  91744792.750 7  22405000.664                    22405010.641
 113999882.959 7  88831127.49943  21693454.211                    21693461.590
 117026141.641 7  91189162.314 7  22269308.633                    22269316.570
 119674768.129 7  93253138.13844  22773351.195                    22773359.016
 119140853.373 7  92837142.93145  22671721.570                    22671727.375
 126374527.876 7  98473693.25043  24048272.641                    24048280.160
 11  8 24  3  3 30.0000000  0 10G12G29G21G05G25G26G15G30G02G18
 123114837.691 7  95933701.518 6  23427970.258                    23427978.453
 109804829.831 8  85562259.925 8  20895160.625                    20895168.148
 127846900.652 6  99621015.65843  24328457.539                    24328465.609
 114060016.016 8  88878018.114 7  21704867.578                    21704874.035
 117800207.753 7  91792425.939 7  22416633.023                    22416643.082
 113943688.054 7  88787339.30843  21682760.969                    21682768.402
 116939947.868 7  91121998.387 7  22252906.484                    22252914.395
 119742715.404 7  93306084.04845  22786280.664                    22786289.879
 119189602.107 7  92875128.91445  22680998.211                    22681003.797
 126292688.263 7  98409922.18743  24032699.102                    24032706.398
 11  8 24  3  4  0.0000000  0 10G12G29G21G05G25G26G15G30G02G18
 123207794.991 7  96006135.729 6  23445659.648                    23445667.559
 109749327.652 8  85519011.496 8  20884598.859                    20884606.016
 127789945.989 6  99576635.43043  24317620.289                    24317627.867
 114135213.422 8  88936613.504 7  21719176.594                    21719183.492
 117861674.537 7  91840322.119 7  22428329.945                    22428339.426
 113888012.085 7  88743955.47243  21672166.219                    21672173.543
 116854004.963 7  91055029.942 7  22236551.914                    22236559.996
 119810947.386 7  93359251.77945  22799264.969                    22799273.766
 119238462.145 7  92913201.65245  22690296.164                    22690301.203
 126211059.609 7  98346315.52443  24017165.250                    24017173.188
 11  8 24  3  4 30.0000000  0 10G12G29G21G05G25G26G15G30G02G18
 123300807.457 6  96078612.928 6  23463359.594                    23463367.465
 109694183.398 8  85476041.968 7  20874105.461                    20874112.535
 127732954.337 6  99532226.40743  24306774.984                    24306782.402
 114210632.476 8  88995381.593 7  21733528.391                    21733535.641
 117923476.031 7  91888479.110 7  22440090.148                    22440100.352
 113832857.956 7  88700978.25644  21661670.828                    21661677.961
 116768316.058 7  90988259.413 7  22220245.570                    22220254.031
 119879461.117 7  93412639.09344  22812302.719                    22812311.629
 119287433.605 7  92951361.19545  22699614.906                    22699620.598
 126129643.119 7  98282874.17343  24001672.055                    24001679.816
 11  8 24  3  5  0.0000000  0 10G12G29G21G05G25G26G15G30G02G18
 123393871.676 6  96151130.438 6  23481068.609                    23481077.520
 109639399.138 7  85433352.961 7  20863680.430                    20863687.582
 127675925.554 6  99487788.43043  24295922.422                    24295929.793
 114286270.407 8  89054320.239 7  21747921.906                    21747929.023
 117985609.037 7  91936894.406 7  22451914.063                    22451924.035
 113778228.552 7  88658409.90144  21651275.328                    21651282.246
 116682884.065 7  90921689.070 7  22203988.539                    22203996.723
 119948253.046 7  93466243.14845  22825394.156                    22825402.574
 119336516.768 7  92989607.77745  22708955.445                    22708960.965
 126048439.824 6  98219598.94143  23986219.578                    23986227.828
 11  8 24  3  5 30.0000000  0 10G12G29G21G05G25G26G15G30G02G18
 123486984.863 6  96223686.123 6  23498788.336                    23498796.090
 109584977.914 8  85390946.831 7  20853324.430                    20853331.543
 127618859.580 6  99443321.50743  24285062.586                    24285070.434
 114362125.338 8  89113427.973 7  21762356.961                    21762363.730
 118048071.126 7  91985566.150 7  22463800.320                    22463809.930
 113724127.283 7  88616253.10544  21640979.539                    21640987.488
 116597712.470 7  90855321.630 7  22187781.258                    22187788.598
 120017320.632 7  93520062.01445  22838536.398                    22838545.383
 119385712.653 7  93027942.20945  22718316.852                    22718322.832
 125967450.705 6  98156490.64643  23970807.133                    23970816.168
 11  8 24  3  6  0.0000000  0 10G12G29G21G05G25G26G15G30G02G18
 123580144.202 6  96296277.769 6  23516515.445                    23516523.727
 109530921.687 8  85348825.115 7  20843037.680                    20843044.758
 127561755.921 6  99398825.22643  24274196.680                    24274203.629
 114438194.916 8  89172702.963 7  21776832.297                    21776839.137
 118110859.385 7  92034492.044 7  22475748.242                    22475758.184
 113670557.110 7  88574510.12944  21630785.375                    21630794.227
 116512804.728 7  90789159.796 7  22171623.766                    22171630.848
 120086660.578 7  93574093.13245  22851731.531                    22851740.672
 119435021.737 7  93066364.82945  22727700.250                    22727705.785
 125886676.453 6  98093549.77644  23955436.656                    23955445.020
 11  8 24  3  6 30.0000000  0 10G12G29G21G05G25G26G15G30G02G18
 123673346.492 6  96368902.882 6  23534251.430                    23534259.172
 109477232.201 8  85306989.183 7  20832820.945                    20832827.746
 127504613.854 6  99354298.98443  24263322.664                    24263330.066
 114514476.237 8  89232142.943 7  21791348.383                    21791355.016
 118173970.314 7  92083669.360 7  22487757.984                    22487768.145
 113617520.358 7  88533182.80344  21620693.227                    21620701.207
 116428163.205 7  90723205.412 7  22155516.922                    22155524.746
 120156269.211 7  93628333.57645  22864977.484                    22864986.797
 119484444.039 7  93104875.69745  22737105.156                    22737110.668
 125806117.843 6  98030776.91443  23940106.891                    23940115.168
 11  8 24  3  7  0.0000000  0 10G12G29G21G05G25G26G15G30G02G18
 123766588.730 6  96441559.130 6  23551994.648                    23552003.418
 109423912.301 8  85265441.230 7  20822674.648                    20822681.547
 127447433.257 6  99309742.78043  24252441.555                    24252448.902
 114590967.289 8  89291746.363 7  21805904.031                    21805910.813
 118237401.262 7  92133096.043 7  22499828.055                    22499838.727
 113565020.046 7  88492273.48244  21610702.570                    21610710.484
 116343790.989 7  90657460.872 7  22139461.344                    22139469.113
 120226143.681 7  93682781.19445  22878274.789                    22878282.547
 119533980.221 7  93143475.30945  22746531.172                    22746537.332
 125725775.938 6  97968172.97543  23924818.359                    23924826.438
 11  8 24  3  7 30.0000000  0 10G12G29G21G05G25G26G15G30G02G18
 123859868.106 7  96514244.324 6  23569744.906                    23569753.566
 109370964.011 8  85224182.853 7  20812598.688                    20812605.504
 127390213.847 6  99265156.33443  24241552.930                    24241560.309
 114667665.299 8  89351511.053 7  21820499.258                    21820505.859
 118301149.199 7  92182769.749 7  22511959.742                    22511969.512
 113513059.415 7  88451784.70444  21600814.914                    21600823.117
 116259691.393 7  90591928.770 7  22123457.953                    22123465.152
 120296280.722 7  93737433.39744  22891621.102                    22891629.691
 119583630.924 7  93182164.15845  22755979.391                    22755985.453
 125645651.681 6  97905738.58143  23909570.805                    23909579.102
 11  8 24  3  8  0.0000000  0 10G12G29G21G05G25G26G15G30G02G18
 123953181.904 7  96586956.329 6  23587502.344                    23587510.480
 109318389.503 8  85183215.735 7  20802594.000                    20802600.918
 127332954.975 6  99220539.07543  24230657.055                    24230664.039
 114744567.881 8  89411435.154 7  21835132.969                    21835139.988
 118365211.060 7  92232688.067 7  22524149.914                    22524160.848
 113461640.718 7  88411718.20244  21591030.125                    21591038.223
 116175867.100 7  90526611.176 7  22107506.391                    22107513.891
 120366676.998 7  93792287.62044  22905017.078                    22905025.492
 119633396.383 7  93220942.43445  22765449.508                    22765455.465
 125565745.846 6  97843474.40743  23894365.492                    23894373.684
 11  8 24  3  8 30.0000000  0 10G12G29G21G05G25G26G15G30G02G18
 124046526.856 7  96659692.596 6  23605265.109                    23605273.813
 109266191.747 7  85142542.182 7  20792661.203                    20792668.281
 127275656.651 6  99175891.09643  24219753.656                    24219760.023
 114821673.298 8  89471517.298 7  21849805.688                    21849812.648
 118429584.370 7  92282849.056 7  22536399.852                    22536410.055
 113410767.710 7  88372076.91544  21581349.367                    21581357.320
 116092321.782 7  90461510.977 7  22091608.219                    22091615.570
 120437329.837 7  93847341.74044  22918461.875                    22918470.668
 119683277.527 7  93259810.86045  22774941.617                    22774947.016
 125486059.859 7  97781381.48843  23879202.172                    23879209.930
 11  8 24  3  9  0.0000000  0 10G12G29G21G05G25G26G15G30G02G18
 124139900.019 7  96732450.843 6  23623033.750                    23623042.047
 109214372.855 8  85102163.846 7  20782800.117                    20782807.168
 127218318.497 6  99131212.07443  24208842.008                    24208849.281
 114898978.844 8  89531755.384 7  21864516.586                    21864523.684
 118494265.850 7  92333250.197 7  22548708.211                    22548718.602
 113360442.585 7  88332862.57144  21571772.719                    21571780.945
 116009058.100 7  90396630.237 7  22075763.555                    22075771.262
 120508235.809 7  93902593.11044  22931954.828                    22931962.824
 119733274.675 7  93298769.66445  22784456.055                    22784461.441
 125406594.324 6  97719460.36343  23864080.023                    23864087.824
 11  8 24  3  9 30.0000000  0 10G12G29G21G05G25G26G15G30G02G18
 124233298.593 6  96805228.887 6  23640806.766                    23640815.496
 109162934.669 8  85062082.168 7  20773012.203                    20773019.070
 127160940.289 6  99086501.83443  24197923.719                    24197930.918
 114976481.977 8  89592147.440 7  21879264.906                    21879272.137
 118559252.504 7  92383889.122 7  22561074.820                    22561085.113
 113310668.348 7  88294077.48844  21562300.977                    21562308.367
 115926079.413 7  90331971.575 7  22059973.945                    22059981.102
 120579391.608 7  93958039.17744  22945495.680                    22945503.844
 119783388.020 7  93337819.01045  22793992.305                    22793997.918
 125327349.833 7  97657711.47743  23849000.109                    23849007.859
 11  8 24  3 10  0.0000000  0 10G12G29G21G05G25G26G15G30G02G18
 124326719.682 6  96878024.466 6  23658584.219                    23658592.852
 109111879.398 8  85022298.871 8  20763296.359                    20763303.152
 127103521.422 6  99041759.94543  24186997.641                    24187004.797
 115054180.224 8  89652691.533 7  21894050.445                    21894057.172
 118624541.155 7  92434763.363 7  22573499.242                    22573509.047
 113261447.442 7  88255723.59045  21552934.836                    21552941.957
 115843388.259 7  90267536.959 7  22044237.742                    22044245.031
 120650793.901 7  94013677.31144  22959083.180                    22959091.684
 119833618.001 7  93376959.23045  22803550.727                    22803556.477
 125248327.557 7  97596135.70343  23833962.766                    23833970.137
 11  8 24  3 10 30.0000000  0 10G12G29G21G05G25G26G15G30G02G18
 124420160.318 6  96950835.293 6  23676365.484                    23676373.574
 109061209.603 8  84982815.939 8  20753654.555                    20753661.188
 127046061.737 6  98996986.26843  24176062.445                    24176070.746
 115132071.707 8  89713386.196 7  21908872.336                    21908879.645
 118690129.133 7  92485870.854 7  22585979.367                    22585990.230
 113212782.981 8  88217803.28845  21543674.000                    21543681.473
 115760988.507 7  90203329.406 7  22028557.297                    22028565.184
 120722439.878 6  94069505.32044  22972716.977                    22972725.391
 119883965.444 7  93416190.99145  22813131.336                    22813136.863
 125169528.619 7  97534733.94543  23818967.961                    23818975.570
 11  8 24  3 11  0.0000000  0 10G12G29G21G05G25G26G15G30G02G18
 124513617.667 7  97023659.139 6  23694149.859                    23694157.945
 109010927.932 8  84943635.438 8  20744086.055                    20744093.074
 126988561.090 7  98952180.62943  24165121.383                    24165128.023
 115210154.164 8  89774229.675 7  21923731.234                    21923738.215
 118756013.566 7  92537209.336 7  22598517.188                    22598527.359
 113164677.620 7  88180318.63645  21534519.945                    21534527.234
 115678882.884 7  90139351.041 7  22012933.234                    22012940.957
 120794326.310 7  94125520.69844  22986396.688                    22986405.203
 119934431.022 7  93455514.81944  22822734.883                    22822740.172
 125090953.792 7  97473506.85843  23804015.422                    23804023.422
 11  8 24  3 11 30.0000000  0 10G12G29G21G05G25G26G15G30G02G18
 124607088.513 7  97096493.500 6  23711936.992                    23711945.035
 108961035.881 8  84904758.538 8  20734592.094                    20734599.172
 126931018.971 7  98907342.64544  24154171.359                    24154178.813
 115288424.680 8  89835219.688 7  21938625.422                    21938632.992
 118822190.990 7  92588776.152 7  22611110.531                    22611120.020
 113117134.009 7  88143271.70145  21525473.016                    21525480.277
 115597073.992 7  90075603.906 7  21997365.539                    21997373.297
 120866449.682 6  94181720.70544  23000120.273                    23000129.176
 119985014.903 7  93494930.81245  22832359.820                    22832365.805
 125012603.424 7  97412454.70943  23789105.547                    23789113.758
 11  8 24  3 12  0.0000000  0 10G12G29G21G05G25G26G15G30G02G18
 124700570.093 7  97169336.223 6  23729726.305                    23729734.410
 108911535.778 8  84866187.042 8  20725172.102                    20725179.414
 126873435.372 6  98862472.38944  24143213.070                    24143220.633
 115366880.895 8  89896354.403 7  21953555.281                    21953562.223
 118888658.574 7  92640569.041 7  22623758.891                    22623768.633
 113070154.655 7  88106664.45145  21516532.609                    21516540.730
 115515565.116 7  90012090.539 7  21981855.172                    21981862.434
 120938806.872 6  94238102.91144  23013889.242                    23013897.883
 120035717.574 7  93534439.37345  22842008.789                    22842014.707
 124934478.588 7  97351578.29243  23774239.117                    23774246.430
 11  8 24  3 12 30.0000000  0 10G12G29G21G05G25G26G15G30G02G18
 124794059.857 7  97242185.331 6  23747516.773                    23747525.004
 108862430.512 8  84827923.214 8  20715828.031                    20715834.977
 126815809.958 6  98817569.52444  24132247.898                    24132255.176
 115445521.092 8  89957632.487 7  21968520.094                    21968526.887
 118955413.626 8  92692585.942 7  22636462.211                    22636471.992
 113023742.905 8  88070499.47445  21507700.719                    21507708.801
 115434359.527 7  89948813.503 7  21966401.766                    21966409.250
 121011395.144 6  94294665.15144  23027702.992                    23027712.066
 120086539.720 7  93574041.03545  22851680.023                    22851685.848
 124856580.319 7  97290878.40943  23759415.320                    23759423.023
 11  8 24  3 13  0.0000000  0 10G12G29G21G05G25G26G15G30G02G18
 124887554.843 7  97315038.543 5  23765308.375                    23765315.977
 108813721.964 8  84789968.515 8  20706559.008                    20706565.914
 126758142.375 7  98772633.75944  24121273.703                    24121281.164
 115524342.914 8  90019052.091 7  21983519.492                    21983526.672
 119022453.021 7  92744824.402 7  22649219.023                    22649229.156
 112977901.044 7  88034778.57745  21498976.953                    21498985.582
 115353460.224 7  89885775.125 7  21951007.453                    21951015.098
 121084210.961 6  94351404.72744  23041559.445                    23041568.309
 120137481.917 7  93613736.23045  22861374.344                    22861380.082
 124778909.314 6  97230355.61944  23744634.750                    23744642.844
 11  8 24  3 13 30.0000000  0 10G12G29G21G05G25G26G15G30G02G18
 124981052.399 7  97387893.774 5  23783100.188                    23783108.172
 108765412.477 8  84752324.777 8  20697365.836                    20697372.906
 126700432.247 7  98727664.87143  24110291.758                    24110299.238
 115603343.986 8  90080611.372 7  21998552.867                    21998559.676
 119089773.601 7  92797281.979 7  22662029.844                    22662040.430
 112932631.441 8  87999503.59345  21490362.602                    21490370.594
 115272870.306 7  89822977.836 7  21935671.789                    21935679.367
 121157251.189 7  94408319.16544  23055458.281                    23055466.680
 120188544.640 7  93653525.33845  22871091.172                    22871096.430
 124701466.476 7  97170010.63344  23729898.469                    23729905.699
 11  8 24  3 14  0.0000000  0 10G12G29G21G05G25G26G15G30G02G18
 125074549.113 7  97460748.336 6  23800891.766                    23800899.949
 108717504.206 8  84714993.659 8  20688249.406                    20688256.125
 126642679.375 7  98682662.66543  24099301.688                    24099308.961
 115682521.670 8  90142308.260 7  22013619.828                    22013626.766
 119157372.404 7  92849956.341 7  22674893.453                    22674904.160
 112887937.040 7  87964676.82345  21481857.852                    21481866.055
 115192592.699 7  89760423.902 7  21920395.148                    21920402.793
 121230512.560 7  94465405.93144  23069399.836                    23069408.016
 120239728.497 7  93693408.84345  22880830.891                    22880836.375
 124624252.626 7  97109844.07244  23715204.430                    23715213.453
 11  8 24  3 14 30.0000000  0 10G12G29G21G05G25G26G15G30G02G18
 125168042.124 7  97533599.955 6  23818683.266                    23818691.848
 108669999.136 8  84677976.724 8  20679209.625                    20679215.949
 126584883.734 6  98637627.13243  24088303.688                    24088310.262
 115761873.615 8  90204140.928 7  22028720.070                    22028726.645
 119225246.277 7  92902845.044 7  22687809.281                    22687820.004
 112843820.198 7  87930300.10445  21473462.375                    21473470.332
 115112630.339 7  89698115.610 7  21905178.750                    21905186.332
 121303991.804 7  94522662.47144  23083382.438                    23083390.773
 120291033.707 7  93733386.90345  22890593.766                    22890599.656
 124547268.581 6  97049856.57043  23700555.133                    23700563.031
 11  8 24  3 15  0.0000000  0 10G12G29G21G05G25G26G15G30G02G18
 125261528.413 6  97606446.337 6  23836473.219                    23836481.824
 108622899.582 8  84641275.772 8  20670246.664                    20670253.293
 126527044.744 6  98592557.81343  24077297.102                    24077303.559
 115841397.775 7  90266107.791 7  22043852.883                    22043859.977
 119293392.110 7  92955945.662 7  22700776.773                    22700787.813
 112800283.365 8  87896375.34045  21465177.156                    21465185.828
 115032985.903 7  89636055.054 7  21890023.289                    21890030.938
 121377685.648 7  94580086.20944  23097406.063                    23097415.098
 120342460.907 7  93773460.03545  22900380.008                    22900385.609
 124470515.181 7  96990048.76444  23685949.719                    23685957.715
 11  8 24  3 15 30.0000000  0 10G12G29G21G05G25G26G15G30G02G18
 125355005.848 6  97679285.813 6  23854260.906                    23854270.012
 108576208.026 7  84604892.744 8  20661361.531                    20661368.383
 126469162.481 6  98547454.79843  24066282.492                    24066289.305
 115921092.094 8  90328207.252 7  22059018.188                    22059025.105
 119361807.283 7  93009256.146 7  22713796.180                    22713806.242
 112757329.671 7  87862904.97445  21457003.969                    21457011.629
 114953663.031 8  89574245.074 7  21874928.352                    21874935.941
 121451591.312 7  94637675.00244  23111470.000                    23111478.285
 120394010.648 7  93813628.65944  22910190.211                    22910195.152
 124393992.863 7  96930421.01644  23671387.633                    23671395.383
